Skip Navigation
Skip Navigation

Today's Weather Data

Time Wind Dir Wind Spd
mph
Wind Gust
mph
Hum In
%
Humidity
%
Temp In
F
Temp
F
Raw Barom
in
Tot Rain
in
UV Solar
W/sqm
DailyRain
in
HourRain
in
24HrRain
in
RainRate
in/hr
11/22/2014 12:01:00a 359 0 3 29 77 69.9 51.4 30.13 1.81 0.0 0 0.22 0.00 0.22 0.000
11/22/2014 12:02:00a 359 1 3 29 77 69.9 51.4 30.13 1.81 0.0 0 0.22 0.00 0.22 0.000
11/22/2014 12:03:06a 359 0 3 29 77 69.9 51.4 30.13 1.81 0.0 0 0.22 0.00 0.22 0.000
11/22/2014 12:04:06a 359 2 3 29 77 69.9 51.4 30.13 1.81 0.0 0 0.22 0.00 0.22 0.000
11/22/2014 12:05:06a 359 3 4 29 77 69.8 51.4 30.13 1.81 0.0 0 0.00 0.00 0.22 0.000
11/22/2014 12:06:06a 359 2 4 29 77 69.8 51.4 30.13 1.81 0.0 0 0.00 0.00 0.22 0.000
11/22/2014 12:07:06a 359 3 4 29 77 69.8 51.4 30.13 1.81 0.0 0 0.00 0.00 0.22 0.000
11/22/2014 12:08:09a 359 3 4 29 77 69.8 51.4 30.13 1.81 0.0 0 0.00 0.00 0.22 0.000
11/22/2014 12:09:13a 359 2 4 29 77 69.8 51.5 30.13 1.81 0.0 0 0.00 0.00 0.22 0.000
11/22/2014 12:10:13a 359 2 4 29 77 69.8 51.5 30.12 1.81 0.0 0 0.00 0.00 0.22 0.000
11/22/2014 12:11:13a 359 1 4 29 77 69.8 51.5 30.12 1.81 0.0 0 0.00 0.00 0.22 0.000
11/22/2014 12:12:13a 359 2 4 29 77 69.8 51.4 30.13 1.81 0.0 0 0.00 0.00 0.22 0.000
11/22/2014 12:13:13a 359 1 4 29 77 69.6 51.3 30.13 1.81 0.0 0 0.00 0.00 0.22 0.000
11/22/2014 12:14:19a 359 0 4 29 77 69.6 51.2 30.13 1.81 0.0 0 0.00 0.00 0.22 0.000
11/22/2014 12:15:19a 359 0 4 29 77 69.6 51.1 30.13 1.81 0.0 0 0.00 0.00 0.22 0.000
11/22/2014 12:16:19a 359 0 4 29 77 69.6 51.1 30.13 1.81 0.0 0 0.00 0.00 0.22 0.000
11/22/2014 12:17:19a 359 0 4 29 77 69.6 51.1 30.13 1.81 0.0 0 0.00 0.00 0.22 0.000
11/22/2014 12:18:20a 359 0 4 29 77 69.6 51.1 30.13 1.81 0.0 0 0.00 0.00 0.22 0.000
11/22/2014 12:19:20a 359 0 0 29 77 69.6 51.1 30.13 1.81 0.0 0 0.00 0.00 0.22 0.000
11/22/2014 12:20:20a 359 0 0 29 77 69.4 51.1 30.12 1.81 0.0 0 0.00 0.00 0.22 0.000
11/22/2014 12:21:20a 359 0 0 29 77 69.4 51.1 30.12 1.81 0.0 0 0.00 0.00 0.22 0.000
11/22/2014 12:22:20a 359 0 0 29 77 69.4 51.1 30.13 1.81 0.0 0 0.00 0.00 0.22 0.000
11/22/2014 12:23:20a 359 0 1 29 77 69.4 51.1 30.13 1.81 0.0 0 0.00 0.00 0.22 0.000
11/22/2014 12:24:21a 359 0 1 29 77 69.4 51.1 30.13 1.81 0.0 0 0.00 0.00 0.22 0.000
11/22/2014 12:25:20a 359 0 1 29 77 69.4 51.1 30.13 1.81 0.0 0 0.00 0.00 0.22 0.000
11/22/2014 12:26:21a 359 0 1 29 77 69.4 51.1 30.13 1.81 0.0 0 0.00 0.00 0.22 0.000
11/22/2014 12:27:34a 359 0 1 29 77 69.3 51.0 30.12 1.81 0.0 0 0.00 0.00 0.22 0.000
11/22/2014 12:28:37a 359 0 1 29 77 69.3 51.0 30.12 1.81 0.0 0 0.00 0.00 0.22 0.000
11/22/2014 12:29:40a 359 1 1 29 77 69.3 51.0 30.12 1.81 0.0 0 0.00 0.00 0.22 0.000
11/22/2014 12:30:40a 359 1 2 29 77 69.3 50.9 30.12 1.81 0.0 0 0.00 0.00 0.22 0.000
11/22/2014 12:31:40a 359 1 2 29 77 69.3 50.9 30.12 1.81 0.0 0 0.00 0.00 0.22 0.000
11/22/2014 12:32:40a 359 1 3 29 77 69.3 50.9 30.12 1.81 0.0 0 0.00 0.00 0.22 0.000
11/22/2014 12:33:40a 359 0 1 29 77 69.3 50.9 30.13 1.81 0.0 0 0.00 0.00 0.22 0.000
11/22/2014 12:34:40a 359 0 1 29 77 69.3 50.9 30.12 1.81 0.0 0 0.00 0.00 0.22 0.000
11/22/2014 12:35:40a 359 0 1 29 77 69.3 50.9 30.13 1.81 0.0 0 0.00 0.00 0.22 0.000
11/22/2014 12:36:41a 359 0 1 29 77 69.1 50.8 30.13 1.81 0.0 0 0.00 0.00 0.22 0.000
11/22/2014 12:37:41a 359 0 1 29 77 69.1 50.8 30.13 1.81 0.0 0 0.00 0.00 0.22 0.000
11/22/2014 12:38:44a 359 0 1 29 77 69.1 50.8 30.13 1.81 0.0 0 0.00 0.00 0.22 0.000
11/22/2014 12:39:44a 359 0 1 29 77 69.1 50.8 30.13 1.81 0.0 0 0.00 0.00 0.22 0.000
11/22/2014 12:40:44a 359 0 1 29 77 69.1 50.7 30.13 1.81 0.0 0 0.00 0.00 0.22 0.000
11/22/2014 12:41:44a 359 0 1 29 77 69.1 50.7 30.13 1.81 0.0 0 0.00 0.00 0.22 0.000
11/22/2014 12:42:44a 359 0 1 29 77 69.1 50.7 30.13 1.81 0.0 0 0.00 0.00 0.22 0.000
11/22/2014 12:43:44a 359 0 1 29 76 69.1 50.6 30.13 1.81 0.0 0 0.00 0.00 0.22 0.000
11/22/2014 12:44:44a 359 0 1 29 76 69.1 50.6 30.13 1.81 0.0 0 0.00 0.00 0.22 0.000
11/22/2014 12:45:44a 359 0 1 29 76 68.9 50.6 30.13 1.81 0.0 0 0.00 0.00 0.22 0.000
11/22/2014 12:46:44a 359 0 1 29 76 68.9 50.6 30.13 1.81 0.0 0 0.00 0.00 0.22 0.000
11/22/2014 12:47:44a 359 0 1 29 76 68.9 50.6 30.13 1.81 0.0 0 0.00 0.00 0.22 0.000
11/22/2014 12:48:44a 359 0 0 29 76 68.9 50.6 30.13 1.81 0.0 0 0.00 0.00 0.22 0.000
11/22/2014 12:49:44a 359 2 2 29 76 68.9 50.5 30.13 1.81 0.0 0 0.00 0.00 0.22 0.000
11/22/2014 12:50:56a 359 1 2 29 76 68.9 50.5 30.13 1.81 0.0 0 0.00 0.00 0.22 0.000
11/22/2014 12:51:57a 359 1 2 29 76 68.9 50.4 30.13 1.81 0.0 0 0.00 0.00 0.22 0.000
11/22/2014 12:52:57a 359 1 2 29 76 68.9 50.4 30.13 1.81 0.0 0 0.00 0.00 0.22 0.000
11/22/2014 12:54:00a 359 1 2 29 76 68.9 50.4 30.13 1.81 0.0 0 0.00 0.00 0.22 0.000
11/22/2014 12:55:00a 359 2 3 29 76 68.8 50.3 30.13 1.81 0.0 0 0.00 0.00 0.22 0.000
11/22/2014 12:56:00a 359 0 3 29 76 68.8 50.2 30.13 1.81 0.0 0 0.00 0.00 0.22 0.000
11/22/2014 12:57:00a 359 0 3 29 76 68.8 50.2 30.13 1.81 0.0 0 0.00 0.00 0.22 0.000
11/22/2014 12:58:03a 359 0 3 29 76 68.8 50.0 30.13 1.81 0.0 0 0.00 0.00 0.22 0.000
11/22/2014 12:59:03a 359 0 3 29 76 68.8 50.0 30.13 1.81 0.0 0 0.00 0.00 0.22 0.000
11/22/2014 1:00:06a 359 0 3 29 76 68.8 49.9 30.13 1.81 0.0 0 0.00 0.00 0.22 0.000
11/22/2014 1:01:06a 359 0 3 29 76 68.8 50.0 30.13 1.81 0.0 0 0.00 0.00 0.22 0.000
11/22/2014 1:02:06a 359 0 3 29 77 68.8 50.0 30.13 1.81 0.0 0 0.00 0.00 0.22 0.000
11/22/2014 1:03:07a 359 0 3 29 77 68.8 50.0 30.13 1.81 0.0 0 0.00 0.00 0.22 0.000
11/22/2014 1:04:07a 359 0 0 29 77 68.6 50.0 30.13 1.81 0.0 0 0.00 0.00 0.22 0.000
11/22/2014 1:05:07a 359 0 0 29 77 68.6 50.0 30.13 1.81 0.0 0 0.00 0.00 0.22 0.000
11/22/2014 1:06:07a 359 0 0 29 77 68.6 50.1 30.12 1.81 0.0 0 0.00 0.00 0.22 0.000
11/22/2014 1:07:07a 359 0 0 29 77 68.6 50.1 30.13 1.81 0.0 0 0.00 0.00 0.22 0.000
11/22/2014 1:08:07a 359 0 0 29 77 68.6 50.1 30.13 1.81 0.0 0 0.00 0.00 0.22 0.000
11/22/2014 1:09:07a 359 0 0 29 77 68.6 50.0 30.13 1.81 0.0 0 0.00 0.00 0.22 0.000
11/22/2014 1:10:07a 359 0 1 29 76 68.6 50.0 30.13 1.81 0.0 0 0.00 0.00 0.22 0.000
11/22/2014 1:11:17a 359 0 1 29 76 68.6 50.0 30.13 1.81 0.0 0 0.00 0.00 0.22 0.000
11/22/2014 1:12:17a 359 1 1 29 77 68.6 50.0 30.13 1.81 0.0 0 0.00 0.00 0.22 0.000
11/22/2014 1:13:17a 359 0 1 29 77 68.4 50.0 30.13 1.81 0.0 0 0.00 0.00 0.22 0.000
11/22/2014 1:14:17a 359 0 1 29 77 68.4 50.0 30.13 1.81 0.0 0 0.00 0.00 0.22 0.000
11/22/2014 1:15:17a 359 0 1 29 77 68.4 50.0 30.13 1.81 0.0 0 0.00 0.00 0.22 0.000
11/22/2014 1:16:17a 359 0 1 29 77 68.4 50.0 30.13 1.81 0.0 0 0.00 0.00 0.22 0.000
11/22/2014 1:17:17a 359 0 2 29 77 68.4 50.1 30.13 1.81 0.0 0 0.00 0.00 0.22 0.000
11/22/2014 1:18:17a 359 2 2 29 77 68.4 50.1 30.13 1.81 0.0 0 0.00 0.00 0.22 0.000
11/22/2014 1:19:17a 359 2 3 29 76 68.4 50.0 30.13 1.81 0.0 0 0.00 0.00 0.22 0.000
11/22/2014 1:20:20a 359 2 3 29 76 68.4 49.8 30.13 1.81 0.0 0 0.00 0.00 0.22 0.000
11/22/2014 1:21:20a 359 2 3 29 76 68.3 49.7 30.13 1.81 0.0 0 0.00 0.00 0.22 0.000
11/22/2014 1:22:20a 359 2 3 29 76 68.3 49.6 30.13 1.81 0.0 0 0.00 0.00 0.22 0.000
11/22/2014 1:23:20a 359 2 3 29 76 68.3 49.6 30.13 1.81 0.0 0 0.00 0.00 0.22 0.000
11/22/2014 1:24:20a 359 0 3 29 76 68.3 49.5 30.13 1.81 0.0 0 0.00 0.00 0.22 0.000
11/22/2014 1:25:21a 359 2 3 29 76 68.3 49.5 30.13 1.81 0.0 0 0.00 0.00 0.22 0.000
11/22/2014 1:26:21a 359 1 3 29 76 68.3 49.5 30.13 1.81 0.0 0 0.00 0.00 0.22 0.000
11/22/2014 1:27:21a 359 0 3 29 76 68.3 49.5 30.13 1.81 0.0 0 0.00 0.00 0.22 0.000
11/22/2014 1:28:21a 359 0 3 29 77 68.3 49.6 30.13 1.81 0.0 0 0.00 0.00 0.22 0.000
11/22/2014 1:29:21a 359 0 3 29 77 68.3 49.7 30.13 1.81 0.0 0 0.00 0.00 0.22 0.000
11/22/2014 1:30:21a 359 0 3 29 77 68.1 49.7 30.13 1.81 0.0 0 0.00 0.00 0.22 0.000
11/22/2014 1:31:21a 359 0 3 29 77 68.1 49.8 30.14 1.81 0.0 0 0.00 0.00 0.22 0.000
11/22/2014 1:32:21a 359 0 3 29 77 68.1 49.9 30.13 1.81 0.0 0 0.00 0.00 0.22 0.000
11/22/2014 1:33:21a 359 0 3 29 77 68.1 49.9 30.13 1.81 0.0 0 0.00 0.00 0.22 0.000
11/22/2014 1:34:27a 359 0 0 29 77 68.1 49.9 30.13 1.81 0.0 0 0.00 0.00 0.10 0.000
11/22/2014 1:35:28a 359 0 0 29 76 68.1 49.9 30.13 1.81 0.0 0 0.00 0.00 0.10 0.000
11/22/2014 1:36:28a 359 0 0 29 76 68.1 49.9 30.13 1.81 0.0 0 0.00 0.00 0.10 0.000
11/22/2014 1:37:28a 359 0 1 29 76 68.1 49.8 30.13 1.81 0.0 0 0.00 0.00 0.10 0.000
11/22/2014 1:38:28a 359 1 2 29 76 67.9 49.8 30.13 1.81 0.0 0 0.00 0.00 0.10 0.000
11/22/2014 1:39:28a 359 1 2 29 76 67.9 49.7 30.13 1.81 0.0 0 0.00 0.00 0.10 0.000
11/22/2014 1:40:28a 359 1 2 29 76 67.9 49.7 30.13 1.81 0.0 0 0.00 0.00 0.10 0.000
11/22/2014 1:41:28a 359 0 2 29 76 67.9 49.7 30.13 1.81 0.0 0 0.00 0.00 0.10 0.000
11/22/2014 1:42:31a 359 0 2 29 76 67.9 49.6 30.14 1.81 0.0 0 0.00 0.00 0.10 0.000
11/22/2014 1:43:31a 359 0 2 29 76 67.9 49.5 30.14 1.81 0.0 0 0.00 0.00 0.10 0.000
11/22/2014 1:44:31a 359 0 2 29 76 67.9 49.5 30.13 1.81 0.0 0 0.00 0.00 0.10 0.000
11/22/2014 1:45:34a 359 0 2 29 76 67.9 49.5 30.13 1.81 0.0 0 0.00 0.00 0.10 0.000
11/22/2014 1:46:34a 359 0 2 29 76 67.9 49.5 30.14 1.81 0.0 0 0.00 0.00 0.10 0.000
11/22/2014 1:47:35a 359 0 2 29 77 67.8 49.5 30.14 1.81 0.0 0 0.00 0.00 0.10 0.000
11/22/2014 1:48:35a 359 0 0 29 77 67.8 49.5 30.14 1.81 0.0 0 0.00 0.00 0.10 0.000
11/22/2014 1:49:35a 359 0 0 29 77 67.8 49.5 30.14 1.81 0.0 0 0.00 0.00 0.04 0.000
11/22/2014 1:50:35a 359 0 0 29 77 67.8 49.5 30.14 1.81 0.0 0 0.00 0.00 0.04 0.000
11/22/2014 1:51:35a 359 1 2 29 77 67.8 49.6 30.14 1.81 0.0 0 0.00 0.00 0.04 0.000
11/22/2014 1:52:35a 359 0 2 29 77 67.8 49.7 30.14 1.81 0.0 0 0.00 0.00 0.04 0.000
11/22/2014 1:53:35a 359 0 2 29 77 67.8 49.7 30.14 1.81 0.0 0 0.00 0.00 0.04 0.000
11/22/2014 1:54:35a 359 0 2 29 77 67.8 49.8 30.14 1.81 0.0 0 0.00 0.00 0.04 0.000
11/22/2014 1:55:38a 359 0 2 29 77 67.8 49.8 30.14 1.81 0.0 0 0.00 0.00 0.04 0.000
11/22/2014 1:56:38a 359 0 2 29 77 67.8 49.9 30.14 1.81 0.0 0 0.00 0.00 0.04 0.000
11/22/2014 1:57:38a 359 0 2 29 77 67.6 49.9 30.14 1.81 0.0 0 0.00 0.00 0.04 0.000
11/22/2014 1:58:38a 359 0 2 29 77 67.6 49.9 30.14 1.81 0.0 0 0.00 0.00 0.04 0.000
11/22/2014 1:59:39a 359 0 2 29 77 67.6 49.9 30.14 1.81 0.0 0 0.00 0.00 0.04 0.000
11/22/2014 2:00:42a 359 0 2 29 77 67.6 49.8 30.14 1.81 0.0 0 0.00 0.00 0.04 0.000
11/22/2014 2:01:42a 359 0 2 29 77 67.6 49.8 30.14 1.81 0.0 0 0.00 0.00 0.04 0.000
11/22/2014 2:02:42a 359 0 2 29 77 67.6 49.8 30.14 1.81 0.0 0 0.00 0.00 0.04 0.000
11/22/2014 2:03:42a 359 0 0 29 77 67.6 49.8 30.14 1.81 0.0 0 0.00 0.00 0.04 0.000
11/22/2014 2:04:42a 359 0 0 29 77 67.6 49.8 30.14 1.81 0.0 0 0.00 0.00 0.04 0.000
11/22/2014 2:05:42a 359 0 0 29 77 67.6 49.8 30.14 1.81 0.0 0 0.00 0.00 0.02 0.000
11/22/2014 2:06:42a 359 1 1 29 77 67.5 49.8 30.14 1.81 0.0 0 0.00 0.00 0.02 0.000
11/22/2014 2:07:42a 359 0 2 29 77 67.5 49.8 30.14 1.81 0.0 0 0.00 0.00 0.02 0.000
11/22/2014 2:08:42a 359 0 2 29 77 67.5 49.7 30.14 1.81 0.0 0 0.00 0.00 0.02 0.000
11/22/2014 2:09:42a 359 2 2 29 77 67.5 49.7 30.14 1.81 0.0 0 0.00 0.00 0.02 0.000
11/22/2014 2:10:42a 359 0 2 29 77 67.5 49.6 30.14 1.81 0.0 0 0.00 0.00 0.02 0.000
11/22/2014 2:11:43a 359 0 2 29 77 67.5 49.6 30.15 1.81 0.0 0 0.00 0.00 0.02 0.000
11/22/2014 2:12:43a 359 2 3 29 77 67.5 49.6 30.14 1.81 0.0 0 0.00 0.00 0.02 0.000
11/22/2014 2:13:43a 359 3 4 29 78 67.5 49.6 30.14 1.81 0.0 0 0.00 0.00 0.02 0.000
11/22/2014 2:14:43a 359 0 4 29 78 67.3 49.6 30.14 1.81 0.0 0 0.00 0.00 0.02 0.000
11/22/2014 2:15:43a 359 3 4 29 78 67.3 49.5 30.14 1.81 0.0 0 0.00 0.00 0.02 0.000
11/22/2014 2:16:43a 359 2 4 29 78 67.3 49.5 30.14 1.81 0.0 0 0.00 0.00 0.02 0.000
11/22/2014 2:17:43a 359 2 4 29 78 67.3 49.5 30.14 1.81 0.0 0 0.00 0.00 0.02 0.000
11/22/2014 2:18:43a 359 1 2 29 77 67.3 49.4 30.14 1.81 0.0 0 0.00 0.00 0.02 0.000
11/22/2014 2:19:43a 359 2 2 29 77 67.3 49.3 30.14 1.81 0.0 0 0.00 0.00 0.02 0.000
11/22/2014 2:20:43a 359 0 2 29 77 67.3 49.3 30.14 1.81 0.0 0 0.00 0.00 0.02 0.000
11/22/2014 2:21:43a 359 1 2 29 77 67.3 49.4 30.14 1.81 0.0 0 0.00 0.00 0.02 0.000
11/22/2014 2:22:46a 359 1 2 29 78 67.3 49.4 30.14 1.81 0.0 0 0.00 0.00 0.02 0.000
11/22/2014 2:23:46a 359 0 2 29 78 67.1 49.5 30.15 1.81 0.0 0 0.00 0.00 0.02 0.000
11/22/2014 2:24:46a 359 1 2 29 78 67.1 49.5 30.14 1.81 0.0 0 0.00 0.00 0.02 0.000
11/22/2014 2:25:46a 359 2 2 29 78 67.1 49.5 30.14 1.81 0.0 0 0.00 0.00 0.02 0.000
11/22/2014 2:26:46a 359 2 2 29 78 67.1 49.5 30.14 1.81 0.0 0 0.00 0.00 0.02 0.000
11/22/2014 2:27:49a 359 0 2 29 77 67.1 49.4 30.14 1.81 0.0 0 0.00 0.00 0.02 0.000
11/22/2014 2:28:50a 359 0 2 29 77 67.1 49.4 30.14 1.81 0.0 0 0.00 0.00 0.02 0.000
11/22/2014 2:29:50a 359 0 2 29 77 67.1 49.4 30.14 1.81 0.0 0 0.00 0.00 0.02 0.000
11/22/2014 2:30:50a 359 0 2 29 77 67.1 49.5 30.14 1.81 0.0 0 0.00 0.00 0.02 0.000
11/22/2014 2:31:50a 359 0 2 29 77 67.1 49.5 30.14 1.81 0.0 0 0.00 0.00 0.02 0.000
11/22/2014 2:32:50a 359 0 2 29 77 67.0 49.5 30.14 1.81 0.0 0 0.00 0.00 0.02 0.000
11/22/2014 2:33:50a 359 0 0 29 77 67.0 49.5 30.14 1.81 0.0 0 0.00 0.00 0.02 0.000
11/22/2014 2:34:50a 359 0 0 29 77 67.0 49.5 30.14 1.81 0.0 0 0.00 0.00 0.02 0.000
11/22/2014 2:35:50a 359 0 1 29 77 67.0 49.6 30.14 1.81 0.0 0 0.00 0.00 0.02 0.000
11/22/2014 2:36:50a 359 0 1 29 77 67.0 49.7 30.14 1.81 0.0 0 0.00 0.00 0.02 0.000
11/22/2014 2:37:50a 359 1 1 29 77 67.0 49.7 30.14 1.81 0.0 0 0.00 0.00 0.02 0.000
11/22/2014 2:38:50a 359 0 1 29 77 67.0 49.7 30.14 1.81 0.0 0 0.00 0.00 0.02 0.000
11/22/2014 2:39:50a 359 1 1 29 77 67.0 49.7 30.14 1.81 0.0 0 0.00 0.00 0.02 0.000
11/22/2014 2:40:50a 359 0 1 29 77 67.0 49.8 30.14 1.81 0.0 0 0.00 0.00 0.02 0.000
11/22/2014 2:41:51a 359 0 2 29 77 67.0 49.8 30.14 1.81 0.0 0 0.00 0.00 0.02 0.000
11/22/2014 2:42:51a 359 0 2 29 77 66.8 49.8 30.14 1.81 0.0 0 0.00 0.00 0.02 0.000
11/22/2014 2:43:54a 359 2 3 29 77 66.8 49.8 30.14 1.81 0.0 0 0.00 0.00 0.02 0.000
11/22/2014 2:44:54a 359 2 3 29 77 66.8 49.9 30.14 1.81 0.0 0 0.00 0.00 0.02 0.000
11/22/2014 2:45:54a 359 2 3 29 77 66.8 49.9 30.14 1.81 0.0 0 0.00 0.00 0.02 0.000
11/22/2014 2:46:54a 359 4 4 29 77 66.8 49.9 30.14 1.81 0.0 0 0.00 0.00 0.02 0.000
11/22/2014 2:47:54a 359 3 4 29 77 66.8 49.9 30.14 1.81 0.0 0 0.00 0.00 0.02 0.000
11/22/2014 2:48:57a 359 3 4 29 77 66.8 49.8 30.14 1.81 0.0 0 0.00 0.00 0.02 0.000
11/22/2014 2:49:57a 359 1 4 29 77 66.8 49.8 30.14 1.81 0.0 0 0.00 0.00 0.02 0.000
11/22/2014 2:50:57a 359 2 4 29 77 66.8 49.8 30.14 1.81 0.0 0 0.00 0.00 0.02 0.000
11/22/2014 2:51:57a 359 1 4 29 77 66.7 49.8 30.14 1.81 0.0 0 0.00 0.00 0.02 0.000
11/22/2014 2:52:57a 359 0 4 29 77 66.7 49.7 30.14 1.81 0.0 0 0.00 0.00 0.02 0.000
11/22/2014 2:53:57a 359 2 4 29 77 66.7 49.7 30.14 1.81 0.0 0 0.00 0.00 0.02 0.000
11/22/2014 2:54:57a 359 3 4 29 77 66.7 49.5 30.14 1.81 0.0 0 0.00 0.00 0.02 0.000
11/22/2014 2:55:58a 359 3 4 29 77 66.7 49.5 30.14 1.81 0.0 0 0.00 0.00 0.02 0.000
11/22/2014 2:57:01a 359 0 4 29 77 66.7 49.4 30.14 1.81 0.0 0 0.00 0.00 0.02 0.000
11/22/2014 2:58:01a 359 1 4 29 77 66.7 49.4 30.14 1.81 0.0 0 0.00 0.00 0.02 0.000
11/22/2014 2:59:01a 359 0 4 29 77 66.7 49.4 30.14 1.81 0.0 0 0.00 0.00 0.02 0.000
11/22/2014 3:00:01a 359 2 4 29 77 66.7 49.4 30.14 1.81 0.0 0 0.00 0.00 0.02 0.000
11/22/2014 3:01:01a 359 0 4 29 77 66.7 49.4 30.14 1.81 0.0 0 0.00 0.00 0.02 0.000
11/22/2014 3:02:01a 359 0 4 29 77 66.5 49.4 30.14 1.81 0.0 0 0.00 0.00 0.02 0.000
11/22/2014 3:03:01a 359 1 4 29 77 66.5 49.4 30.14 1.81 0.0 0 0.00 0.00 0.02 0.000
11/22/2014 3:04:01a 359 1 2 29 77 66.5 49.4 30.14 1.81 0.0 0 0.00 0.00 0.02 0.000
11/22/2014 3:05:07a 359 2 2 29 77 66.5 49.4 30.14 1.81 0.0 0 0.00 0.00 0.02 0.000
11/22/2014 3:06:07a 359 1 3 29 77 66.5 49.4 30.14 1.81 0.0 0 0.00 0.00 0.02 0.000
11/22/2014 3:07:07a 359 0 3 29 77 66.5 49.4 30.14 1.81 0.0 0 0.00 0.00 0.02 0.000
11/22/2014 3:08:08a 359 2 3 29 77 66.5 49.5 30.14 1.81 0.0 0 0.00 0.00 0.02 0.000
11/22/2014 3:09:08a 359 3 3 29 77 66.5 49.4 30.14 1.81 0.0 0 0.00 0.00 0.02 0.000
11/22/2014 3:10:08a 359 1 3 29 77 66.5 49.5 30.14 1.81 0.0 0 0.00 0.00 0.02 0.000
11/22/2014 3:11:08a 359 0 3 29 77 66.5 49.5 30.14 1.81 0.0 0 0.00 0.00 0.02 0.000
11/22/2014 3:12:08a 359 1 3 29 77 66.3 49.5 30.14 1.81 0.0 0 0.00 0.00 0.02 0.000
11/22/2014 3:13:08a 359 2 3 29 77 66.3 49.5 30.14 1.81 0.0 0 0.00 0.00 0.02 0.000
11/22/2014 3:14:08a 359 2 3 29 77 66.3 49.5 30.14 1.81 0.0 0 0.00 0.00 0.02 0.000
11/22/2014 3:15:08a 359 1 3 29 77 66.3 49.6 30.14 1.81 0.0 0 0.00 0.00 0.02 0.000
11/22/2014 3:16:08a 359 1 3 29 77 66.3 49.6 30.14 1.81 0.0 0 0.00 0.00 0.02 0.000
11/22/2014 3:17:08a 359 2 3 29 77 66.3 49.6 30.14 1.81 0.0 0 0.00 0.00 0.02 0.000
11/22/2014 3:18:11a 359 2 3 29 77 66.3 49.6 30.14 1.81 0.0 0 0.00 0.00 0.02 0.000
11/22/2014 3:19:11a 359 1 4 29 77 66.3 49.6 30.14 1.81 0.0 0 0.00 0.00 0.02 0.000
11/22/2014 3:20:11a 359 2 4 29 77 66.3 49.6 30.14 1.81 0.0 0 0.00 0.00 0.02 0.000
11/22/2014 3:21:11a 359 0 4 29 77 66.3 49.6 30.14 1.81 0.0 0 0.00 0.00 0.00 0.000
11/22/2014 3:22:12a 359 2 4 29 77 66.2 49.5 30.14 1.81 0.0 0 0.00 0.00 0.00 0.000
11/22/2014 3:23:12a 359 2 4 29 77 66.2 49.5 30.14 1.81 0.0 0 0.00 0.00 0.00 0.000
11/22/2014 3:24:12a 359 0 4 29 77 66.2 49.5 30.14 1.81 0.0 0 0.00 0.00 0.00 0.000
11/22/2014 3:25:15a 359 1 4 29 77 66.2 49.5 30.14 1.81 0.0 0 0.00 0.00 0.00 0.000
11/22/2014 3:26:15a 359 0 4 29 77 66.2 49.5 30.14 1.81 0.0 0 0.00 0.00 0.00 0.000
11/22/2014 3:27:15a 359 0 4 29 77 66.2 49.5 30.13 1.81 0.0 0 0.00 0.00 0.00 0.000
11/22/2014 3:28:15a 359 0 4 29 77 66.2 49.5 30.14 1.81 0.0 0 0.00 0.00 0.00 0.000
11/22/2014 3:29:15a 359 0 4 29 77 66.2 49.6 30.13 1.81 0.0 0 0.00 0.00 0.00 0.000
11/22/2014 3:30:15a 359 0 4 29 77 66.2 49.6 30.13 1.81 0.0 0 0.00 0.00 0.00 0.000
11/22/2014 3:31:15a 359 0 4 29 77 66.2 49.6 30.13 1.81 0.0 0 0.00 0.00 0.00 0.000
11/22/2014 3:32:15a 359 0 4 29 77 66.0 49.7 30.13 1.81 0.0 0 0.00 0.00 0.00 0.000
11/22/2014 3:33:15a 359 0 4 29 76 66.0 49.7 30.13 1.81 0.0 0 0.00 0.00 0.00 0.000
11/22/2014 3:34:15a 359 0 0 29 76 66.0 49.7 30.13 1.81 0.0 0 0.00 0.00 0.00 0.000
11/22/2014 3:35:16a 359 0 0 29 76 66.0 49.7 30.13 1.81 0.0 0 0.00 0.00 0.00 0.000
11/22/2014 3:36:19a 359 0 0 29 76 66.0 49.7 30.13 1.81 0.0 0 0.00 0.00 0.00 0.000
11/22/2014 3:37:19a 359 0 0 29 76 66.0 49.7 30.13 1.81 0.0 0 0.00 0.00 0.00 0.000
11/22/2014 3:38:19a 359 0 0 29 76 66.0 49.7 30.13 1.81 0.0 0 0.00 0.00 0.00 0.000
11/22/2014 3:39:19a 359 0 0 29 76 66.0 49.7 30.13 1.81 0.0 0 0.00 0.00 0.00 0.000
11/22/2014 3:40:19a 359 0 0 29 76 66.0 49.7 30.12 1.81 0.0 0 0.00 0.00 0.00 0.000
11/22/2014 3:41:19a 359 0 0 29 76 66.0 49.7 30.12 1.81 0.0 0 0.00 0.00 0.00 0.000
11/22/2014 3:42:19a 359 0 0 29 76 66.0 49.7 30.12 1.81 0.0 0 0.00 0.00 0.00 0.000
11/22/2014 3:43:19a 359 0 1 29 76 65.8 49.7 30.12 1.81 0.0 0 0.00 0.00 0.00 0.000
11/22/2014 3:44:19a 359 0 1 29 76 65.8 49.7 30.12 1.81 0.0 0 0.00 0.00 0.00 0.000
11/22/2014 3:45:19a 359 1 1 29 76 65.8 49.6 30.12 1.81 0.0 0 0.00 0.00 0.00 0.000
11/22/2014 3:46:19a 359 0 1 29 76 65.8 49.6 30.13 1.81 0.0 0 0.00 0.00 0.00 0.000
11/22/2014 3:47:20a 359 0 2 29 76 65.8 49.5 30.13 1.81 0.0 0 0.00 0.00 0.00 0.000
11/22/2014 3:48:20a 359 1 2 29 76 65.8 49.5 30.12 1.81 0.0 0 0.00 0.00 0.00 0.000
11/22/2014 3:49:20a 359 2 3 29 76 65.8 49.5 30.13 1.81 0.0 0 0.00 0.00 0.00 0.000
11/22/2014 3:50:20a 359 1 3 29 76 65.8 49.5 30.13 1.81 0.0 0 0.00 0.00 0.00 0.000
11/22/2014 3:51:20a 359 0 3 29 76 65.8 49.5 30.13 1.81 0.0 0 0.00 0.00 0.00 0.000
11/22/2014 3:52:20a 359 3 3 29 76 65.8 49.5 30.13 1.81 0.0 0 0.00 0.00 0.00 0.000
11/22/2014 3:53:20a 359 1 3 29 76 65.8 49.5 30.13 1.81 0.0 0 0.00 0.00 0.00 0.000
11/22/2014 3:54:20a 359 3 3 29 76 65.7 49.6 30.13 1.81 0.0 0 0.00 0.00 0.00 0.000
11/22/2014 3:55:20a 359 4 4 29 76 65.7 49.6 30.13 1.81 0.0 0 0.00 0.00 0.00 0.000
11/22/2014 3:56:20a 359 2 4 29 76 65.7 49.6 30.12 1.81 0.0 0 0.00 0.00 0.00 0.000
11/22/2014 3:57:20a 359 0 4 29 76 65.7 49.6 30.13 1.81 0.0 0 0.00 0.00 0.00 0.000
11/22/2014 3:58:20a 359 3 4 29 76 65.7 49.6 30.13 1.81 0.0 0 0.00 0.00 0.00 0.000
11/22/2014 3:59:20a 330 3 4 29 76 65.7 49.6 30.12 1.81 0.0 0 0.00 0.00 0.00 0.000
11/22/2014 4:00:21a 329 4 4 29 76 65.7 49.6 30.12 1.81 0.0 0 0.00 0.00 0.00 0.000
11/22/2014 4:01:21a 329 2 4 29 76 65.7 49.6 30.13 1.81 0.0 0 0.00 0.00 0.00 0.000
11/22/2014 4:02:21a 329 3 4 29 76 65.7 49.6 30.13 1.81 0.0 0 0.00 0.00 0.00 0.000
11/22/2014 4:03:21a 328 3 4 29 76 65.7 49.6 30.13 1.81 0.0 0 0.00 0.00 0.00 0.000
11/22/2014 4:04:21a 328 4 4 29 76 65.5 49.5 30.13 1.81 0.0 0 0.00 0.00 0.00 0.000
11/22/2014 4:05:21a 327 3 4 29 76 65.5 49.5 30.13 1.81 0.0 0 0.00 0.00 0.00 0.000
11/22/2014 4:06:21a 316 4 4 29 76 65.5 49.5 30.13 1.81 0.0 0 0.00 0.00 0.00 0.000
11/22/2014 4:07:21a 315 2 4 29 75 65.5 49.5 30.13 1.81 0.0 0 0.00 0.00 0.00 0.000
11/22/2014 4:08:21a 314 2 4 29 75 65.5 49.4 30.13 1.81 0.0 0 0.00 0.00 0.00 0.000
11/22/2014 4:09:21a 315 2 4 29 75 65.5 49.4 30.13 1.81 0.0 0 0.00 0.00 0.00 0.000
11/22/2014 4:10:21a 315 1 4 29 75 65.5 49.3 30.14 1.81 0.0 0 0.00 0.00 0.00 0.000
11/22/2014 4:11:21a 315 1 4 29 75 65.5 49.2 30.14 1.81 0.0 0 0.00 0.00 0.00 0.000
11/22/2014 4:12:21a 315 1 4 29 74 65.5 49.1 30.14 1.81 0.0 0 0.00 0.00 0.00 0.000
11/22/2014 4:13:21a 315 1 4 29 74 65.5 49.1 30.13 1.81 0.0 0 0.00 0.00 0.00 0.000
11/22/2014 4:14:21a 315 2 4 29 74 65.5 49.0 30.13 1.81 0.0 0 0.00 0.00 0.00 0.000
11/22/2014 4:15:22a 315 2 4 29 74 65.4 49.0 30.14 1.81 0.0 0 0.00 0.00 0.00 0.000
11/22/2014 4:16:25a 315 1 4 29 74 65.4 48.9 30.14 1.81 0.0 0 0.00 0.00 0.00 0.000
11/22/2014 4:17:28a 314 3 4 29 74 65.4 48.9 30.14 1.81 0.0 0 0.00 0.00 0.00 0.000
11/22/2014 4:18:31a 314 3 3 29 74 65.4 48.9 30.14 1.81 0.0 0 0.00 0.00 0.00 0.000
11/22/2014 4:19:31a 315 2 3 29 74 65.4 48.9 30.14 1.81 0.0 0 0.00 0.00 0.00 0.000
11/22/2014 4:20:31a 315 3 3 29 74 65.4 48.8 30.14 1.81 0.0 0 0.00 0.00 0.00 0.000
11/22/2014 4:21:31a 314 2 3 29 74 65.4 48.8 30.14 1.81 0.0 0 0.00 0.00 0.00 0.000
11/22/2014 4:22:31a 314 2 3 29 74 65.4 48.8 30.14 1.81 0.0 0 0.00 0.00 0.00 0.000
11/22/2014 4:23:31a 314 2 3 29 74 65.4 48.8 30.14 1.81 0.0 0 0.00 0.00 0.00 0.000
11/22/2014 4:24:31a 315 2 3 29 74 65.2 48.8 30.14 1.81 0.0 0 0.00 0.00 0.00 0.000
11/22/2014 4:25:31a 315 1 3 29 74 65.2 48.8 30.14 1.81 0.0 0 0.00 0.00 0.00 0.000
11/22/2014 4:26:31a 315 2 3 29 74 65.2 48.8 30.14 1.81 0.0 0 0.00 0.00 0.00 0.000
11/22/2014 4:27:31a 315 3 3 29 74 65.2 48.7 30.14 1.81 0.0 0 0.00 0.00 0.00 0.000
11/22/2014 4:28:31a 314 2 3 29 74 65.2 48.7 30.14 1.81 0.0 0 0.00 0.00 0.00 0.000
11/22/2014 4:29:31a 314 2 4 29 74 65.2 48.7 30.14 1.81 0.0 0 0.00 0.00 0.00 0.000
11/22/2014 4:30:32a 314 3 4 29 74 65.2 48.6 30.14 1.81 0.0 0 0.00 0.00 0.00 0.000
11/22/2014 4:31:32a 314 3 4 29 74 65.2 48.7 30.14 1.81 0.0 0 0.00 0.00 0.00 0.000
11/22/2014 4:32:32a 315 3 4 29 74 65.2 48.7 30.14 1.81 0.0 0 0.00 0.00 0.00 0.000
11/22/2014 4:33:32a 315 3 3 29 74 65.2 48.7 30.14 1.81 0.0 0 0.00 0.00 0.00 0.000
11/22/2014 4:34:32a 315 3 4 29 74 65.2 48.7 30.14 1.81 0.0 0 0.00 0.00 0.00 0.000
11/22/2014 4:35:35a 315 3 4 29 74 65.2 48.7 30.14 1.81 0.0 0 0.00 0.00 0.00 0.000
11/22/2014 4:36:35a 315 3 4 29 74 65.0 48.7 30.14 1.81 0.0 0 0.00 0.00 0.00 0.000
11/22/2014 4:37:35a 315 3 4 29 74 65.0 48.8 30.14 1.81 0.0 0 0.00 0.00 0.00 0.000
11/22/2014 4:38:35a 315 2 4 29 74 65.0 48.8 30.14 1.81 0.0 0 0.00 0.00 0.00 0.000
11/22/2014 4:39:35a 314 1 4 29 74 65.0 48.8 30.14 1.81 0.0 0 0.00 0.00 0.00 0.000
11/22/2014 4:40:38a 314 2 4 29 73 65.0 48.8 30.14 1.81 0.0 0 0.00 0.00 0.00 0.000
11/22/2014 4:41:38a 314 2 4 29 73 65.0 48.8 30.14 1.81 0.0 0 0.00 0.00 0.00 0.000
11/22/2014 4:42:38a 315 0 4 29 73 65.0 48.8 30.14 1.81 0.0 0 0.00 0.00 0.00 0.000
11/22/2014 4:43:39a 315 2 4 29 73 65.0 48.8 30.14 1.81 0.0 0 0.00 0.00 0.00 0.000
11/22/2014 4:44:39a 315 2 4 29 73 65.0 48.8 30.14 1.81 0.0 0 0.00 0.00 0.00 0.000
11/22/2014 4:45:39a 315 3 4 29 74 65.0 48.9 30.14 1.81 0.0 0 0.00 0.00 0.00 0.000
11/22/2014 4:46:39a 315 2 4 29 74 65.0 49.0 30.14 1.81 0.0 0 0.00 0.00 0.00 0.000
11/22/2014 4:47:39a 315 2 4 29 74 64.9 49.0 30.14 1.81 0.0 0 0.00 0.00 0.00 0.000
11/22/2014 4:48:39a 315 1 3 29 74 64.9 49.0 30.14 1.81 0.0 0 0.00 0.00 0.00 0.000
11/22/2014 4:49:39a 314 2 3 29 74 64.9 49.1 30.14 1.81 0.0 0 0.00 0.00 0.00 0.000
11/22/2014 4:50:42a 314 2 3 29 74 64.9 49.2 30.14 1.81 0.0 0 0.00 0.00 0.00 0.000
11/22/2014 4:51:49a 315 2 3 29 74 64.9 49.3 30.14 1.81 0.0 0 0.00 0.00 0.00 0.000
11/22/2014 4:52:52a 315 3 3 29 74 64.9 49.3 30.14 1.81 0.0 0 0.00 0.00 0.00 0.000
11/22/2014 4:53:55a 315 2 3 29 74 64.9 49.3 30.14 1.81 0.0 0 0.00 0.00 0.00 0.000
11/22/2014 4:54:55a 315 2 3 29 74 64.9 49.3 30.14 1.81 0.0 0 0.00 0.00 0.00 0.000
11/22/2014 4:55:55a 315 1 3 29 73 64.9 49.3 30.14 1.81 0.0 0 0.00 0.00 0.00 0.000
11/22/2014 4:56:55a 315 2 3 29 73 64.9 49.3 30.14 1.81 0.0 0 0.00 0.00 0.00 0.000
11/22/2014 4:57:55a 315 1 3 29 73 64.9 49.3 30.14 1.81 0.0 0 0.00 0.00 0.00 0.000
11/22/2014 4:58:56a 315 2 3 29 73 64.9 49.3 30.14 1.81 0.0 0 0.00 0.00 0.00 0.000
11/22/2014 4:59:56a 314 2 3 29 73 64.7 49.3 30.14 1.81 0.0 0 0.00 0.00 0.00 0.000
11/22/2014 5:00:56a 314 0 3 29 73 64.7 49.3 30.14 1.81 0.0 0 0.00 0.00 0.00 0.000
11/22/2014 5:01:56a 314 3 3 29 72 64.7 49.3 30.14 1.81 0.0 0 0.00 0.00 0.00 0.000
11/22/2014 5:02:56a 314 1 3 29 72 64.7 49.2 30.14 1.81 0.0 0 0.00 0.00 0.00 0.000
11/22/2014 5:03:56a 315 2 3 29 72 64.7 49.2 30.15 1.81 0.0 0 0.00 0.00 0.00 0.000
11/22/2014 5:04:56a 315 1 3 29 72 64.7 49.2 30.15 1.81 0.0 0 0.00 0.00 0.00 0.000
11/22/2014 5:05:56a 315 2 3 29 72 64.7 49.2 30.15 1.81 0.0 0 0.00 0.00 0.00 0.000
11/22/2014 5:06:59a 315 2 3 29 71 64.7 49.2 30.15 1.81 0.0 0 0.00 0.00 0.00 0.000
11/22/2014 5:07:59a 315 2 4 29 71 64.7 49.2 30.16 1.81 0.0 0 0.00 0.00 0.00 0.000
11/22/2014 5:08:59a 314 4 4 29 71 64.7 49.2 30.15 1.81 0.0 0 0.00 0.00 0.00 0.000
11/22/2014 5:09:59a 314 1 4 29 71 64.7 49.3 30.16 1.81 0.0 0 0.00 0.00 0.00 0.000
11/22/2014 5:10:59a 314 3 4 29 71 64.7 49.3 30.15 1.81 0.0 0 0.00 0.00 0.00 0.000
11/22/2014 5:12:03a 314 2 4 29 71 64.7 49.4 30.16 1.81 0.0 0 0.00 0.00 0.00 0.000
11/22/2014 5:13:03a 314 1 4 29 71 64.5 49.5 30.16 1.81 0.0 0 0.00 0.00 0.00 0.000
11/22/2014 5:14:03a 315 2 4 29 71 64.5 49.5 30.15 1.81 0.0 0 0.00 0.00 0.00 0.000
11/22/2014 5:15:06a 315 0 4 29 71 64.5 49.5 30.15 1.81 0.0 0 0.00 0.00 0.00 0.000
11/22/2014 5:16:06a 315 0 4 29 71 64.5 49.5 30.15 1.81 0.0 0 0.00 0.00 0.00 0.000
11/22/2014 5:17:06a 315 0 4 29 70 64.5 49.5 30.15 1.81 0.0 0 0.00 0.00 0.00 0.000
11/22/2014 5:18:06a 315 0 4 29 70 64.5 49.5 30.15 1.81 0.0 0 0.00 0.00 0.00 0.000
11/22/2014 5:19:06a 315 0 0 29 70 64.5 49.4 30.15 1.81 0.0 0 0.00 0.00 0.00 0.000
11/22/2014 5:20:06a 315 1 1 29 70 64.5 49.3 30.15 1.81 0.0 0 0.00 0.00 0.00 0.000
11/22/2014 5:21:06a 314 0 1 29 70 64.5 49.2 30.16 1.81 0.0 0 0.00 0.00 0.00 0.000
11/22/2014 5:22:06a 315 0 1 29 70 64.5 49.1 30.15 1.81 0.0 0 0.00 0.00 0.00 0.000
11/22/2014 5:23:07a 315 0 1 29 70 64.5 49.0 30.15 1.81 0.0 0 0.00 0.00 0.00 0.000
11/22/2014 5:24:07a 314 0 1 29 70 64.5 49.0 30.16 1.81 0.0 0 0.00 0.00 0.00 0.000
11/22/2014 5:25:07a 315 0 1 29 70 64.4 48.9 30.16 1.81 0.0 0 0.00 0.00 0.00 0.000
11/22/2014 5:26:07a 315 0 1 29 71 64.4 48.9 30.16 1.81 0.0 0 0.00 0.00 0.00 0.000
11/22/2014 5:27:07a 314 0 1 29 71 64.4 48.9 30.16 1.81 0.0 0 0.00 0.00 0.00 0.000
11/22/2014 5:28:07a 314 0 1 29 71 64.4 48.8 30.16 1.81 0.0 0 0.00 0.00 0.00 0.000
11/22/2014 5:29:07a 315 0 1 29 71 64.4 48.8 30.16 1.81 0.0 0 0.00 0.00 0.00 0.000
11/22/2014 5:30:07a 314 0 1 29 71 64.4 48.7 30.16 1.81 0.0 0 0.00 0.00 0.00 0.000
11/22/2014 5:31:07a 314 0 1 29 71 64.4 48.7 30.15 1.81 0.0 0 0.00 0.00 0.00 0.000
11/22/2014 5:32:10a 315 0 1 29 71 64.4 48.6 30.16 1.81 0.0 0 0.00 0.00 0.00 0.000
11/22/2014 5:33:13a 314 0 1 29 71 64.4 48.5 30.16 1.81 0.0 0 0.00 0.00 0.00 0.000
11/22/2014 5:34:13a 315 0 0 29 71 64.4 48.4 30.16 1.81 0.0 0 0.00 0.00 0.00 0.000
11/22/2014 5:35:13a 314 0 0 29 71 64.4 48.3 30.15 1.81 0.0 0 0.00 0.00 0.00 0.000
11/22/2014 5:36:13a 315 0 0 29 71 64.4 48.2 30.15 1.81 0.0 0 0.00 0.00 0.00 0.000
11/22/2014 5:37:16a 315 0 0 29 72 64.2 48.2 30.15 1.81 0.0 0 0.00 0.00 0.00 0.000
11/22/2014 5:38:16a 315 0 0 29 72 64.2 48.1 30.15 1.81 0.0 0 0.00 0.00 0.00 0.000
11/22/2014 5:39:17a 315 0 0 29 72 64.2 48.0 30.16 1.81 0.0 0 0.00 0.00 0.00 0.000
11/22/2014 5:40:17a 315 0 0 29 72 64.2 47.9 30.15 1.81 0.0 0 0.00 0.00 0.00 0.000
11/22/2014 5:41:17a 314 0 1 29 72 64.2 47.9 30.16 1.81 0.0 0 0.00 0.00 0.00 0.000
11/22/2014 5:42:17a 314 0 1 29 72 64.2 47.8 30.16 1.81 0.0 0 0.00 0.00 0.00 0.000
11/22/2014 5:43:17a 315 0 1 29 72 64.2 47.7 30.16 1.81 0.0 0 0.00 0.00 0.00 0.000
11/22/2014 5:44:17a 315 0 1 29 72 64.2 47.6 30.16 1.81 0.0 0 0.00 0.00 0.00 0.000
11/22/2014 5:45:17a 315 0 1 29 73 64.2 47.6 30.16 1.81 0.0 0 0.00 0.00 0.00 0.000
11/22/2014 5:46:17a 315 0 1 29 73 64.2 47.6 30.16 1.81 0.0 0 0.00 0.00 0.00 0.000
11/22/2014 5:47:17a 314 0 1 29 73 64.2 47.6 30.16 1.81 0.0 0 0.00 0.00 0.00 0.000
11/22/2014 5:48:17a 314 0 1 29 73 64.2 47.6 30.16 1.81 0.0 0 0.00 0.00 0.00 0.000
11/22/2014 5:49:20a 315 0 1 29 73 64.2 47.6 30.16 1.81 0.0 0 0.00 0.00 0.00 0.000
11/22/2014 5:50:20a 315 0 1 29 74 64.1 47.6 30.16 1.81 0.0 0 0.00 0.00 0.00 0.000
11/22/2014 5:51:21a 314 0 1 29 74 64.1 47.7 30.16 1.81 0.0 0 0.00 0.00 0.00 0.000
11/22/2014 5:52:21a 314 0 1 29 74 64.1 47.7 30.16 1.81 0.0 0 0.00 0.00 0.00 0.000
11/22/2014 5:53:21a 314 0 1 29 74 64.1 47.7 30.16 1.81 0.0 0 0.00 0.00 0.00 0.000
11/22/2014 5:54:21a 315 1 1 29 74 64.1 47.8 30.16 1.81 0.0 0 0.00 0.00 0.00 0.000
11/22/2014 5:55:21a 315 0 1 29 74 64.1 47.7 30.16 1.81 0.0 0 0.00 0.00 0.00 0.000
11/22/2014 5:56:21a 315 0 1 29 74 64.1 47.7 30.16 1.81 0.0 0 0.00 0.00 0.00 0.000
11/22/2014 5:57:21a 315 0 1 29 74 64.1 47.8 30.16 1.81 0.0 0 0.00 0.00 0.00 0.000
11/22/2014 5:58:21a 314 0 1 29 74 64.1 47.8 30.16 1.81 0.0 0 0.00 0.00 0.00 0.000
11/22/2014 5:59:21a 315 0 1 29 74 64.1 47.9 30.16 1.81 0.0 0 0.00 0.00 0.00 0.000
11/22/2014 6:00:21a 315 0 1 29 74 64.1 47.9 30.16 1.81 0.0 0 0.00 0.00 0.00 0.000
11/22/2014 6:01:21a 315 0 1 29 75 64.1 47.9 30.15 1.81 0.0 0 0.00 0.00 0.00 0.000
11/22/2014 6:02:21a 315 0 1 29 74 64.1 47.9 30.15 1.81 0.0 0 0.00 0.00 0.00 0.000
11/22/2014 6:03:21a 315 0 1 29 74 64.1 47.9 30.15 1.81 0.0 0 0.00 0.00 0.00 0.000
11/22/2014 6:04:21a 315 0 0 29 75 64.1 47.9 30.16 1.81 0.0 0 0.00 0.00 0.00 0.000
11/22/2014 6:05:21a 314 0 0 29 75 63.9 47.9 30.16 1.81 0.0 0 0.00 0.00 0.00 0.000
11/22/2014 6:06:22a 314 0 0 29 75 63.9 48.0 30.16 1.81 0.0 0 0.00 0.00 0.00 0.000
11/22/2014 6:07:22a 314 0 1 29 75 63.9 48.0 30.16 1.81 0.0 0 0.00 0.00 0.00 0.000
11/22/2014 6:08:22a 315 0 1 29 75 63.9 48.0 30.16 1.81 0.0 0 0.00 0.00 0.00 0.000
11/22/2014 6:09:22a 315 0 1 29 75 63.9 48.0 30.16 1.81 0.0 0 0.00 0.00 0.00 0.000
11/22/2014 6:10:22a 315 0 1 29 75 63.9 48.0 30.16 1.81 0.0 0 0.00 0.00 0.00 0.000
11/22/2014 6:11:26a 315 0 1 29 75 63.9 48.0 30.16 1.81 0.0 0 0.00 0.00 0.00 0.000
11/22/2014 6:12:26a 315 0 1 29 75 63.9 48.0 30.16 1.81 0.0 0 0.00 0.00 0.00 0.000
11/22/2014 6:13:26a 314 0 1 29 75 63.9 47.9 30.16 1.81 0.0 0 0.00 0.00 0.00 0.000
11/22/2014 6:14:26a 315 0 1 29 75 63.9 47.9 30.16 1.81 0.0 0 0.00 0.00 0.00 0.000
11/22/2014 6:15:26a 314 0 1 29 75 63.9 47.9 30.16 1.81 0.0 0 0.00 0.00 0.00 0.000
11/22/2014 6:16:26a 314 0 1 29 75 63.8 48.0 30.16 1.81 0.0 0 0.00 0.00 0.00 0.000
11/22/2014 6:17:27a 315 0 1 29 75 63.8 47.9 30.16 1.81 0.0 0 0.00 0.00 0.00 0.000
11/22/2014 6:18:27a 315 0 0 29 75 63.8 47.8 30.16 1.81 0.0 0 0.00 0.00 0.00 0.000
11/22/2014 6:19:27a 315 0 0 29 75 63.8 47.7 30.16 1.81 0.0 0 0.00 0.00 0.00 0.000
11/22/2014 6:20:27a 314 0 0 29 75 63.8 47.7 30.16 1.81 0.0 0 0.00 0.00 0.00 0.000
11/22/2014 6:21:27a 315 0 0 29 75 63.8 47.6 30.17 1.81 0.0 0 0.00 0.00 0.00 0.000
11/22/2014 6:22:27a 315 0 0 29 75 63.8 47.6 30.17 1.81 0.0 0 0.00 0.00 0.00 0.000
11/22/2014 6:23:27a 314 0 0 29 75 63.8 47.5 30.17 1.81 0.0 0 0.00 0.00 0.00 0.000
11/22/2014 6:24:27a 315 0 0 29 75 63.8 47.5 30.17 1.81 0.0 5 0.00 0.00 0.00 0.000
11/22/2014 6:25:27a 315 0 0 29 75 63.8 47.5 30.17 1.81 0.0 5 0.00 0.00 0.00 0.000
11/22/2014 6:26:30a 315 0 0 29 76 63.8 47.4 30.17 1.81 0.0 5 0.00 0.00 0.00 0.000
11/22/2014 6:27:30a 315 0 0 29 76 63.8 47.4 30.17 1.81 0.0 5 0.00 0.00 0.00 0.000
11/22/2014 6:28:30a 315 0 2 29 76 63.8 47.4 30.17 1.81 0.0 7 0.00 0.00 0.00 0.000
11/22/2014 6:29:30a 315 0 2 29 76 63.6 47.4 30.17 1.81 0.0 7 0.00 0.00 0.00 0.000
11/22/2014 6:30:31a 314 0 2 29 76 63.6 47.3 30.17 1.81 0.0 9 0.00 0.00 0.00 0.000
11/22/2014 6:31:31a 315 0 2 29 76 63.6 47.3 30.17 1.81 0.0 9 0.00 0.00 0.00 0.000
11/22/2014 6:33:31a 314 0 0 29 76 63.6 47.3 30.17 1.81 0.0 11 0.00 0.00 0.00 0.000
11/22/2014 6:34:31a 315 0 1 29 76 63.6 47.4 30.17 1.81 0.0 12 0.00 0.00 0.00 0.000
11/22/2014 6:35:31a 315 0 1 29 76 63.6 47.5 30.17 1.81 0.0 14 0.00 0.00 0.00 0.000
11/22/2014 6:36:31a 315 0 1 29 77 63.6 47.6 30.16 1.81 0.0 14 0.00 0.00 0.00 0.000
11/22/2014 6:37:31a 315 0 1 29 77 63.6 47.7 30.17 1.81 0.0 14 0.00 0.00 0.00 0.000
11/22/2014 6:38:31a 314 0 1 29 77 63.6 47.8 30.17 1.81 0.0 16 0.00 0.00 0.00 0.000
11/22/2014 6:39:31a 314 0 1 29 76 63.6 47.9 30.17 1.81 0.0 16 0.00 0.00 0.00 0.000
11/22/2014 6:40:32a 315 0 1 29 76 63.6 47.9 30.17 1.81 0.0 18 0.00 0.00 0.00 0.000
11/22/2014 6:41:32a 314 0 1 29 76 63.6 47.9 30.17 1.81 0.0 19 0.00 0.00 0.00 0.000
11/22/2014 6:42:32a 315 0 1 29 76 63.4 47.9 30.17 1.81 0.0 19 0.00 0.00 0.00 0.000
11/22/2014 6:43:32a 315 0 1 29 76 63.4 47.9 30.17 1.81 0.0 19 0.00 0.00 0.00 0.000
11/22/2014 6:44:32a 315 0 1 29 76 63.4 47.8 30.17 1.81 0.0 21 0.00 0.00 0.00 0.000
11/22/2014 6:45:32a 315 0 2 29 76 63.4 47.7 30.17 1.81 0.0 21 0.00 0.00 0.00 0.000
11/22/2014 6:46:33a 315 2 2 29 75 63.4 47.4 30.17 1.81 0.0 21 0.00 0.00 0.00 0.000
11/22/2014 6:47:33a 315 2 3 29 75 63.4 47.2 30.18 1.81 0.0 21 0.00 0.00 0.00 0.000
11/22/2014 6:48:33a 315 3 3 29 75 63.4 47.0 30.18 1.81 0.0 23 0.00 0.00 0.00 0.000
11/22/2014 6:49:33a 315 2 3 29 75 63.4 46.8 30.18 1.81 0.0 23 0.00 0.00 0.00 0.000
11/22/2014 6:50:33a 315 3 4 29 76 63.4 46.7 30.18 1.81 0.0 25 0.00 0.00 0.00 0.000
11/22/2014 6:51:33a 315 2 4 29 76 63.4 46.7 30.18 1.81 0.0 26 0.00 0.00 0.00 0.000
11/22/2014 6:52:33a 316 3 4 29 76 63.4 46.6 30.18 1.81 0.0 28 0.00 0.00 0.00 0.000
11/22/2014 6:53:33a 316 2 4 29 76 63.4 46.6 30.18 1.81 0.0 30 0.00 0.00 0.00 0.000
11/22/2014 6:54:34a 316 1 4 29 76 63.4 46.6 30.18 1.81 0.0 32 0.00 0.00 0.00 0.000
11/22/2014 6:55:34a 315 1 4 29 77 63.3 46.6 30.18 1.81 0.0 32 0.00 0.00 0.00 0.000
11/22/2014 6:56:34a 315 0 4 29 77 63.3 46.7 30.18 1.81 0.0 33 0.00 0.00 0.00 0.000
11/22/2014 6:57:34a 316 2 4 29 77 63.3 46.8 30.18 1.81 0.0 37 0.00 0.00 0.00 0.000
11/22/2014 6:58:34a 316 2 4 29 77 63.3 46.9 30.18 1.81 0.0 39 0.00 0.00 0.00 0.000
11/22/2014 6:59:34a 316 2 4 29 77 63.3 47.1 30.18 1.81 0.0 39 0.00 0.00 0.00 0.000
11/22/2014 7:00:34a 316 2 4 29 78 63.3 47.2 30.18 1.81 0.0 40 0.00 0.00 0.00 0.000
11/22/2014 7:01:34a 316 2 4 29 78 63.3 47.4 30.18 1.81 0.0 40 0.00 0.00 0.00 0.000
11/22/2014 7:02:34a 315 0 4 29 77 63.3 47.6 30.17 1.81 0.0 42 0.00 0.00 0.00 0.000
11/22/2014 7:03:34a 316 0 0 29 77 63.3 47.7 30.18 1.81 0.0 46 0.00 0.00 0.00 0.000
11/22/2014 7:04:34a 316 0 1 29 77 63.3 47.8 30.18 1.81 0.0 46 0.00 0.00 0.00 0.000
11/22/2014 7:05:34a 316 0 2 29 78 63.3 48.0 30.18 1.81 0.0 47 0.00 0.00 0.00 0.000
11/22/2014 7:06:34a 316 1 2 29 78 63.3 48.1 30.18 1.81 0.0 49 0.00 0.00 0.00 0.000
11/22/2014 7:07:35a 316 2 2 29 77 63.3 48.3 30.18 1.81 0.0 49 0.00 0.00 0.00 0.000
11/22/2014 7:08:35a 316 2 2 29 77 63.3 48.4 30.18 1.81 0.0 49 0.00 0.00 0.00 0.000
11/22/2014 7:09:35a 315 0 2 29 77 63.3 48.6 30.18 1.81 0.0 49 0.00 0.00 0.00 0.000
11/22/2014 7:10:35a 316 1 2 29 77 63.1 48.8 30.18 1.81 0.0 49 0.00 0.00 0.00 0.000
11/22/2014 7:11:38a 316 0 2 29 77 63.1 48.9 30.18 1.81 0.0 49 0.00 0.00 0.00 0.000
11/22/2014 7:12:38a 315 0 2 29 77 63.1 49.1 30.18 1.81 0.0 49 0.00 0.00 0.00 0.000
11/22/2014 7:13:38a 316 0 2 29 77 63.1 49.2 30.18 1.81 0.0 49 0.00 0.00 0.00 0.000
11/22/2014 7:14:38a 316 0 2 29 76 63.1 49.4 30.18 1.81 0.0 49 0.00 0.00 0.00 0.000
11/22/2014 7:15:38a 316 0 2 29 76 63.1 49.5 30.18 1.81 0.0 49 0.00 0.00 0.00 0.000
11/22/2014 7:16:39a 316 0 2 29 76 63.1 49.6 30.17 1.81 0.0 49 0.00 0.00 0.00 0.000
11/22/2014 7:17:42a 315 0 2 29 75 63.1 49.8 30.17 1.81 0.0 49 0.00 0.00 0.00 0.000
11/22/2014 7:18:42a 316 0 0 29 75 63.1 49.9 30.17 1.81 0.0 49 0.00 0.00 0.00 0.000
11/22/2014 7:19:42a 316 0 0 29 75 63.1 50.0 30.17 1.81 0.0 47 0.00 0.00 0.00 0.000
11/22/2014 7:20:42a 316 0 0 29 75 63.1 50.2 30.17 1.81 0.0 46 0.00 0.00 0.00 0.000
11/22/2014 7:21:42a 315 0 0 29 75 63.1 50.3 30.17 1.81 0.0 47 0.00 0.00 0.00 0.000
11/22/2014 7:22:42a 316 0 0 29 75 63.1 50.4 30.17 1.81 0.0 46 0.00 0.00 0.00 0.000
11/22/2014 7:23:42a 315 0 0 29 75 63.1 50.5 30.17 1.81 0.0 46 0.00 0.00 0.00 0.000
11/22/2014 7:24:42a 316 0 1 29 75 63.1 50.6 30.17 1.81 0.0 46 0.00 0.00 0.00 0.000
11/22/2014 7:25:43a 315 0 1 29 75 63.0 50.8 30.17 1.81 0.0 46 0.00 0.00 0.00 0.000
11/22/2014 7:26:43a 315 0 1 29 75 63.0 50.9 30.17 1.81 0.0 44 0.00 0.00 0.00 0.000
11/22/2014 7:27:43a 316 0 1 29 74 63.0 51.0 30.17 1.81 0.0 44 0.00 0.00 0.00 0.000
11/22/2014 7:28:43a 315 0 1 29 74 63.0 51.2 30.17 1.81 0.0 44 0.00 0.00 0.00 0.000
11/22/2014 7:29:43a 315 0 1 29 74 63.0 51.3 30.17 1.81 0.0 42 0.00 0.00 0.00 0.000
11/22/2014 7:30:43a 315 0 1 29 74 63.0 51.4 30.17 1.81 0.0 42 0.00 0.00 0.00 0.000
11/22/2014 7:31:43a 316 0 1 29 73 63.0 51.5 30.16 1.81 0.0 46 0.00 0.00 0.00 0.000
11/22/2014 7:32:43a 316 0 1 29 73 63.0 51.6 30.17 1.81 0.0 47 0.00 0.00 0.00 0.000
11/22/2014 7:33:43a 316 0 0 29 73 63.0 51.7 30.17 1.81 0.0 49 0.00 0.00 0.00 0.000
11/22/2014 7:34:43a 315 0 1 29 72 63.0 51.8 30.16 1.81 0.0 51 0.00 0.00 0.00 0.000
11/22/2014 7:35:44a 315 0 1 29 72 63.0 51.9 30.17 1.81 0.0 54 0.00 0.00 0.00 0.000
11/22/2014 7:36:44a 315 0 1 29 71 63.0 52.0 30.17 1.81 0.0 54 0.00 0.00 0.00 0.000
11/22/2014 7:37:44a 316 0 1 29 71 63.0 52.2 30.17 1.81 0.0 56 0.00 0.00 0.00 0.000
11/22/2014 7:38:44a 316 0 1 29 71 63.0 52.3 30.17 1.81 0.0 60 0.00 0.00 0.00 0.000
11/22/2014 7:39:44a 316 0 1 29 71 63.0 52.4 30.17 1.81 0.0 62 0.00 0.00 0.00 0.000
11/22/2014 7:40:44a 316 0 1 29 71 63.0 52.5 30.17 1.81 0.0 65 0.00 0.00 0.00 0.000
11/22/2014 7:41:44a 316 0 1 29 70 63.0 52.6 30.17 1.81 0.0 69 0.00 0.00 0.00 0.000
11/22/2014 7:42:44a 316 0 1 29 70 63.0 52.6 30.17 1.81 0.0 69 0.00 0.00 0.00 0.000
11/22/2014 7:43:44a 315 0 1 29 70 63.0 52.7 30.17 1.81 0.0 81 0.00 0.00 0.00 0.000
11/22/2014 7:44:44a 316 0 1 29 70 62.8 52.7 30.17 1.81 0.0 84 0.00 0.00 0.00 0.000
11/22/2014 7:45:44a 316 0 1 29 70 62.8 52.8 30.17 1.81 0.0 88 0.00 0.00 0.00 0.000
11/22/2014 7:46:47a 315 0 1 29 71 62.8 52.8 30.17 1.81 0.0 104 0.00 0.00 0.00 0.000
11/22/2014 7:47:48a 315 0 1 29 71 62.8 52.9 30.17 1.81 0.0 102 0.00 0.00 0.00 0.000
11/22/2014 7:48:48a 316 0 0 29 71 62.8 52.9 30.17 1.81 0.0 125 0.00 0.00 0.00 0.000
11/22/2014 7:49:48a 316 0 0 29 70 62.8 53.0 30.17 1.81 0.0 130 0.00 0.00 0.00 0.000
11/22/2014 7:50:48a 316 0 0 29 70 62.8 53.1 30.17 1.81 0.5 123 0.00 0.00 0.00 0.000
11/22/2014 7:51:48a 316 0 0 29 70 62.8 53.2 30.17 1.81 0.5 120 0.00 0.00 0.00 0.000
11/22/2014 7:52:48a 315 1 1 29 70 62.8 53.3 30.17 1.81 0.0 130 0.00 0.00 0.00 0.000
11/22/2014 7:53:48a 315 0 1 29 69 62.8 53.4 30.17 1.81 0.0 146 0.00 0.00 0.00 0.000
11/22/2014 7:54:48a 316 0 1 29 69 62.8 53.5 30.17 1.81 0.5 172 0.00 0.00 0.00 0.000
11/22/2014 7:55:51a 316 2 2 29 68 62.8 53.7 30.17 1.81 0.5 193 0.00 0.00 0.00 0.000
11/22/2014 7:56:54a 316 1 2 29 68 62.8 53.8 30.17 1.81 0.5 250 0.00 0.00 0.00 0.000
11/22/2014 7:57:55a 315 2 3 29 67 62.8 54.0 30.18 1.81 0.5 264 0.00 0.00 0.00 0.000
11/22/2014 7:58:55a 316 2 3 29 67 62.8 54.2 30.18 1.81 0.5 276 0.00 0.00 0.00 0.000
11/22/2014 7:59:58a 315 1 3 29 67 62.8 54.4 30.18 1.81 0.5 255 0.00 0.00 0.00 0.000
11/22/2014 8:00:58a 315 0 3 29 66 62.8 54.5 30.18 1.81 0.6 297 0.00 0.00 0.00 0.000
11/22/2014 8:02:01a 315 0 3 29 66 62.8 54.7 30.18 1.81 0.6 279 0.00 0.00 0.00 0.000
11/22/2014 8:03:01a 316 1 3 29 66 62.8 54.9 30.18 1.81 0.6 278 0.00 0.00 0.00 0.000
11/22/2014 8:04:01a 315 0 2 29 65 62.8 55.0 30.18 1.81 0.6 329 0.00 0.00 0.00 0.000
11/22/2014 8:05:01a 316 1 2 29 65 62.8 55.2 30.18 1.81 0.5 239 0.00 0.00 0.00 0.000
11/22/2014 8:06:04a 316 2 3 29 64 62.8 55.3 30.18 1.81 0.5 199 0.00 0.00 0.00 0.000
11/22/2014 8:07:04a 316 2 3 29 63 62.8 55.4 30.18 1.81 0.5 220 0.00 0.00 0.00 0.000
11/22/2014 8:08:04a 316 1 3 29 63 62.8 55.5 30.18 1.81 0.5 171 0.00 0.00 0.00 0.000
11/22/2014 8:09:04a 316 0 3 29 62 62.8 55.7 30.18 1.81 0.5 162 0.00 0.00 0.00 0.000
11/22/2014 8:10:05a 316 0 3 29 62 62.8 55.8 30.18 1.81 0.5 165 0.00 0.00 0.00 0.000
11/22/2014 8:11:05a 315 0 3 29 62 62.8 55.8 30.18 1.81 0.6 236 0.00 0.00 0.00 0.000
11/22/2014 8:12:05a 315 0 3 29 62 62.8 56.0 30.18 1.81 0.6 230 0.00 0.00 0.00 0.000
11/22/2014 8:13:05a 316 0 3 29 62 62.8 56.1 30.18 1.81 0.6 234 0.00 0.00 0.00 0.000
11/22/2014 8:14:05a 316 0 3 29 62 62.8 56.2 30.18 1.81 0.6 218 0.00 0.00 0.00 0.000
11/22/2014 8:15:08a 315 0 3 29 62 62.8 56.3 30.18 1.81 0.6 246 0.00 0.00 0.00 0.000
11/22/2014 8:16:08a 316 0 3 29 62 62.8 56.4 30.18 1.81 0.5 160 0.00 0.00 0.00 0.000
11/22/2014 8:17:11a 316 0 3 29 62 62.8 56.5 30.18 1.81 0.5 163 0.00 0.00 0.00 0.000
11/22/2014 8:18:11a 316 0 3 29 62 62.8 56.6 30.18 1.81 0.5 156 0.00 0.00 0.00 0.000
11/22/2014 8:19:11a 316 0 0 29 61 62.8 56.6 30.18 1.81 0.6 183 0.00 0.00 0.00 0.000
11/22/2014 8:20:11a 316 0 0 29 61 62.8 56.6 30.18 1.81 0.6 174 0.00 0.00 0.00 0.000
11/22/2014 8:21:12a 316 0 1 29 61 62.8 56.6 30.18 1.81 0.6 153 0.00 0.00 0.00 0.000
11/22/2014 8:22:12a 315 0 1 29 61 62.8 56.7 30.18 1.81 0.6 162 0.00 0.00 0.00 0.000
11/22/2014 8:23:12a 315 0 1 29 61 62.8 56.7 30.18 1.81 0.6 160 0.00 0.00 0.00 0.000
11/22/2014 8:24:12a 316 0 1 29 61 62.8 56.8 30.18 1.81 0.6 162 0.00 0.00 0.00 0.000
11/22/2014 8:25:12a 316 0 1 29 61 62.8 56.8 30.18 1.81 0.6 176 0.00 0.00 0.00 0.000
11/22/2014 8:26:12a 315 0 1 29 61 62.8 56.9 30.18 1.81 0.6 181 0.00 0.00 0.00 0.000
11/22/2014 8:27:12a 316 0 1 29 61 62.8 56.9 30.18 1.81 0.6 190 0.00 0.00 0.00 0.000
11/22/2014 8:28:12a 316 1 2 29 61 62.8 57.0 30.18 1.81 0.7 237 0.00 0.00 0.00 0.000
11/22/2014 8:29:12a 316 0 2 29 60 62.8 57.1 30.18 1.81 0.7 200 0.00 0.00 0.00 0.000
11/22/2014 8:30:15a 316 0 2 29 60 62.8 57.1 30.18 1.81 0.7 197 0.00 0.00 0.00 0.000
11/22/2014 8:31:15a 315 0 2 29 59 62.8 57.1 30.18 1.81 0.7 199 0.00 0.00 0.00 0.000
11/22/2014 8:32:15a 315 0 2 29 59 62.8 57.2 30.18 1.81 0.7 214 0.00 0.00 0.00 0.000
11/22/2014 8:33:15a 316 0 2 29 59 62.8 57.2 30.18 1.81 0.7 204 0.00 0.00 0.00 0.000
11/22/2014 8:34:15a 316 0 0 29 59 62.8 57.2 30.18 1.81 0.7 200 0.00 0.00 0.00 0.000
11/22/2014 8:35:16a 316 0 0 29 59 62.8 57.3 30.18 1.81 0.7 207 0.00 0.00 0.00 0.000
11/22/2014 8:36:16a 315 0 0 29 58 62.8 57.4 30.18 1.81 0.7 229 0.00 0.00 0.00 0.000
11/22/2014 8:37:16a 316 0 0 29 58 62.8 57.5 30.18 1.81 0.7 234 0.00 0.00 0.00 0.000
11/22/2014 8:38:16a 316 0 0 29 58 62.8 57.5 30.17 1.81 0.7 241 0.00 0.00 0.00 0.000
11/22/2014 8:39:16a 315 0 0 29 58 62.8 57.6 30.17 1.81 0.7 227 0.00 0.00 0.00 0.000
11/22/2014 8:40:16a 316 1 2 29 58 63.0 57.6 30.17 1.81 0.7 230 0.00 0.00 0.00 0.000
11/22/2014 8:41:16a 315 2 3 29 58 63.0 57.6 30.17 1.81 0.8 251 0.00 0.00 0.00 0.000
11/22/2014 8:42:16a 315 0 3 29 58 63.0 57.6 30.17 1.81 0.8 257 0.00 0.00 0.00 0.000
11/22/2014 8:43:16a 315 1 3 29 58 63.0 57.6 30.17 1.81 0.8 230 0.00 0.00 0.00 0.000
11/22/2014 8:44:16a 315 1 3 29 58 63.0 57.6 30.18 1.81 0.8 239 0.00 0.00 0.00 0.000
11/22/2014 8:45:17a 315 0 3 29 58 63.0 57.5 30.18 1.81 0.7 227 0.00 0.00 0.00 0.000
11/22/2014 8:46:23a 315 0 3 29 58 63.0 57.4 30.18 1.81 0.8 230 0.00 0.00 0.00 0.000
11/22/2014 8:47:23a 315 0 3 29 58 63.0 57.4 30.18 1.81 0.8 230 0.00 0.00 0.00 0.000
11/22/2014 8:48:23a 316 2 3 29 58 63.0 57.4 30.18 1.81 0.8 230 0.00 0.00 0.00 0.000
11/22/2014 8:49:26a 334 2 3 29 58 63.0 57.3 30.18 1.81 0.7 211 0.00 0.00 0.00 0.000
11/22/2014 8:50:29a 334 0 3 29 58 63.0 57.3 30.18 1.81 0.7 193 0.00 0.00 0.00 0.000
11/22/2014 8:51:35a 333 0 3 29 58 63.0 57.3 30.18 1.81 0.7 193 0.00 0.00 0.00 0.000
11/22/2014 8:52:35a 333 0 3 29 58 63.1 57.3 30.18 1.81 0.7 185 0.00 0.00 0.00 0.000
11/22/2014 8:53:35a 333 2 3 29 59 63.1 57.4 30.18 1.81 0.8 185 0.00 0.00 0.00 0.000
11/22/2014 8:54:35a 334 1 3 29 59 63.1 57.3 30.18 1.81 0.8 193 0.00 0.00 0.00 0.000
11/22/2014 8:55:36a 334 0 3 29 58 63.1 57.3 30.18 1.81 0.8 176 0.00 0.00 0.00 0.000
11/22/2014 8:56:36a 334 0 3 29 58 63.1 57.3 30.18 1.81 0.8 169 0.00 0.00 0.00 0.000
11/22/2014 8:57:36a 334 0 3 29 58 63.1 57.3 30.18 1.81 0.8 169 0.00 0.00 0.00 0.000
11/22/2014 8:58:42a 333 0 3 29 59 63.1 57.3 30.18 1.81 0.8 167 0.00 0.00 0.00 0.000
11/22/2014 8:59:42a 334 0 3 29 59 63.1 57.3 30.18 1.81 0.8 169 0.00 0.00 0.00 0.000
11/22/2014 9:00:42a 334 0 3 29 58 63.1 57.3 30.18 1.81 0.8 172 0.00 0.00 0.00 0.000
11/22/2014 9:01:45a 334 0 3 29 58 63.1 57.2 30.18 1.81 0.8 178 0.00 0.00 0.00 0.000
11/22/2014 9:02:45a 334 0 3 29 58 63.1 57.2 30.18 1.81 0.9 179 0.00 0.00 0.00 0.000
11/22/2014 9:03:45a 334 0 0 29 58 63.3 57.2 30.18 1.81 0.9 181 0.00 0.00 0.00 0.000
11/22/2014 9:04:45a 333 0 0 29 58 63.3 57.3 30.18 1.81 0.9 188 0.00 0.00 0.00 0.000
11/22/2014 9:05:45a 333 0 0 29 58 63.3 57.3 30.18 1.81 0.9 206 0.00 0.00 0.00 0.000
11/22/2014 9:06:46a 333 0 0 29 58 63.3 57.4 30.19 1.81 1.0 255 0.00 0.00 0.00 0.000
11/22/2014 9:07:46a 334 0 0 29 59 63.3 57.4 30.19 1.81 0.9 211 0.00 0.00 0.00 0.000
11/22/2014 9:08:46a 334 0 0 29 58 63.3 57.5 30.19 1.81 1.0 197 0.00 0.00 0.00 0.000
11/22/2014 9:09:46a 333 0 0 29 58 63.3 57.5 30.19 1.81 1.0 197 0.00 0.00 0.00 0.000
11/22/2014 9:10:49a 334 0 0 29 58 63.3 57.6 30.19 1.81 1.1 264 0.00 0.00 0.00 0.000
11/22/2014 9:11:49a 334 0 0 29 57 63.4 57.6 30.19 1.81 1.1 264 0.00 0.00 0.00 0.000
11/22/2014 9:12:49a 334 0 0 29 57 63.4 57.7 30.19 1.81 1.0 207 0.00 0.00 0.00 0.000
11/22/2014 9:13:49a 333 1 3 29 57 63.4 57.8 30.19 1.81 1.0 200 0.00 0.00 0.00 0.000
11/22/2014 9:14:49a 333 2 3 29 58 63.4 57.8 30.19 1.81 1.0 239 0.00 0.00 0.00 0.000
11/22/2014 9:15:52a 333 0 3 29 58 63.4 57.9 30.19 1.81 1.2 330 0.00 0.00 0.00 0.000
11/22/2014 9:16:52a 333 0 3 29 58 63.4 58.0 30.19 1.81 1.0 199 0.00 0.00 0.00 0.000
11/22/2014 9:17:53a 333 0 3 29 58 63.4 58.1 30.20 1.81 1.0 163 0.00 0.00 0.00 0.000
11/22/2014 9:18:53a 333 0 1 29 58 63.4 58.1 30.19 1.81 1.0 171 0.00 0.00 0.00 0.000
11/22/2014 9:19:56a 333 0 1 29 57 63.4 58.1 30.19 1.81 1.0 186 0.00 0.00 0.00 0.000
11/22/2014 9:20:56a 333 0 1 29 57 63.6 58.2 30.19 1.81 1.1 272 0.00 0.00 0.00 0.000
11/22/2014 9:21:56a 333 0 1 29 57 63.6 58.2 30.19 1.81 1.2 253 0.00 0.00 0.00 0.000
11/22/2014 9:22:56a 333 0 1 29 56 63.6 58.3 30.20 1.81 1.2 445 0.00 0.00 0.00 0.000
11/22/2014 9:23:56a 333 0 1 29 56 63.6 58.4 30.20 1.81 1.4 448 0.00 0.00 0.00 0.000
11/22/2014 9:24:56a 333 0 1 29 56 63.6 58.5 30.20 1.81 1.4 448 0.00 0.00 0.00 0.000
11/22/2014 9:25:56a 333 0 1 29 56 63.6 58.5 30.19 1.81 1.3 383 0.00 0.00 0.00 0.000
11/22/2014 9:26:56a 333 0 1 29 56 63.6 58.6 30.19 1.81 1.2 383 0.00 0.00 0.00 0.000
11/22/2014 9:27:56a 333 1 1 29 56 63.6 58.7 30.19 1.81 1.4 415 0.00 0.00 0.00 0.000
11/22/2014 9:28:56a 333 0 3 29 56 63.8 58.8 30.19 1.81 1.5 418 0.00 0.00 0.00 0.000
11/22/2014 9:29:56a 333 0 3 29 56 63.8 58.9 30.19 1.81 1.5 448 0.00 0.00 0.00 0.000
11/22/2014 9:30:57a 333 0 3 29 56 63.8 59.1 30.19 1.81 1.5 466 0.00 0.00 0.00 0.000
11/22/2014 9:31:57a 333 0 3 29 55 63.8 59.3 30.19 1.81 1.6 482 0.00 0.00 0.00 0.000
11/22/2014 9:32:57a 333 0 3 29 55 63.8 59.3 30.19 1.81 1.6 466 0.00 0.00 0.00 0.000
11/22/2014 9:33:57a 333 0 0 29 55 63.8 59.3 30.19 1.81 1.6 487 0.00 0.00 0.00 0.000
11/22/2014 9:34:57a 333 1 1 29 54 63.8 59.6 30.19 1.81 1.6 487 0.00 0.00 0.00 0.000
11/22/2014 9:35:57a 333 0 1 29 54 63.9 59.7 30.19 1.81 1.6 487 0.00 0.00 0.00 0.000
11/22/2014 9:36:57a 333 0 1 29 54 63.9 59.9 30.19 1.81 1.6 471 0.00 0.00 0.00 0.000
11/22/2014 9:37:57a 333 1 2 29 53 63.9 59.9 30.19 1.81 1.6 471 0.00 0.00 0.00 0.000
11/22/2014 9:38:57a 333 0 2 29 53 63.9 59.9 30.19 1.81 1.6 471 0.00 0.00 0.00 0.000
11/22/2014 9:39:57a 333 0 2 29 53 63.9 59.9 30.19 1.81 1.6 450 0.00 0.00 0.00 0.000
11/22/2014 9:40:57a 333 0 2 29 53 63.9 59.9 30.19 1.81 1.6 459 0.00 0.00 0.00 0.000
11/22/2014 9:41:57a 333 0 2 29 52 63.9 60.1 30.19 1.81 1.6 450 0.00 0.00 0.00 0.000
11/22/2014 9:42:58a 333 2 2 29 52 64.1 60.2 30.19 1.81 1.7 475 0.00 0.00 0.00 0.000
11/22/2014 9:43:58a 332 1 2 29 51 64.1 60.2 30.19 1.81 1.7 468 0.00 0.00 0.00 0.000
11/22/2014 9:44:58a 332 1 2 29 51 64.1 60.2 30.19 1.81 1.7 468 0.00 0.00 0.00 0.000
11/22/2014 9:45:58a 332 0 2 29 51 64.1 60.3 30.19 1.81 1.7 494 0.00 0.00 0.00 0.000
11/22/2014 9:46:58a 332 0 2 29 51 64.1 60.4 30.19 1.81 1.7 489 0.00 0.00 0.00 0.000
11/22/2014 9:47:58a 332 0 2 29 51 64.2 60.6 30.19 1.81 1.8 492 0.00 0.00 0.00 0.000
11/22/2014 9:48:58a 332 0 0 29 51 64.2 60.7 30.19 1.81 1.8 501 0.00 0.00 0.00 0.000
11/22/2014 9:49:58a 332 0 0 29 51 64.2 60.7 30.19 1.81 1.8 524 0.00 0.00 0.00 0.000
11/22/2014 9:50:58a 332 0 0 29 51 64.2 60.7 30.19 1.81 1.8 520 0.00 0.00 0.00 0.000
11/22/2014 9:51:58a 332 0 0 29 51 64.2 60.8 30.19 1.81 1.8 504 0.00 0.00 0.00 0.000
11/22/2014 9:52:58a 332 0 0 30 51 64.4 60.8 30.19 1.81 1.8 504 0.00 0.00 0.00 0.000
11/22/2014 9:53:58a 332 0 0 30 51 64.4 60.9 30.19 1.81 1.9 527 0.00 0.00 0.00 0.000
11/22/2014 9:54:59a 332 0 0 30 51 64.4 61.1 30.19 1.81 1.9 533 0.00 0.00 0.00 0.000
11/22/2014 9:55:59a 332 0 0 30 50 64.4 61.2 30.19 1.81 1.8 508 0.00 0.00 0.00 0.000
11/22/2014 9:57:02a 332 0 1 30 49 64.5 61.3 30.19 1.81 1.9 499 0.00 0.00 0.00 0.000
11/22/2014 9:58:02a 332 0 3 30 49 64.5 61.3 30.19 1.81 1.9 508 0.00 0.00 0.00 0.000
11/22/2014 9:59:05a 332 0 3 30 49 64.5 61.3 30.19 1.81 1.9 508 0.00 0.00 0.00 0.000
11/22/2014 10:00:05a 332 1 3 30 48 64.5 61.3 30.19 1.81 1.9 490 0.00 0.00 0.00 0.000
11/22/2014 10:01:08a 332 0 3 30 48 64.7 61.3 30.19 1.81 1.9 508 0.00 0.00 0.00 0.000
11/22/2014 10:02:08a 332 0 3 30 48 64.7 61.3 30.19 1.81 1.9 527 0.00 0.00 0.00 0.000
11/22/2014 10:03:08a 332 0 3 30 48 64.7 61.4 30.18 1.81 1.9 504 0.00 0.00 0.00 0.000
11/22/2014 10:04:08a 332 0 1 30 48 64.7 61.5 30.19 1.81 1.9 503 0.00 0.00 0.00 0.000
11/22/2014 10:05:08a 332 0 1 30 47 64.9 61.5 30.18 1.81 1.9 524 0.00 0.00 0.00 0.000
11/22/2014 10:06:08a 332 0 1 30 48 64.9 61.6 30.18 1.81 1.9 478 0.00 0.00 0.00 0.000
11/22/2014 10:07:12a 332 0 2 30 49 64.9 61.7 30.18 1.81 1.9 510 0.00 0.00 0.00 0.000
11/22/2014 10:08:12a 332 0 2 30 47 64.9 61.7 30.18 1.81 1.9 534 0.00 0.00 0.00 0.000
11/22/2014 10:09:12a 332 0 2 30 46 65.0 61.8 30.18 1.81 1.9 485 0.00 0.00 0.00 0.000
11/22/2014 10:10:12a 332 0 2 30 46 65.0 62.0 30.18 1.81 2.0 485 0.00 0.00 0.00 0.000
11/22/2014 10:11:12a 332 1 2 30 47 65.0 62.1 30.18 1.81 1.9 497 0.00 0.00 0.00 0.000
11/22/2014 10:12:12a 332 0 2 30 46 65.0 62.2 30.18 1.81 2.0 497 0.00 0.00 0.00 0.000
11/22/2014 10:13:15a 332 1 2 30 46 65.2 62.2 30.18 1.81 1.9 468 0.00 0.00 0.00 0.000
11/22/2014 10:14:15a 332 0 2 30 46 65.2 62.2 30.18 1.81 1.9 489 0.00 0.00 0.00 0.000
11/22/2014 10:15:15a 332 0 2 30 46 65.2 62.3 30.18 1.81 2.0 494 0.00 0.00 0.00 0.000
11/22/2014 10:16:18a 332 0 2 30 47 65.2 62.4 30.18 1.81 1.9 504 0.00 0.00 0.00 0.000
11/22/2014 10:17:19a 332 0 2 30 46 65.2 62.6 30.18 1.81 2.0 501 0.00 0.00 0.00 0.000
11/22/2014 10:18:19a 332 0 2 30 46 65.4 62.6 30.18 1.81 1.9 494 0.00 0.00 0.00 0.000
11/22/2014 10:19:19a 332 0 2 30 46 65.4 62.7 30.18 1.81 1.9 473 0.00 0.00 0.00 0.000
11/22/2014 10:20:19a 190 2 3 30 46 65.4 62.7 30.18 1.81 1.9 445 0.00 0.00 0.00 0.000
11/22/2014 10:21:19a 190 3 3 30 46 65.4 62.7 30.18 1.81 1.9 457 0.00 0.00 0.00 0.000
11/22/2014 10:22:19a 191 2 3 30 45 65.5 62.6 30.18 1.81 2.0 482 0.00 0.00 0.00 0.000
11/22/2014 10:23:22a 191 0 3 30 45 65.5 62.6 30.18 1.81 2.0 455 0.00 0.00 0.00 0.000
11/22/2014 10:24:22a 191 2 3 30 46 65.5 62.7 30.18 1.81 2.0 490 0.00 0.00 0.00 0.000
11/22/2014 10:25:22a 191 3 4 30 46 65.5 62.7 30.18 1.81 2.0 489 0.00 0.00 0.00 0.000
11/22/2014 10:26:22a 191 2 4 30 46 65.7 62.7 30.18 1.81 2.1 504 0.00 0.00 0.00 0.000
11/22/2014 10:27:23a 191 1 4 30 46 65.7 62.6 30.18 1.81 2.1 529 0.00 0.00 0.00 0.000
11/22/2014 10:28:23a 191 3 4 30 46 65.7 62.6 30.18 1.81 2.1 531 0.00 0.00 0.00 0.000
11/22/2014 10:29:23a 191 0 4 30 46 65.7 62.6 30.18 1.81 2.1 531 0.00 0.00 0.00 0.000
11/22/2014 10:30:29a 191 0 4 30 46 65.8 62.7 30.18 1.81 2.2 554 0.00 0.00 0.00 0.000
11/22/2014 10:31:29a 228 2 4 30 45 65.8 62.7 30.18 1.81 2.2 561 0.00 0.00 0.00 0.000
11/22/2014 10:32:29a 228 1 4 30 45 65.8 62.7 30.18 1.81 2.2 559 0.00 0.00 0.00 0.000
11/22/2014 10:33:29a 228 0 0 30 45 66.0 62.7 30.17 1.81 2.2 550 0.00 0.00 0.00 0.000
11/22/2014 10:34:29a 228 0 0 30 46 66.0 62.7 30.17 1.81 2.2 540 0.00 0.00 0.00 0.000
11/22/2014 10:35:29a 228 2 2 30 46 66.0 62.8 30.17 1.81 2.2 561 0.00 0.00 0.00 0.000
11/22/2014 10:36:29a 196 5 5 30 46 66.0 62.8 30.17 1.81 2.2 548 0.00 0.00 0.00 0.000
11/22/2014 10:37:29a 211 3 5 30 45 66.2 62.9 30.17 1.81 2.3 563 0.00 0.00 0.00 0.000
11/22/2014 10:38:29a 213 1 5 30 46 66.2 63.0 30.17 1.81 2.3 573 0.00 0.00 0.00 0.000
11/22/2014 10:39:29a 186 3 5 30 46 66.2 63.0 30.17 1.81 2.3 585 0.00 0.00 0.00 0.000
11/22/2014 10:40:29a 208 4 5 30 45 66.3 63.1 30.17 1.81 2.3 589 0.00 0.00 0.00 0.000
11/22/2014 10:41:30a 207 0 5 30 45 66.3 63.2 30.17 1.81 2.3 589 0.00 0.00 0.00 0.000
11/22/2014 10:42:33a 164 4 5 30 46 66.3 63.3 30.17 1.81 2.3 580 0.00 0.00 0.00 0.000
11/22/2014 10:43:33a 158 1 5 30 46 66.3 63.5 30.17 1.81 2.3 584 0.00 0.00 0.00 0.000
11/22/2014 10:44:33a 158 0 5 30 45 66.5 63.6 30.17 1.81 2.3 582 0.00 0.00 0.00 0.000
11/22/2014 10:45:33a 148 2 5 30 44 66.5 63.7 30.17 1.81 2.3 580 0.00 0.00 0.00 0.000
11/22/2014 10:46:33a 164 3 5 30 44 66.5 63.7 30.16 1.81 2.3 554 0.00 0.00 0.00 0.000
11/22/2014 10:47:33a 198 4 5 30 44 66.5 63.7 30.16 1.81 2.3 573 0.00 0.00 0.00 0.000
11/22/2014 10:48:34a 205 2 4 30 44 66.7 63.7 30.16 1.81 2.4 573 0.00 0.00 0.00 0.000
11/22/2014 10:49:34a 207 2 4 30 44 66.7 63.6 30.16 1.81 2.3 578 0.00 0.00 0.00 0.000
11/22/2014 10:50:34a 205 3 4 30 44 66.7 63.7 30.16 1.81 2.4 578 0.00 0.00 0.00 0.000
11/22/2014 10:51:37a 205 1 4 30 43 66.8 63.7 30.16 1.81 2.4 564 0.00 0.00 0.00 0.000
11/22/2014 10:52:37a 205 1 4 30 44 66.8 63.6 30.16 1.81 2.4 591 0.00 0.00 0.00 0.000
11/22/2014 10:53:38a 205 2 4 30 43 66.8 63.6 30.16 1.81 2.4 594 0.00 0.00 0.00 0.000
11/22/2014 10:54:38a 205 1 4 30 43 66.8 63.6 30.16 1.81 2.4 580 0.00 0.00 0.00 0.000
11/22/2014 10:55:38a 205 2 4 30 44 67.0 63.7 30.16 1.81 2.4 575 0.00 0.00 0.00 0.000
11/22/2014 10:56:38a 205 0 4 30 43 67.0 63.8 30.16 1.81 2.4 578 0.00 0.00 0.00 0.000
11/22/2014 10:57:38a 205 3 4 29 44 67.0 63.9 30.16 1.81 2.4 592 0.00 0.00 0.00 0.000
11/22/2014 10:58:41a 205 0 4 29 44 67.1 63.9 30.16 1.81 2.4 598 0.00 0.00 0.00 0.000
11/22/2014 10:59:41a 205 0 4 30 44 67.1 64.0 30.16 1.81 2.4 582 0.00 0.00 0.00 0.000
11/22/2014 11:00:41a 205 0 4 30 44 67.1 64.1 30.16 1.81 2.4 589 0.00 0.00 0.00 0.000
11/22/2014 11:01:41a 205 0 4 30 44 67.3 64.1 30.16 1.81 2.4 591 0.00 0.00 0.00 0.000
11/22/2014 11:02:41a 205 0 4 30 43 67.3 64.2 30.16 1.81 2.4 592 0.00 0.00 0.00 0.000
11/22/2014 11:03:41a 205 0 0 30 43 67.3 64.3 30.16 1.81 2.5 584 0.00 0.00 0.00 0.000
11/22/2014 11:04:42a 205 0 1 30 43 67.3 64.3 30.16 1.81 2.4 578 0.00 0.00 0.00 0.000
11/22/2014 11:05:42a 205 0 1 30 43 67.5 64.3 30.16 1.81 2.4 571 0.00 0.00 0.00 0.000
11/22/2014 11:06:42a 205 1 1 29 43 67.5 64.4 30.16 1.81 2.5 599 0.00 0.00 0.00 0.000
11/22/2014 11:07:42a 205 0 3 29 43 67.5 64.4 30.16 1.81 2.5 596 0.00 0.00 0.00 0.000
11/22/2014 11:08:43a 205 0 3 30 43 67.6 64.4 30.16 1.81 2.4 610 0.00 0.00 0.00 0.000
11/22/2014 11:09:43a 184 2 4 30 43 67.6 64.3 30.16 1.81 2.5 610 0.00 0.00 0.00 0.000
11/22/2014 11:10:43a 184 0 4 30 43 67.6 64.3 30.16 1.81 2.4 561 0.00 0.00 0.00 0.000
11/22/2014 11:11:43a 163 0 4 30 44 67.8 64.3 30.15 1.81 2.4 564 0.00 0.00 0.00 0.000
11/22/2014 11:12:43a 162 0 4 30 43 67.8 64.3 30.15 1.81 2.4 564 0.00 0.00 0.00 0.000
11/22/2014 11:13:43a 162 0 4 30 43 67.8 64.4 30.15 1.81 2.5 585 0.00 0.00 0.00 0.000
11/22/2014 11:14:43a 150 4 4 30 44 67.8 64.6 30.15 1.81 2.5 613 0.00 0.00 0.00 0.000
11/22/2014 11:15:46a 180 3 4 30 44 67.9 64.8 30.15 1.81 2.5 610 0.00 0.00 0.00 0.000
11/22/2014 11:16:46a 160 3 5 30 44 67.9 64.9 30.15 1.81 2.5 613 0.00 0.00 0.00 0.000
11/22/2014 11:17:46a 152 5 5 30 43 67.9 64.9 30.15 1.81 2.5 606 0.00 0.00 0.00 0.000
11/22/2014 11:18:46a 172 3 4 30 43 68.1 65.0 30.15 1.81 2.5 587 0.00 0.00 0.00 0.000
11/22/2014 11:19:52a 156 4 4 30 43 68.1 65.0 30.15 1.81 2.5 612 0.00 0.00 0.00 0.000
11/22/2014 11:20:52a 156 0 4 30 43 68.1 65.0 30.14 1.81 2.5 615 0.00 0.00 0.00 0.000
11/22/2014 11:21:56a 156 1 4 30 43 68.3 65.0 30.14 1.81 2.5 615 0.00 0.00 0.00 0.000
11/22/2014 11:22:56a 152 6 6 30 43 68.3 65.1 30.14 1.81 2.4 580 0.00 0.00 0.00 0.000
11/22/2014 11:23:59a 153 3 6 30 43 68.4 65.1 30.14 1.81 2.4 561 0.00 0.00 0.00 0.000
11/22/2014 11:24:59a 172 2 6 30 43 68.4 65.1 30.14 1.81 2.4 566 0.00 0.00 0.00 0.000
11/22/2014 11:25:59a 176 3 6 30 43 68.4 65.3 30.14 1.81 2.5 585 0.00 0.00 0.00 0.000
11/22/2014 11:26:59a 176 2 6 30 43 68.4 65.2 30.14 1.81 2.6 624 0.00 0.00 0.00 0.000
11/22/2014 11:27:59a 178 3 6 30 43 68.6 65.3 30.14 1.81 2.6 624 0.00 0.00 0.00 0.000
11/22/2014 11:28:59a 177 1 6 30 43 68.6 65.3 30.14 1.81 2.6 624 0.00 0.00 0.00 0.000
11/22/2014 11:29:59a 85 3 6 30 43 68.6 65.4 30.14 1.81 2.6 624 0.00 0.00 0.00 0.000
11/22/2014 11:30:59a 88 1 6 30 43 68.8 65.4 30.14 1.81 2.6 626 0.00 0.00 0.00 0.000
11/22/2014 11:31:59a 151 3 6 30 43 68.8 65.4 30.13 1.81 2.6 628 0.00 0.00 0.00 0.000
11/22/2014 11:33:00a 151 1 6 30 43 68.8 65.5 30.14 1.81 2.6 628 0.00 0.00 0.00 0.000
11/22/2014 11:34:00a 165 3 4 30 43 68.9 65.6 30.13 1.81 2.6 626 0.00 0.00 0.00 0.000
11/22/2014 11:35:00a 207 4 6 30 43 68.9 65.8 30.13 1.81 2.6 629 0.00 0.00 0.00 0.000
11/22/2014 11:36:00a 203 4 6 30 42 68.9 65.8 30.14 1.81 2.6 629 0.00 0.00 0.00 0.000
11/22/2014 11:37:00a 236 3 6 30 41 69.1 65.7 30.14 1.81 2.6 629 0.00 0.00 0.00 0.000
11/22/2014 11:38:00a 238 0 6 30 42 69.1 65.7 30.13 1.81 2.6 631 0.00 0.00 0.00 0.000
11/22/2014 11:39:00a 165 2 6 30 41 69.3 65.6 30.13 1.81 2.6 633 0.00 0.00 0.00 0.000
11/22/2014 11:40:00a 176 2 6 30 42 69.3 65.6 30.13 1.81 2.6 628 0.00 0.00 0.00 0.000
11/22/2014 11:41:00a 176 2 6 30 41 69.3 65.6 30.13 1.81 2.6 629 0.00 0.00 0.00 0.000
11/22/2014 11:42:00a 237 2 6 30 42 69.4 65.6 30.13 1.81 2.6 626 0.00 0.00 0.00 0.000
11/22/2014 11:43:00a 237 0 6 30 42 69.4 65.7 30.13 1.81 2.6 640 0.00 0.00 0.00 0.000
11/22/2014 11:44:00a 237 0 6 30 43 69.4 65.7 30.13 1.81 2.6 645 0.00 0.00 0.00 0.000
11/22/2014 11:45:01a 237 3 6 30 43 69.6 65.8 30.13 1.81 2.6 647 0.00 0.00 0.00 0.000
11/22/2014 11:46:01a 237 0 6 30 42 69.6 65.8 30.13 1.81 2.6 647 0.00 0.00 0.00 0.000
11/22/2014 11:47:01a 237 0 6 30 43 69.6 65.9 30.13 1.81 2.6 624 0.00 0.00 0.00 0.000
11/22/2014 11:48:04a 207 2 6 30 43 69.8 66.0 30.13 1.81 2.5 610 0.00 0.00 0.00 0.000
11/22/2014 11:49:04a 206 1 1 30 42 69.8 66.1 30.13 1.81 2.5 610 0.00 0.00 0.00 0.000
11/22/2014 11:50:04a 207 0 1 30 42 69.9 66.2 30.13 1.81 2.5 526 0.00 0.00 0.00 0.000
11/22/2014 11:51:04a 198 5 5 30 42 69.9 66.2 30.13 1.81 2.6 605 0.00 0.00 0.00 0.000
11/22/2014 11:52:04a 201 3 5 30 43 69.9 66.3 30.13 1.81 2.6 631 0.00 0.00 0.00 0.000
11/22/2014 11:53:07a 201 2 5 30 42 70.1 66.3 30.13 1.81 2.6 628 0.00 0.00 0.00 0.000
11/22/2014 11:54:07a 206 4 5 30 42 70.1 66.4 30.13 1.81 2.6 628 0.00 0.00 0.00 0.000
11/22/2014 11:55:07a 208 4 5 30 43 70.1 66.5 30.13 1.81 2.6 619 0.00 0.00 0.00 0.000
11/22/2014 11:56:07a 194 5 7 30 42 70.3 66.5 30.12 1.81 2.6 631 0.00 0.00 0.00 0.000
11/22/2014 11:57:07a 211 2 7 30 42 70.3 66.4 30.13 1.81 2.6 631 0.00 0.00 0.00 0.000
11/22/2014 11:58:08a 217 3 7 30 42 70.5 66.4 30.13 1.81 2.6 631 0.00 0.00 0.00 0.000
11/22/2014 11:59:08a 170 3 7 30 42 70.5 66.4 30.13 1.81 2.6 628 0.00 0.00 0.00 0.000
11/22/2014 12:00:08p 169 1 7 30 41 70.5 66.3 30.13 1.81 2.6 629 0.00 0.00 0.00 0.000
11/22/2014 12:01:08p 169 2 7 30 41 70.5 66.1 30.12 1.81 2.6 626 0.00 0.00 0.00 0.000
11/22/2014 12:02:08p 164 2 7 30 41 70.6 66.1 30.12 1.81 2.5 626 0.00 0.00 0.00 0.000
11/22/2014 12:03:11p 164 1 7 30 41 70.6 66.1 30.12 1.81 2.5 612 0.00 0.00 0.00 0.000
11/22/2014 12:04:11p 165 1 3 30 41 70.8 66.2 30.12 1.81 2.5 622 0.00 0.00 0.00 0.000
11/22/2014 12:05:11p 163 0 3 30 41 70.8 66.1 30.12 1.81 2.5 628 0.00 0.00 0.00 0.000
11/22/2014 12:06:11p 163 0 3 30 41 70.8 66.1 30.12 1.81 2.5 633 0.00 0.00 0.00 0.000
11/22/2014 12:08:11p 194 3 3 30 41 71.0 66.2 30.12 1.81 2.6 633 0.00 0.00 0.00 0.000
11/22/2014 12:09:11p 175 3 5 30 42 71.0 66.4 30.12 1.81 2.6 636 0.00 0.00 0.00 0.000
11/22/2014 12:10:11p 153 4 5 30 41 71.1 66.4 30.12 1.81 2.6 626 0.00 0.00 0.00 0.000
11/22/2014 12:11:12p 149 0 5 30 40 71.1 66.4 30.12 1.81 2.5 629 0.00 0.00 0.00 0.000
11/22/2014 12:12:12p 140 0 5 30 40 71.1 66.3 30.12 1.81 2.4 559 0.00 0.00 0.00 0.000
11/22/2014 12:13:12p 147 1 5 30 41 71.1 66.2 30.12 1.81 2.5 582 0.00 0.00 0.00 0.000
11/22/2014 12:14:12p 141 0 5 30 40 71.3 66.1 30.12 1.81 2.4 589 0.00 0.00 0.00 0.000
11/22/2014 12:15:12p 169 1 5 30 40 71.3 66.1 30.12 1.81 2.4 557 0.00 0.00 0.00 0.000
11/22/2014 12:16:12p 170 0 5 30 41 71.3 66.2 30.12 1.81 2.3 571 0.00 0.00 0.00 0.000
11/22/2014 12:17:12p 221 2 5 30 41 71.5 66.3 30.12 1.81 2.5 571 0.00 0.00 0.00 0.000
11/22/2014 12:18:12p 253 1 5 30 41 71.5 66.5 30.12 1.81 2.5 571 0.00 0.00 0.00 0.000
11/22/2014 12:19:15p 248 1 3 30 41 71.5 66.8 30.12 1.81 2.5 642 0.00 0.00 0.00 0.000
11/22/2014 12:20:15p 249 1 3 30 40 71.6 66.9 30.12 1.81 2.5 624 0.00 0.00 0.00 0.000
11/22/2014 12:21:15p 249 1 3 30 40 71.6 66.9 30.12 1.81 2.5 617 0.00 0.00 0.00 0.000
11/22/2014 12:22:15p 248 0 3 30 39 71.6 66.8 30.12 1.81 2.5 671 0.00 0.00 0.00 0.000
11/22/2014 12:23:15p 248 2 3 30 40 71.6 66.8 30.12 1.81 2.6 649 0.00 0.00 0.00 0.000
11/22/2014 12:24:15p 165 4 4 30 40 71.8 66.8 30.12 1.81 2.5 649 0.00 0.00 0.00 0.000
11/22/2014 12:25:16p 175 6 7 30 40 71.8 66.8 30.12 1.81 2.5 640 0.00 0.00 0.00 0.000
11/22/2014 12:26:19p 178 7 7 30 41 71.8 66.8 30.12 1.81 2.4 612 0.00 0.00 0.00 0.000
11/22/2014 12:27:19p 184 1 7 30 40 72.0 66.8 30.12 1.81 2.5 650 0.00 0.00 0.00 0.000
11/22/2014 12:28:19p 184 1 7 30 41 72.0 66.9 30.12 1.81 2.5 640 0.00 0.00 0.00 0.000
11/22/2014 12:29:22p 209 4 7 30 41 72.0 67.0 30.12 1.81 2.5 645 0.00 0.00 0.00 0.000
11/22/2014 12:30:22p 286 1 7 30 41 72.0 67.0 30.12 1.81 2.5 661 0.00 0.00 0.00 0.000
11/22/2014 12:31:22p 244 0 7 30 41 72.1 67.0 30.12 1.81 2.5 666 0.00 0.00 0.00 0.000
11/22/2014 12:32:22p 230 2 7 30 41 72.1 67.1 30.12 1.81 2.5 652 0.00 0.00 0.00 0.000
11/22/2014 12:33:22p 180 3 7 30 41 72.1 67.1 30.12 1.81 2.4 605 0.00 0.00 0.00 0.000
11/22/2014 12:34:22p 164 5 7 30 40 72.3 67.1 30.12 1.81 2.3 592 0.00 0.00 0.00 0.000
11/22/2014 12:35:22p 184 4 7 30 40 72.3 66.9 30.12 1.81 2.3 555 0.00 0.00 0.00 0.000
11/22/2014 12:36:22p 203 5 7 30 40 72.3 66.8 30.12 1.81 2.3 559 0.00 0.00 0.00 0.000
11/22/2014 12:37:23p 206 5 7 30 39 72.5 66.8 30.12 1.81 2.3 555 0.00 0.00 0.00 0.000
11/22/2014 12:38:23p 213 4 7 30 39 72.5 66.8 30.12 1.81 2.3 587 0.00 0.00 0.00 0.000
11/22/2014 12:39:29p 219 5 7 30 40 72.5 66.8 30.12 1.81 2.3 587 0.00 0.00 0.00 0.000
11/22/2014 12:40:29p 205 2 7 30 40 72.7 66.9 30.12 1.81 2.2 585 0.00 0.00 0.00 0.000
11/22/2014 12:41:32p 191 0 7 30 39 72.7 66.9 30.12 1.81 2.2 538 0.00 0.00 0.00 0.000
11/22/2014 12:42:32p 213 2 7 30 39 72.7 66.8 30.12 1.81 2.2 536 0.00 0.00 0.00 0.000
11/22/2014 12:43:32p 213 2 7 30 39 72.8 66.8 30.12 1.81 2.2 582 0.00 0.00 0.00 0.000
11/22/2014 12:44:32p 205 2 7 30 39 72.8 66.8 30.12 1.81 2.2 589 0.00 0.00 0.00 0.000
11/22/2014 12:45:32p 206 2 7 30 39 72.8 66.8 30.12 1.81 2.2 589 0.00 0.00 0.00 0.000
11/22/2014 12:46:32p 203 2 7 30 39 73.0 66.9 30.12 1.81 2.2 605 0.00 0.00 0.00 0.000
11/22/2014 12:47:35p 213 1 7 30 39 73.0 67.0 30.12 1.81 2.2 605 0.00 0.00 0.00 0.000
11/22/2014 12:48:35p 213 0 2 30 39 73.0 67.1 30.12 1.81 2.3 628 0.00 0.00 0.00 0.000
11/22/2014 12:49:35p 204 0 2 30 39 73.0 67.1 30.12 1.81 2.2 608 0.00 0.00 0.00 0.000
11/22/2014 12:50:36p 26 1 2 30 39 73.2 67.2 30.11 1.81 2.1 543 0.00 0.00 0.00 0.000
11/22/2014 12:51:39p 26 0 2 30 39 73.2 67.3 30.11 1.81 2.0 522 0.00 0.00 0.00 0.000
11/22/2014 12:52:39p 26 0 2 30 38 73.2 67.3 30.11 1.81 2.0 529 0.00 0.00 0.00 0.000
11/22/2014 12:53:39p 26 2 2 30 38 73.2 67.4 30.11 1.81 1.9 434 0.00 0.00 0.00 0.000
11/22/2014 12:54:39p 70 3 5 30 38 73.3 67.3 30.11 1.81 1.9 499 0.00 0.00 0.00 0.000
11/22/2014 12:55:39p 72 0 5 30 37 73.3 67.2 30.11 1.81 1.9 473 0.00 0.00 0.00 0.000
11/22/2014 12:56:39p 72 1 5 30 38 73.3 67.1 30.11 1.81 2.0 512 0.00 0.00 0.00 0.000
11/22/2014 12:57:39p 72 0 5 30 38 73.5 67.1 30.11 1.81 2.0 504 0.00 0.00 0.00 0.000
11/22/2014 12:58:39p 90 0 5 30 38 73.5 67.1 30.10 1.81 1.9 469 0.00 0.00 0.00 0.000
11/22/2014 12:59:39p 132 1 5 30 38 73.5 67.2 30.10 1.81 1.9 501 0.00 0.00 0.00 0.000
11/22/2014 1:00:39p 132 0 5 30 38 73.5 67.3 30.10 1.81 1.9 494 0.00 0.00 0.00 0.000
11/22/2014 1:01:42p 132 0 5 30 38 73.7 67.3 30.10 1.81 1.9 494 0.00 0.00 0.00 0.000
11/22/2014 1:02:42p 173 4 6 30 38 73.7 67.4 30.10 1.81 2.0 538 0.00 0.00 0.00 0.000
11/22/2014 1:03:42p 174 3 3 30 38 73.7 67.3 30.10 1.81 2.0 563 0.00 0.00 0.00 0.000
11/22/2014 1:04:45p 174 2 6 30 38 73.7 67.3 30.10 1.81 2.0 545 0.00 0.00 0.00 0.000
11/22/2014 1:05:46p 175 4 7 30 38 73.9 67.3 30.10 1.81 2.0 547 0.00 0.00 0.00 0.000
11/22/2014 1:06:46p 146 3 7 30 38 73.9 67.3 30.10 1.81 2.0 563 0.00 0.00 0.00 0.000
11/22/2014 1:07:46p 118 5 7 30 38 73.9 67.3 30.10 1.81 2.0 563 0.00 0.00 0.00 0.000
11/22/2014 1:08:46p 172 3 7 30 38 74.0 67.3 30.10 1.81 1.9 510 0.00 0.00 0.00 0.000
11/22/2014 1:09:46p 176 4 7 30 37 74.0 67.3 30.10 1.81 1.9 512 0.00 0.00 0.00 0.000
11/22/2014 1:10:46p 152 4 7 30 37 74.0 67.3 30.10 1.81 1.9 508 0.00 0.00 0.00 0.000
11/22/2014 1:11:46p 148 5 7 30 37 74.0 67.3 30.10 1.81 1.9 506 0.00 0.00 0.00 0.000
11/22/2014 1:12:46p 155 2 7 30 37 74.2 67.3 30.10 1.81 1.8 506 0.00 0.00 0.00 0.000
11/22/2014 1:13:46p 155 0 7 30 36 74.2 67.3 30.10 1.81 1.8 490 0.00 0.00 0.00 0.000
11/22/2014 1:14:46p 155 0 7 30 37 74.2 67.2 30.10 1.81 1.8 497 0.00 0.00 0.00 0.000
11/22/2014 1:15:46p 155 0 7 30 36 74.2 67.1 30.10 1.81 1.8 485 0.00 0.00 0.00 0.000
11/22/2014 1:16:46p 172 2 7 30 38 74.4 67.2 30.10 1.81 1.8 510 0.00 0.00 0.00 0.000
11/22/2014 1:17:50p 123 1 7 30 37 74.4 67.3 30.10 1.81 1.8 524 0.00 0.00 0.00 0.000
11/22/2014 1:18:50p 163 3 3 30 37 74.4 67.4 30.10 1.81 1.8 533 0.00 0.00 0.00 0.000
11/22/2014 1:19:53p 186 3 4 30 36 74.4 67.4 30.10 1.81 1.8 529 0.00 0.00 0.00 0.000
11/22/2014 1:20:53p 191 3 4 30 37 74.5 67.4 30.10 1.81 1.8 527 0.00 0.00 0.00 0.000
11/22/2014 1:21:53p 163 1 4 30 37 74.5 67.4 30.10 1.81 1.8 529 0.00 0.00 0.00 0.000
11/22/2014 1:22:53p 215 3 4 30 37 74.5 67.4 30.10 1.81 1.8 501 0.00 0.00 0.00 0.000
11/22/2014 1:23:53p 215 3 4 30 37 74.7 67.5 30.10 1.81 1.7 503 0.00 0.00 0.00 0.000
11/22/2014 1:24:56p 213 3 5 30 37 74.7 67.5 30.10 1.81 1.7 512 0.00 0.00 0.00 0.000
11/22/2014 1:25:56p 213 2 5 30 37 74.7 67.5 30.10 1.81 1.7 517 0.00 0.00 0.00 0.000
11/22/2014 1:27:02p 213 0 5 30 37 74.7 67.4 30.10 1.81 1.7 519 0.00 0.00 0.00 0.000
11/22/2014 1:28:02p 213 1 5 30 37 74.9 67.4 30.10 1.81 1.7 515 0.00 0.00 0.00 0.000
11/22/2014 1:29:02p 213 2 5 30 37 74.9 67.4 30.10 1.81 1.7 515 0.00 0.00 0.00 0.000
11/22/2014 1:30:03p 213 1 5 30 37 74.9 67.5 30.09 1.81 1.7 512 0.00 0.00 0.00 0.000
11/22/2014 1:31:03p 213 0 5 30 37 74.9 67.5 30.09 1.81 1.7 508 0.00 0.00 0.00 0.000
11/22/2014 1:32:09p 262 0 5 30 37 75.1 67.6 30.09 1.81 1.7 510 0.00 0.00 0.00 0.000
11/22/2014 1:33:09p 262 1 5 31 37 75.1 67.7 30.09 1.81 1.7 510 0.00 0.00 0.00 0.000
11/22/2014 1:34:09p 262 0 0 31 37 75.1 67.8 30.09 1.81 1.6 508 0.00 0.00 0.00 0.000
11/22/2014 1:35:09p 256 2 2 31 38 75.1 67.9 30.09 1.81 1.6 508 0.00 0.00 0.00 0.000
11/22/2014 1:36:09p 205 5 5 31 38 75.2 67.9 30.09 1.81 1.6 508 0.00 0.00 0.00 0.000
11/22/2014 1:37:09p 209 2 5 31 38 75.2 67.9 30.09 1.81 1.6 506 0.00 0.00 0.00 0.000
11/22/2014 1:38:09p 206 0 5 31 37 75.2 67.9 30.09 1.81 1.6 503 0.00 0.00 0.00 0.000
11/22/2014 1:39:12p 163 3 5 31 37 75.4 67.8 30.09 1.81 1.6 508 0.00 0.00 0.00 0.000
11/22/2014 1:40:12p 172 3 5 31 38 75.4 67.8 30.09 1.81 1.6 508 0.00 0.00 0.00 0.000
11/22/2014 1:41:18p 172 0 5 31 37 75.4 67.8 30.10 1.81 1.6 506 0.00 0.00 0.00 0.000
11/22/2014 1:42:18p 172 0 5 31 38 75.4 67.9 30.09 1.81 1.5 504 0.00 0.00 0.00 0.000
11/22/2014 1:43:21p 172 0 5 31 37 75.6 67.9 30.09 1.81 1.5 473 0.00 0.00 0.00 0.000
11/22/2014 1:44:21p 123 1 5 31 36 75.6 67.9 30.09 1.81 1.5 496 0.00 0.00 0.00 0.000
11/22/2014 1:45:22p 206 3 5 31 36 75.6 67.9 30.09 1.81 1.5 494 0.00 0.00 0.00 0.000
11/22/2014 1:46:22p 192 3 5 31 37 75.6 68.0 30.09 1.81 1.5 492 0.00 0.00 0.00 0.000
11/22/2014 1:47:22p 218 5 5 31 37 75.8 67.9 30.10 1.81 1.5 490 0.00 0.00 0.00 0.000
11/22/2014 1:48:22p 209 3 6 31 37 75.8 68.0 30.09 1.81 1.5 490 0.00 0.00 0.00 0.000
11/22/2014 1:49:22p 196 4 5 31 36 75.8 68.0 30.09 1.81 1.5 478 0.00 0.00 0.00 0.000
11/22/2014 1:50:22p 187 3 7 31 36 75.8 67.9 30.09 1.81 1.4 476 0.00 0.00 0.00 0.000
11/22/2014 1:51:28p 240 4 7 31 36 75.9 67.9 30.09 1.81 1.4 473 0.00 0.00 0.00 0.000
11/22/2014 1:52:28p 217 3 7 31 37 75.9 67.9 30.09 1.81 1.4 471 0.00 0.00 0.00 0.000
11/22/2014 1:53:28p 175 6 7 31 37 76.1 67.9 30.09 1.81 1.4 469 0.00 0.00 0.00 0.000
11/22/2014 1:54:28p 182 1 7 31 37 76.1 67.8 30.09 1.81 1.4 464 0.00 0.00 0.00 0.000
11/22/2014 1:55:28p 184 4 7 31 37 76.1 67.8 30.09 1.81 1.4 464 0.00 0.00 0.00 0.000
11/22/2014 1:56:29p 175 5 7 31 37 76.1 67.8 30.09 1.81 1.3 466 0.00 0.00 0.00 0.000
11/22/2014 1:57:29p 179 4 7 31 37 76.3 67.9 30.09 1.81 1.3 462 0.00 0.00 0.00 0.000
11/22/2014 1:58:32p 171 3 7 31 37 76.3 67.9 30.09 1.81 1.3 461 0.00 0.00 0.00 0.000
11/22/2014 1:59:32p 202 0 7 31 36 76.3 67.8 30.09 1.81 1.3 459 0.00 0.00 0.00 0.000
11/22/2014 2:00:32p 180 1 7 31 36 76.3 67.8 30.09 1.81 1.3 457 0.00 0.00 0.00 0.000
11/22/2014 2:01:32p 180 1 7 31 37 76.5 67.8 30.09 1.81 1.3 452 0.00 0.00 0.00 0.000
11/22/2014 2:02:32p 180 0 7 31 36 76.5 67.8 30.09 1.81 1.3 452 0.00 0.00 0.00 0.000
11/22/2014 2:03:32p 180 0 0 31 36 76.5 67.9 30.09 1.81 1.3 452 0.00 0.00 0.00 0.000
11/22/2014 2:04:32p 180 1 1 31 36 76.5 68.1 30.09 1.81 1.3 443 0.00 0.00 0.00 0.000
11/22/2014 2:05:32p 198 4 5 31 36 76.6 68.2 30.08 1.81 1.3 434 0.00 0.00 0.00 0.000
11/22/2014 2:06:32p 202 2 5 31 35 76.6 68.1 30.08 1.81 1.2 459 0.00 0.00 0.00 0.000
11/22/2014 2:07:36p 202 0 5 31 35 76.6 68.1 30.08 1.81 1.2 462 0.00 0.00 0.00 0.000
11/22/2014 2:08:36p 202 1 5 31 36 76.6 68.0 30.08 1.81 1.2 450 0.00 0.00 0.00 0.000
11/22/2014 2:09:36p 211 2 5 31 36 76.8 68.1 30.08 1.81 1.2 420 0.00 0.00 0.00 0.000
11/22/2014 2:10:36p 153 5 5 31 37 76.8 68.2 30.08 1.81 1.2 427 0.00 0.00 0.00 0.000
11/22/2014 2:11:39p 169 4 6 31 36 76.8 68.2 30.09 1.81 1.2 462 0.00 0.00 0.00 0.000
11/22/2014 2:12:39p 205 4 6 31 36 76.8 68.1 30.08 1.81 1.2 468 0.00 0.00 0.00 0.000
11/22/2014 2:13:39p 211 3 6 31 36 76.8 68.0 30.08 1.81 1.2 475 0.00 0.00 0.00 0.000
11/22/2014 2:14:39p 209 3 6 31 36 77.0 67.9 30.08 1.81 1.2 476 0.00 0.00 0.00 0.000
11/22/2014 2:15:39p 207 3 6 31 36 77.0 67.9 30.08 1.81 1.3 487 0.00 0.00 0.00 0.000
11/22/2014 2:16:39p 206 3 6 31 37 77.0 67.8 30.08 1.81 1.3 489 0.00 0.00 0.00 0.000
11/22/2014 2:17:39p 223 3 6 31 36 77.0 67.8 30.08 1.81 1.3 489 0.00 0.00 0.00 0.000
11/22/2014 2:18:39p 242 2 4 31 36 77.2 67.8 30.08 1.81 1.2 487 0.00 0.00 0.00 0.000
11/22/2014 2:19:39p 242 2 4 31 35 77.2 67.9 30.08 1.81 1.2 485 0.00 0.00 0.00 0.000
11/22/2014 2:20:39p 242 0 4 31 36 77.2 68.0 30.08 1.81 1.2 483 0.00 0.00 0.00 0.000
11/22/2014 2:21:39p 242 1 4 31 35 77.2 68.1 30.08 1.81 1.2 482 0.00 0.00 0.00 0.000
11/22/2014 2:22:39p 241 0 4 31 35 77.2 68.2 30.08 1.81 1.2 478 0.00 0.00 0.00 0.000
11/22/2014 2:23:40p 263 2 4 31 35 77.3 68.3 30.08 1.81 1.1 480 0.00 0.00 0.00 0.000
11/22/2014 2:24:40p 263 1 4 31 35 77.3 68.4 30.09 1.81 1.1 482 0.00 0.00 0.00 0.000
11/22/2014 2:25:40p 251 1 4 31 35 77.3 68.4 30.09 1.81 1.1 482 0.00 0.00 0.00 0.000
11/22/2014 2:26:40p 251 0 4 31 35 77.3 68.4 30.09 1.81 1.1 483 0.00 0.00 0.00 0.000
11/22/2014 2:27:40p 251 0 4 31 35 77.5 68.4 30.09 1.81 1.1 482 0.00 0.00 0.00 0.000
11/22/2014 2:28:40p 251 0 4 31 35 77.5 68.3 30.09 1.81 1.1 480 0.00 0.00 0.00 0.000
11/22/2014 2:29:40p 251 0 4 31 35 77.5 68.3 30.08 1.81 1.1 475 0.00 0.00 0.00 0.000
11/22/2014 2:30:40p 251 0 4 31 35 77.5 68.4 30.08 1.81 1.0 427 0.00 0.00 0.00 0.000
11/22/2014 2:31:40p 202 1 4 31 35 77.5 68.4 30.08 1.81 1.0 427 0.00 0.00 0.00 0.000
11/22/2014 2:32:43p 180 3 6 31 35 77.7 68.4 30.08 1.81 1.0 448 0.00 0.00 0.00 0.000
11/22/2014 2:33:43p 193 4 4 31 36 77.7 68.4 30.08 1.81 1.0 441 0.00 0.00 0.00 0.000
11/22/2014 2:34:43p 188 2 4 31 35 77.7 68.4 30.08 1.81 1.0 436 0.00 0.00 0.00 0.000
11/22/2014 2:35:43p 184 2 4 31 35 77.7 68.4 30.08 1.81 0.9 429 0.00 0.00 0.00 0.000
11/22/2014 2:36:43p 176 2 5 31 36 77.7 68.4 30.08 1.81 0.9 422 0.00 0.00 0.00 0.000
11/22/2014 2:37:44p 176 0 5 31 35 77.9 68.3 30.08 1.81 0.9 413 0.00 0.00 0.00 0.000
11/22/2014 2:38:44p 162 5 5 31 35 77.9 68.3 30.08 1.81 0.9 411 0.00 0.00 0.00 0.000
11/22/2014 2:39:44p 144 2 5 31 35 77.9 68.3 30.08 1.81 0.9 401 0.00 0.00 0.00 0.000
11/22/2014 2:40:44p 174 5 5 31 35 77.9 68.4 30.08 1.81 0.9 397 0.00 0.00 0.00 0.000
11/22/2014 2:41:44p 176 2 5 31 35 77.9 68.4 30.08 1.81 0.8 396 0.00 0.00 0.00 0.000
11/22/2014 2:42:44p 203 3 5 31 36 78.1 68.5 30.08 1.81 0.8 392 0.00 0.00 0.00 0.000
11/22/2014 2:43:44p 199 6 9 31 36 78.1 68.5 30.07 1.81 0.8 367 0.00 0.00 0.00 0.000
11/22/2014 2:44:47p 211 3 9 31 36 78.1 68.4 30.08 1.81 0.8 403 0.00 0.00 0.00 0.000
11/22/2014 2:45:47p 273 3 9 31 36 78.1 68.3 30.08 1.81 0.8 406 0.00 0.00 0.00 0.000
11/22/2014 2:46:47p 273 1 9 31 36 78.1 68.2 30.08 1.81 0.8 411 0.00 0.00 0.00 0.000
11/22/2014 2:47:47p 229 1 9 31 36 78.2 68.3 30.08 1.81 0.8 418 0.00 0.00 0.00 0.000
11/22/2014 2:48:48p 269 1 3 31 36 78.2 68.3 30.07 1.81 0.8 424 0.00 0.00 0.00 0.000
11/22/2014 2:49:48p 230 4 5 31 36 78.2 68.4 30.07 1.81 0.8 427 0.00 0.00 0.00 0.000
11/22/2014 2:50:48p 230 2 5 31 36 78.2 68.4 30.07 1.81 0.8 434 0.00 0.00 0.00 0.000
11/22/2014 2:51:48p 230 0 5 31 36 78.2 68.4 30.07 1.81 0.8 436 0.00 0.00 0.00 0.000
11/22/2014 2:52:48p 232 3 5 31 37 78.4 68.5 30.07 1.81 0.8 439 0.00 0.00 0.00 0.000
11/22/2014 2:53:48p 232 2 5 31 36 78.4 68.5 30.07 1.81 0.8 429 0.00 0.00 0.00 0.000
11/22/2014 2:54:48p 188 4 5 31 36 78.4 68.4 30.07 1.81 0.8 436 0.00 0.00 0.00 0.000
11/22/2014 2:55:49p 222 3 5 31 36 78.4 68.4 30.07 1.81 0.7 436 0.00 0.00 0.00 0.000
11/22/2014 2:56:49p 237 2 5 31 36 78.4 68.5 30.07 1.81 0.7 434 0.00 0.00 0.00 0.000
11/22/2014 2:57:49p 237 1 5 31 36 78.4 68.6 30.07 1.81 0.7 431 0.00 0.00 0.00 0.000
11/22/2014 2:58:49p 200 5 5 31 36 78.6 68.6 30.07 1.81 0.7 429 0.00 0.00 0.00 0.000
11/22/2014 2:59:49p 198 3 5 31 36 78.6 68.5 30.07 1.81 0.7 429 0.00 0.00 0.00 0.000
11/22/2014 3:00:49p 209 5 7 31 36 78.6 68.4 30.07 1.81 0.7 427 0.00 0.00 0.00 0.000
11/22/2014 3:01:49p 191 4 7 31 36 78.6 68.4 30.07 1.81 0.7 410 0.00 0.00 0.00 0.000
11/22/2014 3:02:49p 197 2 7 31 36 78.6 68.4 30.07 1.81 0.6 410 0.00 0.00 0.00 0.000
11/22/2014 3:03:49p 163 2 4 31 36 78.8 68.3 30.06 1.81 0.7 410 0.00 0.00 0.00 0.000
11/22/2014 3:04:49p 163 4 5 31 36 78.8 68.4 30.06 1.81 0.6 406 0.00 0.00 0.00 0.000
11/22/2014 3:05:49p 163 2 5 31 36 78.8 68.4 30.06 1.81 0.6 401 0.00 0.00 0.00 0.000
11/22/2014 3:06:49p 213 2 5 31 35 78.8 68.4 30.06 1.81 0.6 396 0.00 0.00 0.00 0.000
11/22/2014 3:07:53p 207 2 5 31 35 78.8 68.3 30.06 1.81 0.6 387 0.00 0.00 0.00 0.000
11/22/2014 3:08:53p 178 2 5 31 36 78.8 68.3 30.06 1.81 0.5 302 0.00 0.00 0.00 0.000
11/22/2014 3:09:56p 179 1 5 31 35 78.9 68.3 30.06 1.81 0.5 302 0.00 0.00 0.00 0.000
11/22/2014 3:10:56p 208 2 5 31 35 78.9 68.2 30.06 1.81 0.5 237 0.00 0.00 0.00 0.000
11/22/2014 3:11:56p 208 0 5 31 35 78.9 68.2 30.06 1.81 0.6 237 0.00 0.00 0.00 0.000
11/22/2014 3:12:56p 208 1 5 31 35 78.9 68.3 30.06 1.81 0.6 360 0.00 0.00 0.00 0.000
11/22/2014 3:13:56p 208 0 5 31 35 78.9 68.3 30.06 1.81 0.5 350 0.00 0.00 0.00 0.000
11/22/2014 3:14:56p 171 1 5 31 36 78.9 68.4 30.06 1.81 0.5 345 0.00 0.00 0.00 0.000
11/22/2014 3:15:56p 171 0 5 31 35 79.1 68.4 30.06 1.81 0.5 338 0.00 0.00 0.00 0.000
11/22/2014 3:16:56p 171 1 5 31 35 79.1 68.4 30.06 1.81 0.5 288 0.00 0.00 0.00 0.000
11/22/2014 3:17:56p 219 4 5 31 35 79.1 68.4 30.06 1.81 0.5 318 0.00 0.00 0.00 0.000
11/22/2014 3:18:56p 213 3 3 31 35 79.1 68.4 30.06 1.81 0.0 237 0.00 0.00 0.00 0.000
11/22/2014 3:19:56p 244 2 5 31 36 79.1 68.4 30.06 1.81 0.0 90 0.00 0.00 0.00 0.000
11/22/2014 3:20:57p 228 3 5 31 36 79.1 68.3 30.06 1.81 0.0 77 0.00 0.00 0.00 0.000
11/22/2014 3:22:03p 171 2 5 31 36 79.3 68.3 30.06 1.81 0.0 72 0.00 0.00 0.00 0.000
11/22/2014 3:23:03p 163 2 5 31 36 79.3 68.2 30.06 1.81 0.0 67 0.00 0.00 0.00 0.000
11/22/2014 3:24:03p 180 3 5 31 36 79.3 68.1 30.06 1.81 0.0 67 0.00 0.00 0.00 0.000
11/22/2014 3:25:03p 201 3 5 31 36 79.3 68.0 30.06 1.81 0.0 63 0.00 0.00 0.00 0.000
11/22/2014 3:26:03p 201 2 5 31 37 79.3 67.9 30.06 1.81 0.0 63 0.00 0.00 0.00 0.000
11/22/2014 3:27:03p 207 0 5 31 38 79.3 67.8 30.06 1.81 0.0 63 0.00 0.00 0.00 0.000
11/22/2014 3:28:03p 206 0 5 31 39 79.5 67.7 30.06 1.81 0.0 65 0.00 0.00 0.00 0.000
11/22/2014 3:29:03p 206 0 5 31 39 79.5 67.6 30.06 1.81 0.0 81 0.00 0.00 0.00 0.000
11/22/2014 3:30:06p 207 0 5 31 39 79.5 67.5 30.06 1.81 0.0 190 0.00 0.00 0.00 0.000
11/22/2014 3:31:06p 207 3 5 31 39 79.5 67.4 30.06 1.81 0.0 213 0.00 0.00 0.00 0.000
11/22/2014 3:32:06p 207 0 5 31 39 79.5 67.4 30.07 1.81 0.0 167 0.00 0.00 0.00 0.000
11/22/2014 3:33:06p 207 0 5 31 39 79.5 67.4 30.07 1.81 0.0 155 0.00 0.00 0.00 0.000
11/22/2014 3:34:06p 206 0 1 31 39 79.5 67.4 30.07 1.81 0.0 123 0.00 0.00 0.00 0.000
11/22/2014 3:35:06p 207 0 1 31 39 79.7 67.4 30.07 1.81 0.0 155 0.00 0.00 0.00 0.000
11/22/2014 3:36:07p 207 1 2 31 40 79.7 67.4 30.07 1.81 0.0 69 0.00 0.00 0.00 0.000
11/22/2014 3:37:07p 207 2 2 31 40 79.7 67.5 30.07 1.81 0.0 69 0.00 0.00 0.00 0.000
11/22/2014 3:38:07p 205 3 3 31 39 79.7 67.5 30.07 1.81 0.0 77 0.00 0.00 0.00 0.000
11/22/2014 3:39:07p 205 2 4 31 39 79.7 67.5 30.07 1.81 0.0 95 0.00 0.00 0.00 0.000
11/22/2014 3:40:07p 205 2 4 31 39 79.7 67.4 30.07 1.81 0.0 105 0.00 0.00 0.00 0.000
11/22/2014 3:41:07p 205 4 4 31 39 79.7 67.4 30.07 1.81 0.0 95 0.00 0.00 0.00 0.000
11/22/2014 3:42:07p 207 3 4 31 39 79.9 67.4 30.07 1.81 0.0 86 0.00 0.00 0.00 0.000
11/22/2014 3:43:07p 207 1 4 31 39 79.9 67.4 30.07 1.81 0.0 90 0.00 0.00 0.00 0.000
11/22/2014 3:44:07p 207 1 4 31 39 79.9 67.4 30.07 1.81 0.0 95 0.00 0.00 0.00 0.000
11/22/2014 3:45:10p 172 3 4 31 40 79.9 67.4 30.07 1.81 0.0 105 0.00 0.00 0.00 0.000
11/22/2014 3:46:10p 182 3 5 31 40 79.9 67.4 30.07 1.81 0.0 105 0.00 0.00 0.00 0.000
11/22/2014 3:47:11p 205 3 6 31 40 79.9 67.3 30.07 1.81 0.0 81 0.00 0.00 0.00 0.000
11/22/2014 3:48:11p 209 2 6 31 40 79.9 67.3 30.07 1.81 0.0 70 0.00 0.00 0.00 0.000
11/22/2014 3:49:11p 201 2 3 31 40 79.9 67.3 30.07 1.81 0.0 72 0.00 0.00 0.00 0.000
11/22/2014 3:50:11p 198 4 4 31 40 80.1 67.2 30.07 1.81 0.0 69 0.00 0.00 0.00 0.000
11/22/2014 3:51:11p 197 3 4 31 40 80.1 67.2 30.07 1.81 0.0 56 0.00 0.00 0.00 0.000
11/22/2014 3:52:11p 182 5 5 31 40 80.1 67.1 30.06 1.81 0.0 56 0.00 0.00 0.00 0.000
11/22/2014 3:53:11p 207 3 5 31 40 80.1 67.1 30.06 1.81 0.0 84 0.00 0.00 0.00 0.000
11/22/2014 3:54:17p 207 0 5 31 40 80.1 67.1 30.06 1.81 0.0 88 0.00 0.00 0.00 0.000
11/22/2014 3:55:18p 207 0 5 31 41 80.1 67.1 30.06 1.81 0.0 72 0.00 0.00 0.00 0.000
11/22/2014 3:56:18p 207 0 5 31 41 80.1 67.1 30.07 1.81 0.0 81 0.00 0.00 0.00 0.000
11/22/2014 3:57:18p 207 0 5 31 41 80.1 67.1 30.07 1.81 0.0 79 0.00 0.00 0.00 0.000
11/22/2014 3:58:18p 207 1 5 31 42 80.2 67.1 30.07 1.81 0.0 107 0.00 0.00 0.00 0.000
11/22/2014 3:59:18p 208 2 5 31 41 80.2 67.1 30.07 1.81 0.0 113 0.00 0.00 0.00 0.000
11/22/2014 4:00:18p 207 3 5 31 41 80.2 67.1 30.07 1.81 0.0 114 0.00 0.00 0.00 0.000
11/22/2014 4:01:18p 207 0 5 31 41 80.2 67.1 30.07 1.81 0.0 111 0.00 0.00 0.00 0.000
11/22/2014 4:02:18p 207 0 5 31 41 80.2 67.1 30.08 1.81 0.0 104 0.00 0.00 0.00 0.000
11/22/2014 4:03:18p 207 0 5 31 42 80.2 67.1 30.07 1.81 0.0 102 0.00 0.00 0.00 0.000
11/22/2014 4:04:21p 207 1 3 31 41 80.2 67.1 30.07 1.81 0.0 100 0.00 0.00 0.00 0.000
11/22/2014 4:05:21p 207 0 3 31 41 80.2 67.1 30.07 1.81 0.0 97 0.00 0.00 0.00 0.000
11/22/2014 4:06:24p 207 1 3 31 41 80.2 67.1 30.07 1.81 0.0 83 0.00 0.00 0.00 0.000
11/22/2014 4:07:24p 194 5 5 31 41 80.2 67.1 30.07 1.81 0.0 83 0.00 0.00 0.00 0.000
11/22/2014 4:08:27p 193 4 5 31 41 80.4 67.0 30.07 1.81 0.0 63 0.00 0.00 0.00 0.000
11/22/2014 4:09:28p 211 3 5 31 41 80.4 67.0 30.07 1.81 0.0 58 0.00 0.00 0.00 0.000
11/22/2014 4:10:37p 194 3 5 31 41 80.4 67.0 30.07 1.81 0.0 58 0.00 0.00 0.00 0.000
11/22/2014 4:11:37p 195 2 5 31 41 80.4 67.0 30.07 1.81 0.0 54 0.00 0.00 0.00 0.000
11/22/2014 4:12:37p 195 0 5 31 41 80.4 67.0 30.07 1.81 0.0 53 0.00 0.00 0.00 0.000
11/22/2014 4:13:43p 196 0 5 31 41 80.4 67.0 30.07 1.81 0.0 47 0.00 0.00 0.00 0.000
11/22/2014 4:14:43p 196 0 5 31 41 80.4 67.0 30.07 1.81 0.0 46 0.00 0.00 0.00 0.000
11/22/2014 4:15:43p 195 2 5 31 41 80.4 66.9 30.07 1.81 0.0 44 0.00 0.00 0.00 0.000
11/22/2014 4:16:46p 195 0 5 31 41 80.4 66.9 30.06 1.81 0.0 44 0.00 0.00 0.00 0.000
11/22/2014 4:17:49p 196 1 5 31 42 80.4 66.8 30.06 1.81 0.0 42 0.00 0.00 0.00 0.000
11/22/2014 4:18:49p 201 2 3 31 42 80.4 66.7 30.06 1.81 0.0 39 0.00 0.00 0.00 0.000
11/22/2014 4:19:49p 201 0 3 31 41 80.4 66.6 30.06 1.81 0.0 37 0.00 0.00 0.00 0.000
11/22/2014 4:20:49p 201 1 3 31 41 80.4 66.6 30.06 1.81 0.0 35 0.00 0.00 0.00 0.000
11/22/2014 4:21:50p 201 0 3 31 41 80.4 66.6 30.06 1.81 0.0 33 0.00 0.00 0.00 0.000
11/22/2014 4:22:50p 201 1 3 31 42 80.6 66.6 30.05 1.81 0.0 32 0.00 0.00 0.00 0.000
11/22/2014 4:23:50p 201 2 3 31 42 80.6 66.5 30.05 1.81 0.0 32 0.00 0.00 0.00 0.000
11/22/2014 4:24:50p 198 3 3 31 42 80.6 66.5 30.05 1.81 0.0 30 0.00 0.00 0.00 0.000
11/22/2014 4:25:50p 201 1 4 31 42 80.6 66.5 30.06 1.81 0.0 26 0.00 0.00 0.00 0.000
11/22/2014 4:26:50p 201 2 4 31 42 80.6 66.4 30.06 1.81 0.0 25 0.00 0.00 0.00 0.000
11/22/2014 4:27:50p 201 1 4 31 42 80.6 66.4 30.06 1.81 0.0 23 0.00 0.00 0.00 0.000
11/22/2014 4:28:50p 201 0 4 31 42 80.6 66.4 30.06 1.81 0.0 23 0.00 0.00 0.00 0.000
11/22/2014 4:29:56p 201 0 4 31 42 80.6 66.3 30.06 1.81 0.0 19 0.00 0.00 0.00 0.000
11/22/2014 4:30:56p 201 0 4 31 42 80.6 66.2 30.06 1.81 0.0 19 0.00 0.00 0.00 0.000
11/22/2014 4:31:56p 201 0 4 31 43 80.6 66.2 30.06 1.81 0.0 19 0.00 0.00 0.00 0.000
11/22/2014 4:32:56p 201 0 4 31 43 80.6 66.1 30.06 1.81 0.0 18 0.00 0.00 0.00 0.000
11/22/2014 4:33:56p 201 0 0 31 43 80.6 66.0 30.07 1.81 0.0 16 0.00 0.00 0.00 0.000
11/22/2014 4:34:56p 201 0 0 31 43 80.6 65.9 30.06 1.81 0.0 14 0.00 0.00 0.00 0.000
11/22/2014 4:35:57p 201 0 0 31 43 80.6 65.9 30.07 1.81 0.0 12 0.00 0.00 0.00 0.000
11/22/2014 4:36:57p 201 0 0 31 43 80.6 65.9 30.07 1.81 0.0 11 0.00 0.00 0.00 0.000
11/22/2014 4:37:57p 201 0 0 31 44 80.6 65.8 30.06 1.81 0.0 9 0.00 0.00 0.00 0.000
11/22/2014 4:38:57p 201 0 0 31 44 80.6 65.7 30.07 1.81 0.0 9 0.00 0.00 0.00 0.000
11/22/2014 4:40:00p 201 0 0 31 44 80.6 65.7 30.07 1.81 0.0 7 0.00 0.00 0.00 0.000
11/22/2014 4:41:00p 201 0 0 31 44 80.6 65.6 30.07 1.81 0.0 5 0.00 0.00 0.00 0.000
11/22/2014 4:42:03p 201 0 1 31 44 80.6 65.7 30.07 1.81 0.0 5 0.00 0.00 0.00 0.000
11/22/2014 4:43:03p 201 0 1 31 44 80.6 65.7 30.07 1.81 0.0 0 0.00 0.00 0.00 0.000
11/22/2014 4:44:09p 201 0 1 31 45 80.6 65.6 30.07 1.81 0.0 0 0.00 0.00 0.00 0.000
11/22/2014 4:45:10p 201 0 1 31 45 80.6 65.6 30.06 1.81 0.0 0 0.00 0.00 0.00 0.000
11/22/2014 4:46:10p 201 0 1 31 45 80.6 65.5 30.06 1.81 0.0 0 0.00 0.00 0.00 0.000
11/22/2014 4:47:10p 201 0 1 31 45 80.6 65.5 30.06 1.81 0.0 0 0.00 0.00 0.00 0.000
11/22/2014 4:48:10p 201 0 1 31 45 80.6 65.4 30.06 1.81 0.0 0 0.00 0.00 0.00 0.000
11/22/2014 4:49:10p 201 0 0 31 45 80.6 65.4 30.06 1.81 0.0 0 0.00 0.00 0.00 0.000
11/22/2014 4:50:13p 201 0 0 31 45 80.6 65.3 30.07 1.81 0.0 0 0.00 0.00 0.00 0.000
11/22/2014 4:51:13p 201 0 0 31 45 80.6 65.3 30.07 1.81 0.0 0 0.00 0.00 0.00 0.000
11/22/2014 4:52:14p 201 0 0 31 45 80.6 65.3 30.07 1.81 0.0 0 0.00 0.00 0.00 0.000
11/22/2014 4:53:14p 201 0 0 31 45 80.6 65.2 30.06 1.81 0.0 0 0.00 0.00 0.00 0.000
11/22/2014 4:54:14p 201 0 0 31 45 80.6 65.2 30.07 1.81 0.0 0 0.00 0.00 0.00 0.000
11/22/2014 4:55:14p 201 0 0 31 45 80.6 65.2 30.06 1.81 0.0 0 0.00 0.00 0.00 0.000
11/22/2014 4:56:14p 201 0 0 31 45 80.6 65.0 30.06 1.81 0.0 0 0.00 0.00 0.00 0.000
11/22/2014 4:57:15p 201 0 0 31 46 80.6 64.6 30.06 1.81 0.0 0 0.00 0.00 0.00 0.000
11/22/2014 4:58:15p 201 0 0 31 46 80.6 64.2 30.06 1.81 0.0 0 0.00 0.00 0.00 0.000
11/22/2014 4:59:15p 201 0 0 31 47 80.6 63.8 30.06 1.81 0.0 0 0.00 0.00 0.00 0.000
11/22/2014 5:00:15p 201 0 0 31 48 80.6 63.5 30.06 1.81 0.0 0 0.00 0.00 0.00 0.000
11/22/2014 5:01:15p 201 0 0 31 48 80.6 63.2 30.06 1.81 0.0 0 0.00 0.00 0.00 0.000
11/22/2014 5:02:15p 328 3 3 31 48 80.6 62.9 30.06 1.81 0.0 0 0.00 0.00 0.00 0.000
11/22/2014 5:03:15p 328 3 3 31 49 80.6 62.8 30.06 1.81 0.0 0 0.00 0.00 0.00 0.000
11/22/2014 5:04:15p 328 3 3 31 49 80.6 62.7 30.07 1.81 0.0 0 0.00 0.00 0.00 0.000
11/22/2014 5:05:15p 328 2 4 31 49 80.6 62.6 30.07 1.81 0.0 0 0.00 0.00 0.00 0.000
11/22/2014 5:06:15p 328 1 4 31 49 80.6 62.5 30.07 1.81 0.0 0 0.00 0.00 0.00 0.000
11/22/2014 5:07:15p 328 1 4 31 49 80.6 62.4 30.07 1.81 0.0 0 0.00 0.00 0.00 0.000
11/22/2014 5:08:16p 328 1 4 31 50 80.6 62.2 30.07 1.81 0.0 0 0.00 0.00 0.00 0.000
11/22/2014 5:09:16p 328 0 4 31 50 80.6 62.0 30.07 1.81 0.0 0 0.00 0.00 0.00 0.000
11/22/2014 5:10:16p 328 2 4 31 50 80.6 61.9 30.07 1.81 0.0 0 0.00 0.00 0.00 0.000
11/22/2014 5:11:19p 328 2 4 31 50 80.6 61.7 30.07 1.81 0.0 0 0.00 0.00 0.00 0.000
11/22/2014 5:12:22p 328 2 4 31 51 80.6 61.6 30.07 1.81 0.0 0 0.00 0.00 0.00 0.000
11/22/2014 5:13:22p 328 2 4 31 51 80.6 61.5 30.07 1.81 0.0 0 0.00 0.00 0.00 0.000
11/22/2014 5:14:22p 328 2 4 31 51 80.4 61.4 30.07 1.81 0.0 0 0.00 0.00 0.00 0.000
11/22/2014 5:15:22p 328 2 4 31 51 80.4 61.4 30.07 1.81 0.0 0 0.00 0.00 0.00 0.000
11/22/2014 5:16:28p 328 1 4 31 52 80.4 61.3 30.08 1.81 0.0 0 0.00 0.00 0.00 0.000
11/22/2014 5:17:28p 328 0 4 31 52 80.4 61.3 30.08 1.81 0.0 0 0.00 0.00 0.00 0.000
11/22/2014 5:18:28p 328 1 4 31 52 80.4 61.2 30.08 1.81 0.0 0 0.00 0.00 0.00 0.000
11/22/2014 5:19:31p 328 2 3 31 52 80.4 61.2 30.08 1.81 0.0 0 0.00 0.00 0.00 0.000
11/22/2014 5:20:32p 328 2 3 31 52 80.4 61.2 30.08 1.81 0.0 0 0.00 0.00 0.00 0.000
11/22/2014 5:21:32p 328 2 3 31 52 80.4 61.2 30.08 1.81 0.0 0 0.00 0.00 0.00 0.000
11/22/2014 5:22:32p 328 3 4 31 52 80.4 61.1 30.08 1.81 0.0 0 0.00 0.00 0.00 0.000
11/22/2014 5:23:32p 328 3 4 31 52 80.4 61.1 30.08 1.81 0.0 0 0.00 0.00 0.00 0.000
11/22/2014 5:24:32p 328 3 4 31 52 80.4 61.1 30.08 1.81 0.0 0 0.00 0.00 0.00 0.000
11/22/2014 5:25:35p 328 3 4 31 52 80.2 61.0 30.09 1.81 0.0 0 0.00 0.00 0.00 0.000
11/22/2014 5:26:35p 328 4 4 31 52 80.2 61.0 30.09 1.81 0.0 0 0.00 0.00 0.00 0.000
11/22/2014 5:27:35p 328 3 4 31 52 80.2 60.9 30.09 1.81 0.0 0 0.00 0.00 0.00 0.000
11/22/2014 5:28:35p 328 2 4 31 52 80.2 60.8 30.09 1.81 0.0 0 0.00 0.00 0.00 0.000
11/22/2014 5:29:35p 328 2 4 31 52 80.2 60.7 30.09 1.81 0.0 0 0.00 0.00 0.00 0.000
11/22/2014 5:30:35p 328 2 4 31 52 80.2 60.6 30.08 1.81 0.0 0 0.00 0.00 0.00 0.000
11/22/2014 5:31:35p 328 2 4 31 52 80.2 60.6 30.08 1.81 0.0 0 0.00 0.00 0.00 0.000
11/22/2014 5:32:35p 328 1 4 31 53 80.2 60.5 30.08 1.81 0.0 0 0.00 0.00 0.00 0.000
11/22/2014 5:33:36p 328 0 1 31 53 80.2 60.5 30.08 1.81 0.0 0 0.00 0.00 0.00 0.000
11/22/2014 5:34:36p 328 0 1 31 53 80.2 60.5 30.08 1.81 0.0 0 0.00 0.00 0.00 0.000
11/22/2014 5:35:36p 328 0 2 31 53 80.2 60.4 30.09 1.81 0.0 0 0.00 0.00 0.00 0.000
11/22/2014 5:36:39p 328 1 2 31 53 80.2 60.3 30.09 1.81 0.0 0 0.00 0.00 0.00 0.000
11/22/2014 5:37:39p 328 0 2 31 54 80.1 60.2 30.08 1.81 0.0 0 0.00 0.00 0.00 0.000
11/22/2014 5:38:42p 328 2 3 31 54 80.1 60.2 30.08 1.81 0.0 0 0.00 0.00 0.00 0.000
11/22/2014 5:39:42p 329 3 3 31 54 80.1 60.1 30.09 1.81 0.0 0 0.00 0.00 0.00 0.000
11/22/2014 5:40:42p 329 2 3 31 54 80.1 60.1 30.09 1.81 0.0 0 0.00 0.00 0.00 0.000
11/22/2014 5:41:42p 328 2 3 31 54 80.1 60.0 30.08 1.81 0.0 0 0.00 0.00 0.00 0.000
11/22/2014 5:42:42p 329 1 3 31 55 80.1 59.9 30.09 1.81 0.0 0 0.00 0.00 0.00 0.000
11/22/2014 5:43:45p 329 0 3 31 55 80.1 59.8 30.09 1.81 0.0 0 0.00 0.00 0.00 0.000
11/22/2014 5:44:45p 329 0 3 31 56 80.1 59.8 30.09 1.81 0.0 0 0.00 0.00 0.00 0.000
11/22/2014 5:45:46p 329 0 3 31 56 80.1 59.8 30.08 1.81 0.0 0 0.00 0.00 0.00 0.000
11/22/2014 5:46:46p 329 0 3 31 56 79.9 59.8 30.08 1.81 0.0 0 0.00 0.00 0.00 0.000
11/22/2014 5:47:46p 329 0 3 31 56 79.9 59.8 30.08 1.81 0.0 0 0.00 0.00 0.00 0.000
11/22/2014 5:48:46p 329 2 3 31 56 79.9 59.9 30.08 1.81 0.0 0 0.00 0.00 0.00 0.000
11/22/2014 5:49:46p 329 1 3 31 56 79.9 60.0 30.08 1.81 0.0 0 0.00 0.00 0.00 0.000
11/22/2014 5:50:46p 329 2 3 31 57 79.9 60.0 30.08 1.81 0.0 0 0.00 0.00 0.00 0.000
11/22/2014 5:51:46p 329 2 3 31 57 79.9 60.0 30.08 1.81 0.0 0 0.00 0.00 0.00 0.000
11/22/2014 5:52:46p 329 0 3 31 57 79.9 60.0 30.08 1.81 0.0 0 0.00 0.00 0.00 0.000
11/22/2014 5:53:46p 329 0 3 31 57 79.9 60.0 30.08 1.81 0.0 0 0.00 0.00 0.00 0.000
11/22/2014 5:54:46p 329 0 3 31 57 79.9 60.0 30.08 1.81 0.0 0 0.00 0.00 0.00 0.000
11/22/2014 5:55:46p 329 0 3 31 57 79.9 60.0 30.08 1.81 0.0 0 0.00 0.00 0.00 0.000
11/22/2014 5:56:52p 329 0 3 31 57 79.7 59.9 30.08 1.81 0.0 0 0.00 0.00 0.00 0.000
11/22/2014 5:57:53p 329 0 3 31 57 79.7 59.9 30.08 1.81 0.0 0 0.00 0.00 0.00 0.000
11/22/2014 5:58:53p 329 1 3 31 57 79.7 59.9 30.08 1.81 0.0 0 0.00 0.00 0.00 0.000
11/22/2014 5:59:53p 329 1 3 31 57 79.7 59.9 30.08 1.81 0.0 0 0.00 0.00 0.00 0.000
11/22/2014 6:00:53p 329 1 3 31 58 79.7 60.0 30.08 1.81 0.0 0 0.00 0.00 0.00 0.000
11/22/2014 6:01:53p 329 2 3 31 58 79.7 60.1 30.08 1.81 0.0 0 0.00 0.00 0.00 0.000
11/22/2014 6:02:53p 329 2 3 31 58 79.7 60.1 30.09 1.81 0.0 0 0.00 0.00 0.00 0.000
11/22/2014 6:03:53p 329 2 3 31 58 79.7 60.0 30.09 1.81 0.0 0 0.00 0.00 0.00 0.000
11/22/2014 6:04:53p 329 0 3 31 57 79.5 59.9 30.09 1.81 0.0 0 0.00 0.00 0.00 0.000
11/22/2014 6:05:53p 329 0 3 31 58 79.5 59.8 30.09 1.81 0.0 0 0.00 0.00 0.00 0.000
11/22/2014 6:06:53p 329 0 3 31 58 79.5 59.6 30.09 1.81 0.0 0 0.00 0.00 0.00 0.000
11/22/2014 6:07:53p 329 0 3 31 59 79.5 59.5 30.09 1.81 0.0 0 0.00 0.00 0.00 0.000
11/22/2014 6:08:53p 329 0 3 31 59 79.5 59.4 30.09 1.81 0.0 0 0.00 0.00 0.00 0.000
11/22/2014 6:09:54p 329 0 3 31 59 79.5 59.4 30.09 1.81 0.0 0 0.00 0.00 0.00 0.000
11/22/2014 6:10:54p 329 1 3 31 59 79.5 59.4 30.09 1.81 0.0 0 0.00 0.00 0.00 0.000
11/22/2014 6:11:54p 329 0 3 31 59 79.5 59.5 30.09 1.81 0.0 0 0.00 0.00 0.00 0.000
11/22/2014 6:12:54p 329 0 3 31 59 79.3 59.6 30.08 1.81 0.0 0 0.00 0.00 0.00 0.000
11/22/2014 6:13:54p 329 0 3 31 59 79.3 59.6 30.08 1.81 0.0 0 0.00 0.00 0.00 0.000
11/22/2014 6:14:54p 329 0 3 31 59 79.3 59.7 30.08 1.81 0.0 0 0.00 0.00 0.00 0.000
11/22/2014 6:15:54p 329 0 3 31 59 79.3 59.6 30.08 1.81 0.0 0 0.00 0.00 0.00 0.000
11/22/2014 6:16:54p 329 0 3 31 59 79.3 59.7 30.08 1.81 0.0 0 0.00 0.00 0.00 0.000
11/22/2014 6:17:54p 329 0 3 31 59 79.3 59.6 30.08 1.81 0.0 0 0.00 0.00 0.00 0.000
11/22/2014 6:18:54p 329 0 0 31 59 79.3 59.5 30.08 1.81 0.0 0 0.00 0.00 0.00 0.000
11/22/2014 6:19:54p 329 0 0 31 59 79.3 59.4 30.09 1.81 0.0 0 0.00 0.00 0.00 0.000
11/22/2014 6:20:57p 329 3 3 31 59 79.1 59.3 30.09 1.81 0.0 0 0.00 0.00 0.00 0.000
11/22/2014 6:21:57p 349 4 4 31 59 79.1 59.3 30.09 1.81 0.0 0 0.00 0.00 0.00 0.000
11/22/2014 6:23:00p 349 3 4 31 59 79.1 59.3 30.09 1.81 0.0 0 0.00 0.00 0.00 0.000
11/22/2014 6:24:00p 349 2 4 31 59 79.1 59.3 30.09 1.81 0.0 0 0.00 0.00 0.00 0.000
11/22/2014 6:25:00p 349 0 4 31 60 79.1 59.3 30.09 1.81 0.0 0 0.00 0.00 0.00 0.000
11/22/2014 6:26:01p 349 0 4 31 60 79.1 59.3 30.09 1.81 0.0 0 0.00 0.00 0.00 0.000
11/22/2014 6:27:01p 349 0 4 31 60 79.1 59.2 30.09 1.81 0.0 0 0.00 0.00 0.00 0.000
11/22/2014 6:28:01p 349 1 4 31 61 79.1 59.0 30.09 1.81 0.0 0 0.00 0.00 0.00 0.000
11/22/2014 6:29:01p 349 0 4 31 61 78.9 58.9 30.09 1.81 0.0 0 0.00 0.00 0.00 0.000
11/22/2014 6:30:01p 349 0 4 31 61 78.9 58.8 30.09 1.81 0.0 0 0.00 0.00 0.00 0.000
11/22/2014 6:31:01p 349 0 4 31 61 78.9 58.7 30.09 1.81 0.0 0 0.00 0.00 0.00 0.000
11/22/2014 6:32:01p 349 0 4 31 61 78.9 58.5 30.09 1.81 0.0 0 0.00 0.00 0.00 0.000
11/22/2014 6:33:01p 349 0 4 31 62 78.9 58.4 30.09 1.81 0.0 0 0.00 0.00 0.00 0.000
11/22/2014 6:34:01p 349 0 0 31 62 78.9 58.3 30.09 1.81 0.0 0 0.00 0.00 0.00 0.000
11/22/2014 6:35:01p 349 0 0 31 62 78.9 58.3 30.09 1.81 0.0 0 0.00 0.00 0.00 0.000
11/22/2014 6:36:01p 349 0 0 31 63 78.8 58.2 30.09 1.81 0.0 0 0.00 0.00 0.00 0.000
11/22/2014 6:37:01p 349 0 0 31 63 78.8 58.2 30.09 1.81 0.0 0 0.00 0.00 0.00 0.000
11/22/2014 6:38:04p 349 1 2 31 63 78.8 58.1 30.09 1.81 0.0 0 0.00 0.00 0.00 0.000
11/22/2014 6:39:04p 349 2 3 31 63 78.8 58.1 30.09 1.81 0.0 0 0.00 0.00 0.00 0.000
11/22/2014 6:40:05p 349 0 3 31 63 78.8 58.0 30.09 1.81 0.0 0 0.00 0.00 0.00 0.000
11/22/2014 6:42:05p 349 0 3 31 63 78.8 58.0 30.09 1.81 0.0 0 0.00 0.00 0.00 0.000
11/22/2014 6:43:05p 349 0 3 31 63 78.8 58.0 30.09 1.81 0.0 0 0.00 0.00 0.00 0.000
11/22/2014 6:44:05p 349 1 3 31 63 78.6 58.1 30.09 1.81 0.0 0 0.00 0.00 0.00 0.000
11/22/2014 6:45:05p 349 4 4 31 63 78.6 58.0 30.09 1.81 0.0 0 0.00 0.00 0.00 0.000
11/22/2014 6:46:05p 349 3 4 31 63 78.6 58.0 30.09 1.81 0.0 0 0.00 0.00 0.00 0.000
11/22/2014 6:48:05p 349 2 5 31 64 78.6 57.9 30.09 1.81 0.0 0 0.00 0.00 0.00 0.000
11/22/2014 6:49:14p 350 1 2 31 64 78.6 57.8 30.09 1.81 0.0 0 0.00 0.00 0.00 0.000
11/22/2014 6:50:15p 350 2 2 31 64 78.6 57.8 30.09 1.81 0.0 0 0.00 0.00 0.00 0.000
11/22/2014 6:51:18p 350 2 2 31 64 78.6 57.7 30.09 1.81 0.0 0 0.00 0.00 0.00 0.000
11/22/2014 6:52:19p 349 2 2 31 64 78.4 57.6 30.09 1.81 0.0 0 0.00 0.00 0.00 0.000
11/22/2014 6:53:19p 350 2 3 31 65 78.4 57.6 30.09 1.81 0.0 0 0.00 0.00 0.00 0.000
11/22/2014 6:54:19p 349 0 3 31 65 78.4 57.5 30.09 1.81 0.0 0 0.00 0.00 0.00 0.000
11/22/2014 6:55:19p 349 0 3 31 65 78.4 57.6 30.09 1.81 0.0 0 0.00 0.00 0.00 0.000
11/22/2014 6:56:19p 350 0 3 31 66 78.4 57.5 30.09 1.81 0.0 0 0.00 0.00 0.00 0.000
11/22/2014 6:57:19p 349 1 3 31 66 78.4 57.4 30.09 1.81 0.0 0 0.00 0.00 0.00 0.000
11/22/2014 6:58:19p 349 2 3 31 66 78.4 57.4 30.09 1.81 0.0 0 0.00 0.00 0.00 0.000
11/22/2014 6:59:19p 350 0 3 31 66 78.2 57.3 30.10 1.81 0.0 0 0.00 0.00 0.00 0.000
11/22/2014 7:00:19p 350 0 3 31 66 78.2 57.2 30.10 1.81 0.0 0 0.00 0.00 0.00 0.000
11/22/2014 7:01:19p 350 0 3 31 66 78.2 57.2 30.10 1.81 0.0 0 0.00 0.00 0.00 0.000
11/22/2014 7:02:19p 350 0 3 31 67 78.2 57.1 30.09 1.81 0.0 0 0.00 0.00 0.00 0.000
11/22/2014 7:03:22p 350 0 3 31 67 78.2 57.0 30.09 1.81 0.0 0 0.00 0.00 0.00 0.000
11/22/2014 7:04:22p 350 0 0 31 67 78.2 56.9 30.08 1.81 0.0 0 0.00 0.00 0.00 0.000
11/22/2014 7:05:22p 350 0 1 31 67 78.2 56.8 30.08 1.81 0.0 0 0.00 0.00 0.00 0.000
11/22/2014 7:06:26p 349 0 1 31 67 78.1 56.7 30.08 1.81 0.0 0 0.00 0.00 0.00 0.000
11/22/2014 7:07:32p 350 0 1 31 68 78.1 56.7 30.08 1.81 0.0 0 0.00 0.00 0.00 0.000
11/22/2014 7:08:32p 350 0 1 31 68 78.1 56.7 30.08 1.81 0.0 0 0.00 0.00 0.00 0.000
11/22/2014 7:09:32p 349 0 1 31 68 78.1 56.6 30.08 1.81 0.0 0 0.00 0.00 0.00 0.000
11/22/2014 7:10:32p 350 0 1 31 69 78.1 56.6 30.08 1.81 0.0 0 0.00 0.00 0.00 0.000
11/22/2014 7:11:32p 349 0 1 31 69 77.9 56.6 30.08 1.81 0.0 0 0.00 0.00 0.00 0.000
11/22/2014 7:12:32p 349 0 1 31 69 77.9 56.5 30.08 1.81 0.0 0 0.00 0.00 0.00 0.000
11/22/2014 7:13:32p 349 0 1 31 69 77.9 56.4 30.09 1.81 0.0 0 0.00 0.00 0.00 0.000
11/22/2014 7:14:32p 350 0 1 31 69 77.9 56.4 30.09 1.81 0.0 0 0.00 0.00 0.00 0.000
11/22/2014 7:15:32p 349 0 1 31 69 77.9 56.3 30.09 1.81 0.0 0 0.00 0.00 0.00 0.000
11/22/2014 7:16:32p 350 0 1 31 69 77.9 56.3 30.08 1.81 0.0 0 0.00 0.00 0.00 0.000
11/22/2014 7:17:32p 349 0 1 31 70 77.9 56.2 30.08 1.81 0.0 0 0.00 0.00 0.00 0.000
11/22/2014 7:18:33p 349 0 0 31 70 77.7 56.1 30.08 1.81 0.0 0 0.00 0.00 0.00 0.000
11/22/2014 7:20:33p 349 1 1 31 70 77.7 56.0 30.09 1.81 0.0 0 0.00 0.00 0.00 0.000
11/22/2014 7:21:36p 349 0 1 31 70 77.7 55.9 30.09 1.81 0.0 0 0.00 0.00 0.00 0.000
11/22/2014 7:22:36p 349 0 1 31 71 77.7 55.9 30.09 1.81 0.0 0 0.00 0.00 0.00 0.000
11/22/2014 7:23:39p 349 0 1 31 71 77.7 55.9 30.09 1.81 0.0 0 0.00 0.00 0.00 0.000
11/22/2014 7:24:39p 349 0 1 31 71 77.5 55.9 30.09 1.81 0.0 0 0.00 0.00 0.00 0.000
11/22/2014 7:25:39p 349 0 1 31 71 77.5 56.0 30.09 1.81 0.0 0 0.00 0.00 0.00 0.000
11/22/2014 7:26:39p 350 0 1 31 71 77.5 55.9 30.09 1.81 0.0 0 0.00 0.00 0.00 0.000
11/22/2014 7:27:39p 350 0 1 31 71 77.5 55.9 30.09 1.81 0.0 0 0.00 0.00 0.00 0.000
11/22/2014 7:28:42p 350 0 1 31 71 77.5 55.9 30.09 1.81 0.0 0 0.00 0.00 0.00 0.000
11/22/2014 7:29:42p 350 0 1 31 71 77.5 55.9 30.09 1.81 0.0 0 0.00 0.00 0.00 0.000
11/22/2014 7:30:42p 350 0 1 31 72 77.3 55.9 30.09 1.81 0.0 0 0.00 0.00 0.00 0.000
11/22/2014 7:31:42p 350 0 1 31 71 77.3 55.9 30.09 1.81 0.0 0 0.00 0.00 0.00 0.000
11/22/2014 7:32:43p 349 1 2 31 71 77.3 55.9 30.09 1.81 0.0 0 0.00 0.00 0.00 0.000
11/22/2014 7:33:43p 350 0 0 31 71 77.3 55.9 30.09 1.81 0.0 0 0.00 0.00 0.00 0.000
11/22/2014 7:34:43p 350 0 0 31 72 77.3 55.9 30.09 1.81 0.0 0 0.00 0.00 0.00 0.000
11/22/2014 7:35:43p 350 0 0 31 72 77.3 55.9 30.09 1.81 0.0 0 0.00 0.00 0.00 0.000
11/22/2014 7:36:43p 350 0 0 31 72 77.3 55.9 30.09 1.81 0.0 0 0.00 0.00 0.00 0.000
11/22/2014 7:37:43p 350 3 3 31 72 77.2 55.9 30.10 1.81 0.0 0 0.00 0.00 0.00 0.000
11/22/2014 7:38:43p 349 0 3 31 72 77.2 56.0 30.10 1.81 0.0 0 0.00 0.00 0.00 0.000
11/22/2014 7:39:43p 350 2 3 31 72 77.2 56.0 30.09 1.81 0.0 0 0.00 0.00 0.00 0.000
11/22/2014 7:40:43p 349 3 3 31 72 77.2 56.0 30.09 1.81 0.0 0 0.00 0.00 0.00 0.000
11/22/2014 7:41:43p 349 0 3 31 72 77.2 56.1 30.09 1.81 0.0 0 0.00 0.00 0.00 0.000
11/22/2014 7:42:43p 349 0 3 31 72 77.2 56.2 30.09 1.81 0.0 0 0.00 0.00 0.00 0.000
11/22/2014 7:43:49p 350 1 3 31 72 77.0 56.3 30.09 1.81 0.0 0 0.00 0.00 0.00 0.000
11/22/2014 7:44:49p 349 0 3 31 72 77.0 56.4 30.09 1.81 0.0 0 0.00 0.00 0.00 0.000
11/22/2014 7:45:49p 350 0 3 31 72 77.0 56.4 30.09 1.81 0.0 0 0.00 0.00 0.00 0.000
11/22/2014 7:46:50p 349 0 3 31 72 77.0 56.4 30.08 1.81 0.0 0 0.00 0.00 0.00 0.000
11/22/2014 7:47:50p 350 0 3 31 72 77.0 56.4 30.09 1.81 0.0 0 0.00 0.00 0.00 0.000
11/22/2014 7:48:50p 350 0 0 31 72 77.0 56.5 30.09 1.81 0.0 0 0.00 0.00 0.00 0.000
11/22/2014 7:49:53p 350 0 0 31 72 77.0 56.6 30.09 1.81 0.0 0 0.00 0.00 0.00 0.000
11/22/2014 7:50:53p 350 0 0 31 72 76.8 56.6 30.09 1.81 0.0 0 0.00 0.00 0.00 0.000
11/22/2014 7:51:53p 350 0 0 31 72 76.8 56.6 30.09 1.81 0.0 0 0.00 0.00 0.00 0.000
11/22/2014 7:52:53p 350 0 0 31 74 76.8 56.6 30.09 1.81 0.0 0 0.00 0.00 0.00 0.000
11/22/2014 7:53:53p 349 0 0 31 72 76.8 56.6 30.09 1.81 0.0 0 0.00 0.00 0.00 0.000
11/22/2014 7:54:53p 349 0 0 31 74 76.8 56.6 30.09 1.81 0.0 0 0.00 0.00 0.00 0.000
11/22/2014 7:55:53p 350 0 0 31 72 76.8 56.5 30.09 1.81 0.0 0 0.00 0.00 0.00 0.000
11/22/2014 7:56:53p 350 0 0 31 72 76.6 56.5 30.09 1.81 0.0 0 0.00 0.00 0.00 0.000
11/22/2014 7:58:03p 350 0 0 31 72 76.6 56.3 30.09 1.81 0.0 0 0.00 0.00 0.00 0.000
11/22/2014 7:59:03p 350 0 0 31 72 76.6 56.3 30.09 1.81 0.0 0 0.00 0.00 0.00 0.000
11/22/2014 8:00:03p 349 0 0 31 72 76.6 56.2 30.09 1.81 0.0 0 0.00 0.00 0.00 0.000
11/22/2014 8:01:03p 350 0 0 31 72 76.6 56.2 30.10 1.81 0.0 0 0.00 0.00 0.00 0.000
11/22/2014 8:02:03p 350 0 0 31 72 76.6 56.0 30.09 1.81 0.0 0 0.00 0.00 0.00 0.000
11/22/2014 8:03:03p 349 0 0 31 73 76.6 56.0 30.10 1.81 0.0 0 0.00 0.00 0.00 0.000
11/22/2014 8:04:06p 350 0 0 31 73 76.5 56.0 30.09 1.81 0.0 0 0.00 0.00 0.00 0.000
11/22/2014 8:05:06p 350 0 0 31 73 76.5 55.9 30.09 1.81 0.0 0 0.00 0.00 0.00 0.000
11/22/2014 8:06:06p 350 0 0 31 73 76.5 55.8 30.09 1.81 0.0 0 0.00 0.00 0.00 0.000
11/22/2014 8:07:06p 350 0 0 31 73 76.5 55.8 30.10 1.81 0.0 0 0.00 0.00 0.00 0.000
11/22/2014 8:08:06p 350 0 0 31 73 76.5 55.8 30.09 1.81 0.0 0 0.00 0.00 0.00 0.000
11/22/2014 8:09:06p 349 0 0 31 73 76.5 55.7 30.10 1.81 0.0 0 0.00 0.00 0.00 0.000
11/22/2014 8:10:06p 349 0 0 31 74 76.3 55.6 30.10 1.81 0.0 0 0.00 0.00 0.00 0.000
11/22/2014 8:11:06p 350 0 0 31 74 76.3 55.6 30.10 1.81 0.0 0 0.00 0.00 0.00 0.000
11/22/2014 8:12:09p 349 0 0 31 74 76.3 55.5 30.10 1.81 0.0 0 0.00 0.00 0.00 0.000
11/22/2014 8:13:09p 349 3 3 31 74 76.3 55.5 30.10 1.81 0.0 0 0.00 0.00 0.00 0.000
11/22/2014 8:14:10p 350 2 3 31 74 76.3 55.4 30.10 1.81 0.0 0 0.00 0.00 0.00 0.000
11/22/2014 8:15:10p 350 0 3 31 74 76.3 55.5 30.10 1.81 0.0 0 0.00 0.00 0.00 0.000
11/22/2014 8:16:10p 350 0 3 31 74 76.3 55.5 30.10 1.81 0.0 0 0.00 0.00 0.00 0.000
11/22/2014 8:17:10p 350 0 3 31 75 76.1 55.6 30.09 1.81 0.0 0 0.00 0.00 0.00 0.000
11/22/2014 8:18:10p 350 0 3 31 75 76.1 55.6 30.09 1.81 0.0 0 0.00 0.00 0.00 0.000
11/22/2014 8:19:10p 349 0 0 31 75 76.1 55.6 30.09 1.81 0.0 0 0.00 0.00 0.00 0.000
11/22/2014 8:20:13p 349 1 2 31 75 76.1 55.6 30.10 1.81 0.0 0 0.00 0.00 0.00 0.000
11/22/2014 8:21:13p 349 0 2 31 75 76.1 55.6 30.10 1.81 0.0 0 0.00 0.00 0.00 0.000
11/22/2014 8:22:13p 349 0 2 31 75 76.1 55.6 30.10 1.81 0.0 0 0.00 0.00 0.00 0.000
11/22/2014 8:23:13p 350 0 2 31 75 75.9 55.6 30.09 1.81 0.0 0 0.00 0.00 0.00 0.000
11/22/2014 8:24:16p 350 0 2 31 75 75.9 55.6 30.09 1.81 0.0 0 0.00 0.00 0.00 0.000
11/22/2014 8:25:16p 349 0 2 31 75 75.9 55.6 30.09 1.81 0.0 0 0.00 0.00 0.00 0.000
11/22/2014 8:26:16p 350 0 2 31 75 75.9 55.6 30.09 1.81 0.0 0 0.00 0.00 0.00 0.000
11/22/2014 8:27:19p 350 0 2 31 75 75.9 55.7 30.09 1.81 0.0 0 0.00 0.00 0.00 0.000
11/22/2014 8:28:20p 350 0 2 31 75 75.9 55.7 30.09 1.81 0.0 0 0.00 0.00 0.00 0.000
11/22/2014 8:29:20p 350 0 2 31 75 75.9 55.8 30.09 1.81 0.0 0 0.00 0.00 0.00 0.000
11/22/2014 8:30:20p 349 0 2 31 75 75.8 55.8 30.09 1.81 0.0 0 0.00 0.00 0.00 0.000
11/22/2014 8:31:23p 350 0 2 31 75 75.8 55.8 30.09 1.81 0.0 0 0.00 0.00 0.00 0.000
11/22/2014 8:32:23p 349 0 2 31 75 75.8 55.8 30.09 1.81 0.0 0 0.00 0.00 0.00 0.000
11/22/2014 8:33:23p 350 0 2 31 75 75.8 55.8 30.10 1.81 0.0 0 0.00 0.00 0.00 0.000
11/22/2014 8:34:23p 350 0 0 31 75 75.8 55.8 30.10 1.81 0.0 0 0.00 0.00 0.00 0.000
11/22/2014 8:35:23p 349 0 0 31 75 75.8 55.8 30.10 1.81 0.0 0 0.00 0.00 0.00 0.000
11/22/2014 8:36:23p 349 0 0 31 75 75.8 55.8 30.10 1.81 0.0 0 0.00 0.00 0.00 0.000
11/22/2014 8:37:23p 350 0 0 31 75 75.6 55.8 30.10 1.81 0.0 0 0.00 0.00 0.00 0.000
11/22/2014 8:38:23p 350 0 0 31 75 75.6 55.8 30.10 1.81 0.0 0 0.00 0.00 0.00 0.000
11/22/2014 8:39:23p 350 0 0 31 74 75.6 55.7 30.10 1.81 0.0 0 0.00 0.00 0.00 0.000
11/22/2014 8:40:23p 350 0 1 31 74 75.6 55.6 30.10 1.81 0.0 0 0.00 0.00 0.00 0.000
11/22/2014 8:41:24p 349 0 1 31 74 75.6 55.4 30.10 1.81 0.0 0 0.00 0.00 0.00 0.000
11/22/2014 8:42:24p 349 0 1 31 74 75.6 55.4 30.10 1.81 0.0 0 0.00 0.00 0.00 0.000
11/22/2014 8:43:24p 350 0 1 31 74 75.6 55.3 30.10 1.81 0.0 0 0.00 0.00 0.00 0.000
11/22/2014 8:44:24p 350 0 1 31 74 75.4 55.2 30.10 1.81 0.0 0 0.00 0.00 0.00 0.000
11/22/2014 8:45:24p 350 1 1 31 75 75.4 55.1 30.10 1.81 0.0 0 0.00 0.00 0.00 0.000
11/22/2014 8:46:24p 350 0 1 31 75 75.4 55.1 30.10 1.81 0.0 0 0.00 0.00 0.00 0.000
11/22/2014 8:47:24p 350 0 1 31 75 75.4 55.0 30.10 1.81 0.0 0 0.00 0.00 0.00 0.000
11/22/2014 8:48:24p 350 0 1 31 75 75.4 55.0 30.10 1.81 0.0 0 0.00 0.00 0.00 0.000
11/22/2014 8:49:24p 349 0 1 31 75 75.4 54.9 30.10 1.81 0.0 0 0.00 0.00 0.00 0.000
11/22/2014 8:50:25p 350 2 2 31 75 75.2 54.8 30.11 1.81 0.0 0 0.00 0.00 0.00 0.000
11/22/2014 8:51:25p 349 0 3 31 75 75.2 54.7 30.11 1.81 0.0 0 0.00 0.00 0.00 0.000
11/22/2014 8:52:25p 350 0 3 31 75 75.2 54.7 30.11 1.81 0.0 0 0.00 0.00 0.00 0.000
11/22/2014 8:53:28p 349 1 3 31 75 75.2 54.3 30.10 1.81 0.0 0 0.00 0.00 0.00 0.000
11/22/2014 8:54:28p 350 0 3 31 75 75.2 54.0 30.11 1.81 0.0 0 0.00 0.00 0.00 0.000
11/22/2014 8:55:29p 350 0 3 31 74 75.2 53.8 30.11 1.81 0.0 0 0.00 0.00 0.00 0.000
11/22/2014 8:56:29p 349 1 3 31 75 75.1 53.6 30.11 1.81 0.0 0 0.00 0.00 0.00 0.000
11/22/2014 8:57:29p 350 0 3 31 75 75.1 53.6 30.11 1.81 0.0 0 0.00 0.00 0.00 0.000
11/22/2014 8:58:29p 350 0 3 31 76 75.1 53.6 30.11 1.81 0.0 0 0.00 0.00 0.00 0.000
11/22/2014 8:59:29p 349 0 3 31 76 75.1 53.6 30.11 1.81 0.0 0 0.00 0.00 0.00 0.000
11/22/2014 9:00:29p 349 0 3 31 76 75.1 53.6 30.11 1.81 0.0 0 0.00 0.00 0.00 0.000
11/22/2014 9:01:29p 350 0 3 31 76 75.1 53.7 30.11 1.81 0.0 0 0.00 0.00 0.00 0.000
11/22/2014 9:02:29p 350 0 3 31 77 75.1 53.7 30.11 1.81 0.0 0 0.00 0.00 0.00 0.000
11/22/2014 9:03:32p 350 0 3 31 77 74.9 53.7 30.10 1.81 0.0 0 0.00 0.00 0.00 0.000
11/22/2014 9:04:32p 350 0 0 31 77 74.9 53.7 30.10 1.81 0.0 0 0.00 0.00 0.00 0.000
11/22/2014 9:05:32p 350 0 0 31 77 74.9 53.8 30.10 1.81 0.0 0 0.00 0.00 0.00 0.000
11/22/2014 9:06:35p 350 0 0 31 77 74.9 53.8 30.10 1.81 0.0 0 0.00 0.00 0.00 0.000
11/22/2014 9:07:35p 350 0 0 31 77 74.9 53.7 30.10 1.81 0.0 0 0.00 0.00 0.00 0.000
11/22/2014 9:08:35p 350 0 0 31 77 74.9 53.6 30.10 1.81 0.0 0 0.00 0.00 0.00 0.000
11/22/2014 9:09:35p 350 0 0 31 77 74.9 53.6 30.10 1.81 0.0 0 0.00 0.00 0.00 0.000
11/22/2014 9:10:36p 349 0 0 31 77 74.7 53.5 30.10 1.81 0.0 0 0.00 0.00 0.00 0.000
11/22/2014 9:11:36p 349 0 0 31 77 74.7 53.5 30.10 1.81 0.0 0 0.00 0.00 0.00 0.000
11/22/2014 9:12:39p 349 0 0 31 77 74.7 53.5 30.10 1.81 0.0 0 0.00 0.00 0.00 0.000
11/22/2014 9:13:39p 350 0 0 31 77 74.7 53.5 30.10 1.81 0.0 0 0.00 0.00 0.00 0.000
11/22/2014 9:14:39p 350 0 0 31 77 74.7 53.4 30.10 1.81 0.0 0 0.00 0.00 0.00 0.000
11/22/2014 9:15:39p 349 0 0 31 78 74.7 53.3 30.10 1.81 0.0 0 0.00 0.00 0.00 0.000
11/22/2014 9:16:39p 350 0 0 31 77 74.7 53.3 30.10 1.81 0.0 0 0.00 0.00 0.00 0.000
11/22/2014 9:17:39p 350 0 0 31 78 74.5 53.3 30.10 1.81 0.0 0 0.00 0.00 0.00 0.000
11/22/2014 9:18:39p 350 0 0 31 78 74.5 53.3 30.11 1.81 0.0 0 0.00 0.00 0.00 0.000
11/22/2014 9:19:39p 350 0 0 31 78 74.5 53.4 30.11 1.81 0.0 0 0.00 0.00 0.00 0.000
11/22/2014 9:20:39p 349 0 0 31 78 74.5 53.4 30.11 1.81 0.0 0 0.00 0.00 0.00 0.000
11/22/2014 9:21:39p 349 0 0 31 78 74.5 53.4 30.11 1.81 0.0 0 0.00 0.00 0.00 0.000
11/22/2014 9:22:40p 349 0 0 31 78 74.5 53.4 30.11 1.81 0.0 0 0.00 0.00 0.00 0.000
11/22/2014 9:23:43p 350 0 0 31 78 74.5 53.4 30.11 1.81 0.0 0 0.00 0.00 0.00 0.000
11/22/2014 9:24:43p 350 0 0 31 78 74.4 53.4 30.11 1.81 0.0 0 0.00 0.00 0.00 0.000
11/22/2014 9:25:43p 350 0 0 31 78 74.4 53.4 30.11 1.81 0.0 0 0.00 0.00 0.00 0.000
11/22/2014 9:26:43p 350 0 0 31 78 74.4 53.4 30.11 1.81 0.0 0 0.00 0.00 0.00 0.000
11/22/2014 9:27:46p 350 0 0 31 79 74.4 53.5 30.11 1.81 0.0 0 0.00 0.00 0.00 0.000
11/22/2014 9:28:46p 350 0 0 31 79 74.4 53.5 30.11 1.81 0.0 0 0.00 0.00 0.00 0.000
11/22/2014 9:29:46p 350 0 1 31 79 74.4 53.5 30.11 1.81 0.0 0 0.00 0.00 0.00 0.000
11/22/2014 9:30:46p 349 0 1 31 79 74.4 53.6 30.11 1.81 0.0 0 0.00 0.00 0.00 0.000
11/22/2014 9:31:46p 349 0 1 31 79 74.2 53.6 30.11 1.81 0.0 0 0.00 0.00 0.00 0.000
11/22/2014 9:32:46p 349 0 1 31 79 74.2 53.6 30.11 1.81 0.0 0 0.00 0.00 0.00 0.000
11/22/2014 9:33:46p 349 0 0 31 79 74.2 53.6 30.11 1.81 0.0 0 0.00 0.00 0.00 0.000
11/22/2014 9:34:46p 350 0 0 31 79 74.2 53.5 30.11 1.81 0.0 0 0.00 0.00 0.00 0.000
11/22/2014 9:35:47p 350 0 0 31 79 74.2 53.4 30.11 1.81 0.0 0 0.00 0.00 0.00 0.000
11/22/2014 9:36:47p 350 0 0 31 79 74.2 53.2 30.11 1.81 0.0 0 0.00 0.00 0.00 0.000
11/22/2014 9:37:47p 349 0 0 31 79 74.2 53.2 30.11 1.81 0.0 0 0.00 0.00 0.00 0.000
11/22/2014 9:38:50p 350 0 0 31 79 74.0 53.1 30.11 1.81 0.0 0 0.00 0.00 0.00 0.000
11/22/2014 9:39:50p 350 0 0 31 79 74.0 53.1 30.11 1.81 0.0 0 0.00 0.00 0.00 0.000
11/22/2014 9:40:50p 349 0 0 31 79 74.0 53.0 30.11 1.81 0.0 0 0.00 0.00 0.00 0.000
11/22/2014 9:41:50p 349 0 0 31 79 74.0 53.0 30.11 1.81 0.0 0 0.00 0.00 0.00 0.000
11/22/2014 9:42:50p 350 0 0 31 79 74.0 52.9 30.11 1.81 0.0 0 0.00 0.00 0.00 0.000
11/22/2014 9:43:50p 350 0 0 31 79 74.0 52.9 30.11 1.81 0.0 0 0.00 0.00 0.00 0.000
11/22/2014 9:44:50p 350 0 0 31 80 74.0 52.9 30.11 1.81 0.0 0 0.00 0.00 0.00 0.000
11/22/2014 9:45:51p 350 0 0 31 80 73.9 52.9 30.11 1.81 0.0 0 0.00 0.00 0.00 0.000
11/22/2014 9:46:51p 350 0 0 31 80 73.9 52.9 30.11 1.81 0.0 0 0.00 0.00 0.00 0.000
11/22/2014 9:47:51p 350 0 0 31 80 73.9 52.9 30.10 1.81 0.0 0 0.00 0.00 0.00 0.000
11/22/2014 9:48:51p 349 0 0 31 80 73.9 52.9 30.10 1.81 0.0 0 0.00 0.00 0.00 0.000
11/22/2014 9:49:51p 349 0 0 31 80 73.9 52.9 30.11 1.81 0.0 0 0.00 0.00 0.00 0.000
11/22/2014 9:50:54p 349 0 0 31 80 73.9 52.9 30.11 1.81 0.0 0 0.00 0.00 0.00 0.000
11/22/2014 9:51:54p 350 0 0 31 80 73.7 52.9 30.11 1.81 0.0 0 0.00 0.00 0.00 0.000
11/22/2014 9:52:54p 350 0 0 31 80 73.7 53.0 30.11 1.81 0.0 0 0.00 0.00 0.00 0.000
11/22/2014 9:53:54p 350 0 0 31 81 73.7 53.0 30.10 1.81 0.0 0 0.00 0.00 0.00 0.000
11/22/2014 9:54:54p 350 0 0 31 81 73.7 53.0 30.10 1.81 0.0 0 0.00 0.00 0.00 0.000
11/22/2014 9:55:54p 350 0 0 31 81 73.7 53.0 30.10 1.81 0.0 0 0.00 0.00 0.00 0.000
11/22/2014 9:56:54p 349 0 0 31 81 73.7 53.0 30.11 1.81 0.0 0 0.00 0.00 0.00 0.000
11/22/2014 9:57:54p 349 0 0 31 81 73.7 53.0 30.10 1.81 0.0 0 0.00 0.00 0.00 0.000
11/22/2014 9:58:54p 350 0 0 31 81 73.5 53.0 30.11 1.81 0.0 0 0.00 0.00 0.00 0.000
11/22/2014 9:59:55p 350 0 0 31 81 73.5 53.0 30.11 1.81 0.0 0 0.00 0.00 0.00 0.000
11/22/2014 10:00:55p 350 0 0 31 81 73.5 53.0 30.11 1.81 0.0 0 0.00 0.00 0.00 0.000
11/22/2014 10:02:01p 349 0 0 31 81 73.5 53.0 30.11 1.81 0.0 0 0.00 0.00 0.00 0.000
11/22/2014 10:03:01p 350 0 0 31 81 73.5 53.0 30.10 1.81 0.0 0 0.00 0.00 0.00 0.000
11/22/2014 10:04:01p 350 0 0 31 81 73.5 52.9 30.10 1.81 0.0 0 0.00 0.00 0.00 0.000
11/22/2014 10:05:01p 350 0 0 31 81 73.5 52.9 30.10 1.81 0.0 0 0.00 0.00 0.00 0.000
11/22/2014 10:06:01p 350 0 0 31 81 73.3 52.9 30.10 1.81 0.0 0 0.00 0.00 0.00 0.000
11/22/2014 10:07:04p 350 0 0 31 81 73.3 52.9 30.10 1.81 0.0 0 0.00 0.00 0.00 0.000
11/22/2014 10:08:04p 350 0 0 31 81 73.3 52.9 30.10 1.81 0.0 0 0.00 0.00 0.00 0.000
11/22/2014 10:09:04p 349 0 0 31 81 73.3 52.9 30.10 1.81 0.0 0 0.00 0.00 0.00 0.000
11/22/2014 10:10:04p 349 0 0 31 81 73.3 52.9 30.11 1.81 0.0 0 0.00 0.00 0.00 0.000
11/22/2014 10:11:04p 350 0 0 31 81 73.3 53.0 30.10 1.81 0.0 0 0.00 0.00 0.00 0.000
11/22/2014 10:12:05p 350 0 0 31 81 73.3 53.1 30.10 1.81 0.0 0 0.00 0.00 0.00 0.000
11/22/2014 10:13:05p 349 0 0 31 81 73.3 53.1 30.10 1.81 0.0 0 0.00 0.00 0.00 0.000
11/22/2014 10:14:05p 350 0 0 31 81 73.2 53.1 30.10 1.81 0.0 0 0.00 0.00 0.00 0.000
11/22/2014 10:15:15p 350 0 0 31 81 73.2 53.0 30.10 1.81 0.0 0 0.00 0.00 0.00 0.000
11/22/2014 10:16:15p 349 0 0 31 81 73.2 53.0 30.10 1.81 0.0 0 0.00 0.00 0.00 0.000
11/22/2014 10:17:15p 350 0 0 31 81 73.2 52.9 30.10 1.81 0.0 0 0.00 0.00 0.00 0.000
11/22/2014 10:18:15p 350 0 0 31 81 73.2 52.9 30.10 1.81 0.0 0 0.00 0.00 0.00 0.000
11/22/2014 10:19:16p 350 0 0 31 81 73.2 52.9 30.11 1.81 0.0 0 0.00 0.00 0.00 0.000
11/22/2014 10:20:16p 350 0 0 31 81 73.2 52.8 30.11 1.81 0.0 0 0.00 0.00 0.00 0.000
11/22/2014 10:21:16p 350 0 0 31 81 73.0 52.7 30.10 1.81 0.0 0 0.00 0.00 0.00 0.000
11/22/2014 10:22:16p 350 0 0 31 81 73.0 52.7 30.10 1.81 0.0 0 0.00 0.00 0.00 0.000
11/22/2014 10:23:16p 350 0 0 31 81 73.0 52.7 30.10 1.81 0.0 0 0.00 0.00 0.00 0.000
11/22/2014 10:24:16p 350 0 0 31 81 73.0 52.7 30.10 1.81 0.0 0 0.00 0.00 0.00 0.000
11/22/2014 10:25:16p 350 0 0 31 81 73.0 52.7 30.10 1.81 0.0 0 0.00 0.00 0.00 0.000
11/22/2014 10:26:19p 350 0 1 31 81 73.0 52.7 30.11 1.81 0.0 0 0.00 0.00 0.00 0.000
11/22/2014 10:27:19p 350 0 1 31 81 73.0 52.7 30.11 1.81 0.0 0 0.00 0.00 0.00 0.000
11/22/2014 10:28:19p 349 0 1 31 81 73.0 52.7 30.11 1.81 0.0 0 0.00 0.00 0.00 0.000
11/22/2014 10:29:19p 349 0 1 31 81 72.8 52.7 30.11 1.81 0.0 0 0.00 0.00 0.00 0.000
11/22/2014 10:30:19p 350 0 1 31 81 72.8 52.8 30.11 1.81 0.0 0 0.00 0.00 0.00 0.000
11/22/2014 10:31:19p 350 0 1 31 81 72.8 52.8 30.11 1.81 0.0 0 0.00 0.00 0.00 0.000
11/22/2014 10:32:19p 350 0 1 31 81 72.8 52.8 30.11 1.81 0.0 0 0.00 0.00 0.00 0.000
11/22/2014 10:33:19p 350 0 1 31 81 72.8 52.8 30.11 1.81 0.0 0 0.00 0.00 0.00 0.000
11/22/2014 10:34:20p 350 0 0 31 81 72.8 52.7 30.11 1.81 0.0 0 0.00 0.00 0.00 0.000
11/22/2014 10:35:20p 349 0 0 31 81 72.8 52.7 30.11 1.81 0.0 0 0.00 0.00 0.00 0.000
11/22/2014 10:36:20p 350 0 0 31 81 72.7 52.7 30.11 1.81 0.0 0 0.00 0.00 0.00 0.000
11/22/2014 10:37:26p 350 0 0 31 81 72.7 52.7 30.11 1.81 0.0 0 0.00 0.00 0.00 0.000
11/22/2014 10:38:26p 350 0 0 31 81 72.7 52.6 30.11 1.81 0.0 0 0.00 0.00 0.00 0.000
11/22/2014 10:39:26p 350 0 0 31 81 72.7 52.6 30.11 1.81 0.0 0 0.00 0.00 0.00 0.000
11/22/2014 10:40:29p 349 0 0 31 81 72.7 52.6 30.11 1.81 0.0 0 0.00 0.00 0.00 0.000
11/22/2014 10:41:32p 350 0 0 31 81 72.7 52.6 30.11 1.81 0.0 0 0.00 0.00 0.00 0.000
11/22/2014 10:43:35p 350 0 0 31 81 72.7 52.5 30.11 1.81 0.0 0 0.00 0.00 0.00 0.000
11/22/2014 10:44:36p 350 0 0 31 81 72.5 52.4 30.11 1.81 0.0 0 0.00 0.00 0.00 0.000
11/22/2014 10:45:39p 349 0 0 31 81 72.5 52.4 30.11 1.81 0.0 0 0.00 0.00 0.00 0.000
11/22/2014 10:46:39p 349 0 0 31 81 72.5 52.4 30.11 1.81 0.0 0 0.00 0.00 0.00 0.000
11/22/2014 10:47:39p 349 0 0 31 81 72.5 52.4 30.11 1.81 0.0 0 0.00 0.00 0.00 0.000
11/22/2014 10:48:39p 350 0 0 31 81 72.5 52.4 30.11 1.81 0.0 0 0.00 0.00 0.00 0.000
11/22/2014 10:49:39p 349 0 0 31 82 72.5 52.4 30.11 1.81 0.0 0 0.00 0.00 0.00 0.000
11/22/2014 10:50:39p 349 0 0 31 81 72.5 52.4 30.11 1.81 0.0 0 0.00 0.00 0.00 0.000
11/22/2014 10:51:39p 350 0 0 31 81 72.5 52.4 30.12 1.81 0.0 0 0.00 0.00 0.00 0.000
11/22/2014 10:52:39p 350 0 0 31 81 72.5 52.4 30.11 1.81 0.0 0 0.00 0.00 0.00 0.000
11/22/2014 10:53:39p 350 0 0 31 81 72.5 52.4 30.11 1.81 0.0 0 0.00 0.00 0.00 0.000
11/22/2014 10:54:39p 350 0 1 31 82 72.5 52.4 30.11 1.81 0.0 0 0.00 0.00 0.00 0.000
11/22/2014 10:55:39p 350 0 1 31 82 72.5 52.4 30.11 1.81 0.0 0 0.00 0.00 0.00 0.000
11/22/2014 10:56:39p 349 1 1 31 81 72.3 52.4 30.11 1.81 0.0 0 0.00 0.00 0.00 0.000
11/22/2014 10:57:40p 350 2 3 31 81 72.3 52.4 30.11 1.81 0.0 0 0.00 0.00 0.00 0.000
11/22/2014 10:58:43p 350 1 3 31 81 72.3 52.3 30.11 1.81 0.0 0 0.00 0.00 0.00 0.000
11/22/2014 10:59:43p 350 2 3 31 81 72.3 52.3 30.11 1.81 0.0 0 0.00 0.00 0.00 0.000
11/22/2014 11:00:43p 350 0 3 31 81 72.3 52.3 30.11 1.81 0.0 0 0.00 0.00 0.00 0.000
11/22/2014 11:01:43p 350 1 3 31 82 72.3 52.4 30.11 1.81 0.0 0 0.00 0.00 0.00 0.000
11/22/2014 11:02:43p 350 0 3 31 82 72.3 52.4 30.11 1.81 0.0 0 0.00 0.00 0.00 0.000

© All rights reserved. Unauthorized duplication or distribution is prohibited

Never base important decisions on this or any weather information obtained from the Internet

California State University, San Bernardino
5500 University Parkway, San Bernardino, CA. 92407
Phone: (909) 537-7558, Email: Weather Master
Last Updated: